| time (UTC) | temp F | wind direction | speed knots | gust knots | rain 1hr in | rain 24hr in | rain mn in | humidity % | barometer mb |
| 20260903184422 | 75 | 228 | 0.9 | 3.5 | 0.00 | 0.00 | 0.00 | 62 | 1013.6 |
| 20260903184320 | 75 | 245 | 0.9 | 2.6 | 0.00 | 0.00 | 0.00 | 63 | 1013.6 |
| 20260903184218 | 75 | 204 | 0.9 | 1.7 | 0.00 | 0.00 | 0.00 | 63 | 1013.7 |
| 20260903184112 | 75 | 203 | 0.9 | 7.0 | 0.00 | 0.00 | 0.00 | 63 | 1013.6 |
| 20260903184033 | 75 | 238 | 0.9 | 7.0 | 0.00 | 0.00 | 0.00 | 63 | 1013.6 |
| 20260903184012 | 75 | 238 | 0.9 | 7.0 | 0.00 | 0.00 | 0.00 | 64 | 1013.6 |
| 20260903183912 | 75 | 238 | 0.9 | 7.0 | 0.00 | 0.00 | 0.00 | 63 | 1013.7 |
| 20260903183812 | 75 | 238 | 0.9 | 7.0 | 0.00 | 0.00 | 0.00 | 64 | 1013.7 |
| 20260903183711 | 75 | 236 | 1.7 | 7.8 | 0.00 | 0.00 | 0.00 | 64 | 1013.7 |
| 20260903183608 | 75 | 226 | 1.7 | 7.8 | 0.00 | 0.00 | 0.00 | 64 | 1013.7 |
| 20260903183526 | 75 | 256 | 1.7 | 7.8 | 0.00 | 0.00 | 0.00 | 64 | 1013.7 |
| 20260903183506 | 75 | 256 | 2.6 | 7.8 | 0.00 | 0.00 | 0.00 | 64 | 1013.7 |
| 20260903183405 | 75 | 256 | 2.6 | 7.8 | 0.00 | 0.00 | 0.00 | 64 | 1013.7 |
| 20260903183306 | 75 | 256 | 2.6 | 7.8 | 0.00 | 0.00 | 0.00 | 65 | 1013.7 |
| 20260903183205 | 74 | 255 | 2.6 | 7.8 | 0.00 | 0.00 | 0.00 | 64 | 1013.7 |
| 20260903183101 | 74 | 221 | 2.6 | 7.8 | 0.00 | 0.00 | 0.00 | 64 | 1013.7 |
| 20260903183021 | 74 | 192 | 2.6 | 7.8 | 0.00 | 0.00 | 0.00 | 64 | 1013.7 |
| 20260903183000 | 74 | 182 | 3.5 | 7.8 | 0.00 | 0.00 | 0.00 | 65 | 1013.7 |
| 20260903182900 | 74 | 250 | 3.5 | 7.8 | 0.00 | 0.00 | 0.00 | 64 | 1013.8 |
| 20260903182800 | 74 | 141 | 3.5 | 7.8 | 0.00 | 0.00 | 0.00 | 65 | 1013.7 |
| 20260903182700 | 74 | 163 | 3.5 | 7.0 | 0.00 | 0.00 | 0.00 | 65 | 1013.8 |
| 20260903182553 | 74 | 226 | 3.5 | 7.0 | 0.00 | 0.00 | 0.00 | 64 | 1013.8 |
| 20260903182514 | 74 | 212 | 3.5 | 7.0 | 0.00 | 0.00 | 0.00 | 65 | 1013.7 |
| 20260903182453 | 73 | 166 | 3.5 | 7.0 | 0.00 | 0.00 | 0.00 | 65 | 1013.7 |
| 20260903182354 | 73 | 230 | 3.5 | 7.0 | 0.00 | 0.00 | 0.00 | 65 | 1013.7 |
| 20260903182254 | 73 | 203 | 3.5 | 7.8 | 0.00 | 0.00 | 0.00 | 66 | 1013.7 |
| 20260903182153 | 73 | 211 | 3.5 | 7.8 | 0.00 | 0.00 | 0.00 | 67 | 1013.7 |
| 20260903182052 | 73 | 160 | 3.5 | 7.8 | 0.00 | 0.00 | 0.00 | 67 | 1013.8 |
| 20260903182008 | 72 | 139 | 3.5 | 7.8 | 0.00 | 0.00 | 0.00 | 67 | 1013.8 |
| 20260903181952 | 72 | 216 | 3.5 | 7.8 | 0.00 | 0.00 | 0.00 | 67 | 1013.8 |
| 20260903181850 | 72 | 198 | 3.5 | 7.8 | 0.00 | 0.00 | 0.00 | 68 | 1013.8 |
| 20260903181749 | 72 | 250 | 3.5 | 7.8 | 0.00 | 0.00 | 0.00 | 68 | 1013.9 |
| 20260903181648 | 72 | 240 | 3.5 | 7.8 | 0.00 | 0.00 | 0.00 | 67 | 1013.8 |
| 20260903181544 | 72 | 243 | 3.5 | 7.8 | 0.00 | 0.00 | 0.00 | 67 | 1013.9 |
| 20260903181503 | 72 | 232 | 3.5 | 7.8 | 0.00 | 0.00 | 0.00 | 67 | 1013.9 |
| 20260903181444 | 72 | 224 | 3.5 | 7.8 | 0.00 | 0.00 | 0.00 | 67 | 1013.9 |
| 20260903181345 | 72 | 242 | 3.5 | 8.7 | 0.00 | 0.00 | 0.00 | 66 | 1013.9 |
| 20260903181244 | 72 | 248 | 3.5 | 8.7 | 0.00 | 0.00 | 0.00 | 67 | 1013.9 |
| 20260903181143 | 72 | 235 | 3.5 | 8.7 | 0.00 | 0.00 | 0.00 | 67 | 1013.9 |
| 20260903181037 | 72 | 243 | 3.5 | 8.7 | 0.00 | 0.00 | 0.00 | 67 | 1013.9 |
| 20260903180956 | 72 | 231 | 3.5 | 8.7 | 0.00 | 0.00 | 0.00 | 68 | 1013.9 |
| 20260903180937 | 72 | 238 | 3.5 | 8.7 | 0.00 | 0.00 | 0.00 | 69 | 1013.9 |
| 20260903180836 | 72 | 230 | 3.5 | 8.7 | 0.00 | 0.00 | 0.00 | 68 | 1013.9 |
| 20260903180736 | 72 | 238 | 3.5 | 8.7 | 0.00 | 0.00 | 0.00 | 68 | 1013.9 |
| 20260903180636 | 72 | 204 | 3.5 | 8.7 | 0.00 | 0.00 | 0.00 | 67 | 1013.9 |
| 20260903180530 | 72 | 222 | 2.6 | 8.7 | 0.00 | 0.00 | 0.00 | 67 | 1013.9 |
| 20260903180450 | 72 | 217 | 2.6 | 8.7 | 0.00 | 0.00 | 0.00 | 66 | 1013.9 |
| 20260903180430 | 73 | 259 | 2.6 | 8.7 | 0.00 | 0.00 | 0.00 | 66 | 1013.9 |
| 20260903180331 | 73 | 259 | 1.7 | 7.0 | 0.00 | 0.00 | 0.00 | 66 | 1013.9 |
| 20260903180230 | 73 | 231 | 1.7 | 7.0 | 0.00 | 0.00 | 0.00 | 68 | 1013.9 |
| 20260903180131 | 73 | 146 | 1.7 | 5.2 | 0.00 | 0.00 | 0.00 | 68 | 1013.9 |
| 20260903180026 | 72 | 215 | 2.6 | 7.0 | 0.00 | 0.00 | 0.00 | 69 | 1013.9 |
| 20260903175944 | 72 | 238 | 2.6 | 7.0 | 0.00 | 0.00 | 0.00 | 68 | 1013.9 |
| 20260903175925 | 72 | 212 | 2.6 | 7.0 | 0.00 | 0.00 | 0.00 | 68 | 1013.9 |
| 20260903175824 | 72 | 235 | 2.6 | 7.0 | 0.00 | 0.00 | 0.00 | 68 | 1013.9 |
| 20260903175724 | 72 | 224 | 2.6 | 7.0 | 0.00 | 0.00 | 0.00 | 69 | 1013.9 |
| 20260903175625 | 72 | 169 | 1.7 | 7.0 | 0.00 | 0.00 | 0.00 | 70 | 1013.9 |
| 20260903175520 | 71 | 266 | 2.6 | 7.0 | 0.00 | 0.00 | 0.00 | 69 | 1013.9 |
| 20260903175445 | 71 | 267 | 2.6 | 7.0 | 0.00 | 0.00 | 0.00 | 68 | 1014.0 |
| 20260903175420 | 71 | 231 | 2.6 | 7.0 | 0.00 | 0.00 | 0.00 | 68 | 1014.0 |
| 20260903175319 | 72 | 137 | 2.6 | 7.0 | 0.00 | 0.00 | 0.00 | 67 | 1014.0 |
| 20260903175220 | 72 | 233 | 2.6 | 7.0 | 0.00 | 0.00 | 0.00 | 68 | 1014.0 |
| 20260903175122 | 72 | 183 | 2.6 | 7.0 | 0.00 | 0.00 | 0.00 | 67 | 1014.0 |
| 20260903175019 | 72 | 273 | 2.6 | 7.0 | 0.00 | 0.00 | 0.00 | 69 | 1014.0 |
| 20260903174945 | 72 | 246 | 2.6 | 7.0 | 0.00 | 0.00 | 0.00 | 69 | 1014.0 |
| 20260903174920 | 72 | 241 | 2.6 | 7.0 | 0.00 | 0.00 | 0.00 | 69 | 1014.0 |
| 20260903174818 | 71 | 215 | 1.7 | 7.0 | 0.00 | 0.00 | 0.00 | 70 | 1014.0 |
| 20260903174718 | 71 | 217 | 2.6 | 7.0 | 0.00 | 0.00 | 0.00 | 69 | 1014.0 |
| 20260903174616 | 71 | 218 | 2.6 | 7.0 | 0.00 | 0.00 | 0.00 | 68 | 1014.0 |
| 20260903174506 | 71 | 232 | 2.6 | 7.0 | 0.00 | 0.00 | 0.00 | 69 | 1014.0 |
| 20260903174445 | 71 | 177 | 2.6 | 7.0 | 0.00 | 0.00 | 0.00 | 69 | 1014.0 |
| 20260903174404 | 71 | 225 | 2.6 | 7.0 | 0.00 | 0.00 | 0.00 | 69 | 1014.1 |
| 20260903174305 | 71 | 238 | 1.7 | 7.0 | 0.00 | 0.00 | 0.00 | 69 | 1014.1 |
| 20260903174204 | 71 | 150 | 1.7 | 5.2 | 0.00 | 0.00 | 0.00 | 69 | 1014.1 |
| 20260903174102 | 71 | 145 | 1.7 | 5.2 | 0.00 | 0.00 | 0.00 | 69 | 1014.1 |
| 20260903174000 | 71 | 203 | 1.7 | 5.2 | 0.00 | 0.00 | 0.00 | 69 | 1014.1 |
| 20260903173945 | 71 | 207 | 1.7 | 5.2 | 0.00 | 0.00 | 0.00 | 69 | 1014.1 |
| 20260903173858 | 71 | 201 | 1.7 | 5.2 | 0.00 | 0.00 | 0.00 | 70 | 1014.1 |
| 20260903173758 | 71 | 164 | 1.7 | 5.2 | 0.00 | 0.00 | 0.00 | 72 | 1014.1 |
| 20260903173658 | 70 | 134 | 1.7 | 5.2 | 0.00 | 0.00 | 0.00 | 71 | 1014.1 |
| 20260903173555 | 70 | 180 | 1.7 | 5.2 | 0.00 | 0.00 | 0.00 | 72 | 1014.1 |
| 20260903173456 | 70 | 161 | 1.7 | 6.1 | 0.00 | 0.00 | 0.00 | 72 | 1014.1 |
| 20260903173445 | 70 | 191 | 1.7 | 6.1 | 0.00 | 0.00 | 0.00 | 72 | 1014.1 |
| 20260903173353 | 70 | 191 | 1.7 | 6.1 | 0.00 | 0.00 | 0.00 | 72 | 1014.1 |
| 20260903173254 | 69 | 219 | 1.7 | 6.1 | 0.00 | 0.00 | 0.00 | 73 | 1014.1 |
| 20260903173153 | 69 | 219 | 1.7 | 6.1 | 0.00 | 0.00 | 0.00 | 73 | 1014.0 |
| 20260903173049 | 69 | 219 | 1.7 | 6.1 | 0.00 | 0.00 | 0.00 | 74 | 1014.1 |
| 20260903172947 | 69 | 226 | 2.6 | 6.1 | 0.00 | 0.00 | 0.00 | 73 | 1014.1 |
| 20260903172843 | 69 | 173 | 2.6 | 7.8 | 0.00 | 0.00 | 0.00 | 73 | 1014.1 |
| 20260903172744 | 69 | 129 | 2.6 | 7.8 | 0.00 | 0.00 | 0.00 | 74 | 1014.1 |
| 20260903172645 | 68 | 233 | 2.6 | 7.8 | 0.00 | 0.00 | 0.00 | 74 | 1014.1 |
| 20260903172543 | 68 | 198 | 2.6 | 7.8 | 0.00 | 0.00 | 0.00 | 75 | 1014.1 |
| 20260903172440 | 68 | 207 | 2.6 | 7.8 | 0.00 | 0.00 | 0.00 | 75 | 1014.1 |
| 20260903172341 | 68 | 203 | 2.6 | 7.8 | 0.00 | 0.00 | 0.00 | 75 | 1014.2 |
| 20260903172239 | 68 | 242 | 3.5 | 7.8 | 0.00 | 0.00 | 0.00 | 74 | 1014.2 |
| 20260903172212 | 68 | 253 | 2.6 | 7.8 | 0.00 | 0.00 | 0.00 | 74 | 1014.2 |
| 20260903172139 | 68 | 233 | 3.5 | 7.8 | 0.00 | 0.00 | 0.00 | 74 | 1014.2 |
| 20260903172104 | 68 | 243 | 3.5 | 7.8 | 0.00 | 0.00 | 0.00 | 74 | 1014.2 |
| 20260903171932 | 68 | 212 | 2.6 | 7.0 | 0.00 | 0.00 | 0.00 | 74 | 1014.2 |
| 20260903171832 | 68 | 284 | 2.6 | 7.0 | 0.00 | 0.00 | 0.00 | 74 | 1014.3 |
| 20260903171732 | 68 | 233 | 2.6 | 7.0 | 0.00 | 0.00 | 0.00 | 74 | 1014.2 |
| 20260903171712 | 68 | 238 | 2.6 | 7.0 | 0.00 | 0.00 | 0.00 | 74 | 1014.3 |
| 20260903171634 | 68 | 210 | 2.6 | 7.0 | 0.00 | 0.00 | 0.00 | 75 | 1014.2 |
| 20260903171552 | 68 | 210 | 2.6 | 7.0 | 0.00 | 0.00 | 0.00 | 74 | 1014.3 |
| 20260903171426 | 68 | 200 | 2.6 | 7.0 | 0.00 | 0.00 | 0.00 | 74 | 1014.3 |
| 20260903171325 | 68 | 257 | 2.6 | 7.0 | 0.00 | 0.00 | 0.00 | 74 | 1014.2 |
| 20260903171226 | 68 | 245 | 2.6 | 5.2 | 0.00 | 0.00 | 0.00 | 75 | 1014.3 |
| 20260903171127 | 68 | 219 | 2.6 | 5.2 | 0.00 | 0.00 | 0.00 | 75 | 1014.3 |
| 20260903171025 | 68 | 236 | 2.6 | 5.2 | 0.00 | 0.00 | 0.00 | 75 | 1014.3 |
| 20260903170939 | 68 | 170 | 2.6 | 5.2 | 0.00 | 0.00 | 0.00 | 75 | 1014.3 |
| 20260903170917 | 68 | 136 | 2.6 | 6.1 | 0.00 | 0.00 | 0.00 | 75 | 1014.3 |
| 20260903170818 | 67 | 217 | 2.6 | 6.1 | 0.00 | 0.00 | 0.00 | 75 | 1014.3 |
| 20260903170718 | 67 | 154 | 2.6 | 6.1 | 0.00 | 0.00 | 0.00 | 75 | 1014.3 |
| 20260903170622 | 67 | 231 | 2.6 | 6.1 | 0.00 | 0.00 | 0.00 | 75 | 1014.3 |
| 20260903170517 | 67 | 250 | 2.6 | 6.1 | 0.00 | 0.00 | 0.00 | 75 | 1014.3 |
| 20260903170439 | 67 | 235 | 2.6 | 6.1 | 0.00 | 0.00 | 0.00 | 75 | 1014.3 |
| 20260903170416 | 67 | 259 | 2.6 | 6.1 | 0.00 | 0.00 | 0.00 | 75 | 1014.3 |
| 20260903170315 | 67 | 243 | 2.6 | 6.1 | 0.00 | 0.00 | 0.00 | 75 | 1014.3 |
| 20260903170216 | 67 | 284 | 2.6 | 6.1 | 0.00 | 0.00 | 0.00 | 76 | 1014.3 |
| 20260903170119 | 67 | 143 | 2.6 | 6.1 | 0.00 | 0.00 | 0.00 | 75 | 1014.3 |
| 20260903170016 | 67 | 236 | 2.6 | 6.1 | 0.00 | 0.00 | 0.00 | 75 | 1014.3 |
| 20260903165939 | 67 | 226 | 2.6 | 6.1 | 0.00 | 0.00 | 0.00 | 75 | 1014.3 |
| 20260903165916 | 67 | 256 | 2.6 | 6.1 | 0.00 | 0.00 | 0.00 | 75 | 1014.3 |
| 20260903165816 | 67 | 238 | 1.7 | 6.1 | 0.00 | 0.00 | 0.00 | 75 | 1014.3 |
| 20260903165716 | 68 | 226 | 1.7 | 5.2 | 0.00 | 0.00 | 0.00 | 74 | 1014.3 |
| 20260903165621 | 68 | 222 | 1.7 | 5.2 | 0.00 | 0.00 | 0.00 | 75 | 1014.3 |
| 20260903165516 | 68 | 214 | 1.7 | 5.2 | 0.00 | 0.00 | 0.00 | 75 | 1014.3 |
| 20260903165416 | 68 | 256 | 1.7 | 5.2 | 0.00 | 0.00 | 0.00 | 75 | 1014.3 |
| 20260903165312 | 68 | 256 | 2.6 | 5.2 | 0.00 | 0.00 | 0.00 | 75 | 1014.4 |
| 20260903165213 | 68 | 233 | 1.7 | 7.0 | 0.00 | 0.00 | 0.00 | 75 | 1014.3 |
| 20260903165112 | 68 | 232 | 1.7 | 7.0 | 0.00 | 0.00 | 0.00 | 75 | 1014.4 |
| 20260903165012 | 68 | 232 | 1.7 | 7.0 | 0.00 | 0.00 | 0.00 | 75 | 1014.4 |
| 20260903164937 | 68 | 239 | 1.7 | 7.0 | 0.00 | 0.00 | 0.00 | 75 | 1014.4 |
| 20260903164912 | 68 | 217 | 1.7 | 7.0 | 0.00 | 0.00 | 0.00 | 76 | 1014.3 |
| 20260903164811 | 67 | 198 | 1.7 | 7.0 | 0.00 | 0.00 | 0.00 | 76 | 1014.4 |
| 20260903164706 | 67 | 198 | 1.7 | 7.0 | 0.00 | 0.00 | 0.00 | 75 | 1014.4 |
| 20260903164606 | 67 | 223 | 1.7 | 7.0 | 0.00 | 0.00 | 0.00 | 75 | 1014.4 |
| 20260903164506 | 67 | 228 | 1.7 | 7.0 | 0.00 | 0.00 | 0.00 | 75 | 1014.4 |
| 20260903164438 | 67 | 212 | 1.7 | 7.0 | 0.00 | 0.00 | 0.00 | 75 | 1014.4 |
| 20260903164406 | 67 | 216 | 1.7 | 7.0 | 0.00 | 0.00 | 0.00 | 74 | 1014.4 |
| 20260903164304 | 68 | 249 | 0.9 | 7.0 | 0.00 | 0.00 | 0.00 | 74 | 1014.4 |
| 20260903164204 | 68 | 243 | 0.9 | 4.3 | 0.00 | 0.00 | 0.00 | 75 | 1014.3 |
| 20260903164102 | 68 | 218 | 0.9 | 4.3 | 0.00 | 0.00 | 0.00 | 75 | 1014.3 |
| 20260903163936 | 68 | 225 | 1.7 | 4.3 | 0.00 | 0.00 | 0.00 | 76 | 1014.3 |
| 20260903163901 | 67 | 225 | 1.7 | 4.3 | 0.00 | 0.00 | 0.00 | 75 | 1014.3 |
| 20260903163757 | 67 | 225 | 1.7 | 4.3 | 0.00 | 0.00 | 0.00 | 76 | 1014.4 |
| 20260903163658 | 67 | 233 | 1.7 | 4.3 | 0.00 | 0.00 | 0.00 | 76 | 1014.4 |
| 20260903163555 | 67 | 242 | 1.7 | 4.3 | 0.00 | 0.00 | 0.00 | 75 | 1014.4 |
| 20260903163456 | 67 | 237 | 1.7 | 4.3 | 0.00 | 0.00 | 0.00 | 75 | 1014.4 |
| 20260903163430 | 67 | 235 | 1.7 | 4.3 | 0.00 | 0.00 | 0.00 | 75 | 1014.4 |
| 20260903163354 | 67 | 231 | 1.7 | 4.3 | 0.00 | 0.00 | 0.00 | 75 | 1014.4 |
| 20260903163251 | 68 | 225 | 1.7 | 4.3 | 0.00 | 0.00 | 0.00 | 74 | 1014.4 |
| 20260903163146 | 68 | 210 | 1.7 | 4.3 | 0.00 | 0.00 | 0.00 | 74 | 1014.4 |
| 20260903163046 | 68 | 233 | 1.7 | 4.3 | 0.00 | 0.00 | 0.00 | 75 | 1014.4 |
| 20260903162946 | 68 | 138 | 0.9 | 4.3 | 0.00 | 0.00 | 0.00 | 75 | 1014.4 |
| 20260903162924 | 68 | 231 | 0.9 | 4.3 | 0.00 | 0.00 | 0.00 | 75 | 1014.4 |
| 20260903162846 | 68 | 166 | 0.9 | 4.3 | 0.00 | 0.00 | 0.00 | 75 | 1014.4 |
| 20260903162746 | 68 | 170 | 0.9 | 3.5 | 0.00 | 0.00 | 0.00 | 75 | 1014.4 |
| 20260903162643 | 68 | 236 | 0.9 | 4.3 | 0.00 | 0.00 | 0.00 | 74 | 1014.4 |
| 20260903162542 | 68 | 235 | 0.9 | 4.3 | 0.00 | 0.00 | 0.00 | 75 | 1014.4 |
| 20260903162442 | 68 | 139 | 0.9 | 4.3 | 0.00 | 0.00 | 0.00 | 75 | 1014.4 |
| 20260903162418 | 68 | 150 | 0.9 | 4.3 | 0.00 | 0.00 | 0.00 | 75 | 1014.4 |
| 20260903162343 | 68 | 246 | 1.7 | 4.3 | 0.00 | 0.00 | 0.00 | 76 | 1014.5 |
| 20260903162240 | 68 | 233 | 1.7 | 4.3 | 0.00 | 0.00 | 0.00 | 75 | 1014.5 |
| 20260903162134 | 68 | 174 | 1.7 | 4.3 | 0.00 | 0.00 | 0.00 | 76 | 1014.5 |
| 20260903162034 | 68 | 149 | 1.7 | 5.2 | 0.00 | 0.00 | 0.00 | 76 | 1014.5 |
| 20260903161934 | 68 | 146 | 1.7 | 5.2 | 0.00 | 0.00 | 0.00 | 75 | 1014.5 |
| 20260903161912 | 68 | 219 | 2.6 | 5.2 | 0.00 | 0.00 | 0.00 | 74 | 1014.5 |
| 20260903161833 | 68 | 219 | 2.6 | 5.2 | 0.00 | 0.00 | 0.00 | 74 | 1014.5 |
| 20260903161734 | 68 | 172 | 1.7 | 5.2 | 0.00 | 0.00 | 0.00 | 75 | 1014.5 |
| 20260903161630 | 68 | 218 | 1.7 | 5.2 | 0.00 | 0.00 | 0.00 | 75 | 1014.5 |
| 20260903161528 | 68 | 226 | 1.7 | 5.2 | 0.00 | 0.00 | 0.00 | 76 | 1014.5 |
| 20260903161427 | 68 | 134 | 1.7 | 5.2 | 0.00 | 0.00 | 0.00 | 75 | 1014.5 |
| 20260903161406 | 68 | 134 | 2.6 | 5.2 | 0.00 | 0.00 | 0.00 | 75 | 1014.5 |
| 20260903161328 | 68 | 226 | 2.6 | 5.2 | 0.00 | 0.00 | 0.00 | 75 | 1014.5 |
| 20260903161228 | 68 | 129 | 2.6 | 5.2 | 0.00 | 0.00 | 0.00 | 74 | 1014.5 |
| 20260903161124 | 68 | 117 | 1.7 | 5.2 | 0.00 | 0.00 | 0.00 | 75 | 1014.6 |
| 20260903161022 | 68 | 148 | 1.7 | 5.2 | 0.00 | 0.00 | 0.00 | 75 | 1014.6 |
| 20260903160922 | 68 | 200 | 1.7 | 5.2 | 0.00 | 0.00 | 0.00 | 76 | 1014.6 |
| 20260903160900 | 68 | 127 | 1.7 | 5.2 | 0.00 | 0.00 | 0.00 | 77 | 1014.6 |
| 20260903160822 | 67 | 158 | 1.7 | 5.2 | 0.00 | 0.00 | 0.00 | 77 | 1014.6 |
| 20260903160722 | 67 | 141 | 1.7 | 5.2 | 0.00 | 0.00 | 0.00 | 78 | 1014.6 |
| 20260903160622 | 67 | 150 | 2.6 | 5.2 | 0.00 | 0.00 | 0.00 | 77 | 1014.6 |
| 20260903160517 | 67 | 143 | 2.6 | 5.2 | 0.00 | 0.00 | 0.00 | 77 | 1014.6 |
| 20260903160416 | 67 | 136 | 2.6 | 5.2 | 0.00 | 0.00 | 0.00 | 77 | 1014.6 |
| 20260903160354 | 67 | 121 | 2.6 | 5.2 | 0.00 | 0.00 | 0.00 | 77 | 1014.6 |
| 20260903160316 | 66 | 108 | 2.6 | 5.2 | 0.00 | 0.00 | 0.00 | 77 | 1014.6 |
| 20260903160216 | 66 | 154 | 2.6 | 5.2 | 0.00 | 0.00 | 0.00 | 78 | 1014.6 |
| 20260903160112 | 66 | 204 | 1.7 | 5.2 | 0.00 | 0.00 | 0.00 | 78 | 1014.6 |
| 20260903160012 | 66 | 184 | 1.7 | 5.2 | 0.00 | 0.00 | 0.00 | 78 | 1014.6 |
| 20260903155912 | 66 | 217 | 2.6 | 5.2 | 0.00 | 0.00 | 0.00 | 78 | 1014.6 |
| 20260903155850 | 66 | 215 | 2.6 | 5.2 | 0.00 | 0.00 | 0.00 | 78 | 1014.6 |
| 20260903155812 | 66 | 241 | 2.6 | 5.2 | 0.00 | 0.00 | 0.00 | 78 | 1014.6 |
| 20260903155714 | 66 | 229 | 2.6 | 5.2 | 0.00 | 0.00 | 0.00 | 78 | 1014.6 |
| 20260903155604 | 66 | 201 | 2.6 | 5.2 | 0.00 | 0.00 | 0.00 | 78 | 1014.6 |
| 20260903155504 | 66 | 118 | 1.7 | 5.2 | 0.00 | 0.00 | 0.00 | 78 | 1014.6 |
| 20260903155404 | 66 | 146 | 1.7 | 5.2 | 0.00 | 0.00 | 0.00 | 78 | 1014.6 |
| 20260903155343 | 66 | 142 | 1.7 | 5.2 | 0.00 | 0.00 | 0.00 | 79 | 1014.6 |
| 20260903155306 | 66 | 137 | 1.7 | 5.2 | 0.00 | 0.00 | 0.00 | 79 | 1014.6 |
| 20260903155204 | 66 | 129 | 2.6 | 5.2 | 0.00 | 0.00 | 0.00 | 79 | 1014.6 |
| 20260903155105 | 66 | 110 | 2.6 | 5.2 | 0.00 | 0.00 | 0.00 | 79 | 1014.6 |
| 20260903155056 | 66 | 141 | 1.7 | 5.2 | 0.00 | 0.00 | 0.00 | 78 | 1014.7 |
| 20260903155002 | 66 | 102 | 2.6 | 5.2 | 0.00 | 0.00 | 0.00 | 79 | 1014.6 |
| 20260903154947 | 66 | 141 | 1.7 | 5.2 | 0.00 | 0.00 | 0.00 | 78 | 1014.7 |
| 20260903154802 | 66 | 150 | 1.7 | 5.2 | 0.00 | 0.00 | 0.00 | 79 | 1014.7 |
| 20260903154658 | 66 | 159 | 1.7 | 4.3 | 0.00 | 0.00 | 0.00 | 79 | 1014.7 |
| 20260903154554 | 66 | 148 | 1.7 | 4.3 | 0.00 | 0.00 | 0.00 | 80 | 1014.7 |
| 20260903154453 | 65 | 122 | 1.7 | 4.3 | 0.00 | 0.00 | 0.00 | 80 | 1014.7 |
| 20260903154352 | 65 | 136 | 1.7 | 4.3 | 0.00 | 0.00 | 0.00 | 80 | 1014.7 |
| 20260903154330 | 65 | 117 | 1.7 | 4.3 | 0.00 | 0.00 | 0.00 | 80 | 1014.7 |
| 20260903154252 | 65 | 111 | 1.7 | 4.3 | 0.00 | 0.00 | 0.00 | 80 | 1014.7 |
| 20260903154152 | 65 | 124 | 1.7 | 3.5 | 0.00 | 0.00 | 0.00 | 81 | 1014.7 |
| 20260903154049 | 65 | 138 | 1.7 | 4.3 | 0.00 | 0.00 | 0.00 | 81 | 1014.7 |
| 20260903153948 | 65 | 146 | 1.7 | 4.3 | 0.00 | 0.00 | 0.00 | 81 | 1014.7 |
| 20260903153848 | 65 | 133 | 1.7 | 4.3 | 0.00 | 0.00 | 0.00 | 81 | 1014.7 |
| 20260903153824 | 64 | 141 | 1.7 | 4.3 | 0.00 | 0.00 | 0.00 | 81 | 1014.7 |
| 20260903153748 | 64 | 231 | 1.7 | 4.3 | 0.00 | 0.00 | 0.00 | 82 | 1014.8 |
| 20260903153647 | 64 | 146 | 2.6 | 4.3 | 0.00 | 0.00 | 0.00 | 82 | 1014.7 |
| 20260903153542 | 64 | 138 | 1.7 | 4.3 | 0.00 | 0.00 | 0.00 | 83 | 1014.8 |
| 20260903153440 | 64 | 154 | 2.6 | 4.3 | 0.00 | 0.00 | 0.00 | 83 | 1014.8 |
| 20260903153340 | 64 | 139 | 2.6 | 6.1 | 0.00 | 0.00 | 0.00 | 83 | 1014.7 |
| 20260903153318 | 64 | 113 | 2.6 | 6.1 | 0.00 | 0.00 | 0.00 | 83 | 1014.7 |
| 20260903153239 | 64 | 120 | 2.6 | 6.1 | 0.00 | 0.00 | 0.00 | 83 | 1014.8 |
| 20260903153140 | 63 | 143 | 2.6 | 6.1 | 0.00 | 0.00 | 0.00 | 84 | 1014.8 |
| 20260903153033 | 63 | 130 | 2.6 | 6.1 | 0.00 | 0.00 | 0.00 | 85 | 1014.7 |
| 20260903152935 | 63 | 144 | 2.6 | 6.1 | 0.00 | 0.00 | 0.00 | 84 | 1014.8 |
| 20260903152834 | 63 | 107 | 2.6 | 6.1 | 0.00 | 0.00 | 0.00 | 84 | 1014.8 |
| 20260903152811 | 62 | 101 | 2.6 | 6.1 | 0.00 | 0.00 | 0.00 | 84 | 1014.9 |
| 20260903152734 | 62 | 92 | 2.6 | 6.1 | 0.00 | 0.00 | 0.00 | 85 | 1014.9 |
| 20260903152634 | 62 | 136 | 2.6 | 6.1 | 0.00 | 0.00 | 0.00 | 85 | 1014.9 |
| 20260903152530 | 62 | 110 | 2.6 | 6.1 | 0.00 | 0.00 | 0.00 | 85 | 1014.8 |
| 20260903152429 | 62 | 105 | 2.6 | 6.1 | 0.00 | 0.00 | 0.00 | 85 | 1014.8 |
| 20260903152330 | 62 | 119 | 2.6 | 6.1 | 0.00 | 0.00 | 0.00 | 85 | 1014.8 |
| 20260903152313 | 62 | 167 | 2.6 | 6.1 | 0.00 | 0.00 | 0.00 | 85 | 1014.8 |
| 20260903152258 | 61 | 100 | 2.6 | 5.2 | 0.00 | 0.00 | 0.00 | 86 | 1014.8 |
| 20260903152230 | 62 | 145 | 2.6 | 6.1 | 0.00 | 0.00 | 0.00 | 86 | 1014.8 |
| 20260903152145 | 62 | 150 | 2.6 | 6.1 | 0.00 | 0.00 | 0.00 | 86 | 1014.8 |
| 20260903152022 | 62 | 101 | 2.6 | 6.1 | 0.00 | 0.00 | 0.00 | 86 | 1014.8 |
| 20260903151932 | 62 | 93 | 2.6 | 5.2 | 0.00 | 0.00 | 0.00 | 86 | 1014.7 |
| 20260903151923 | 61 | 136 | 2.6 | 5.2 | 0.00 | 0.00 | 0.00 | 86 | 1014.8 |
| 20260903151720 | 61 | 113 | 2.6 | 5.2 | 0.00 | 0.00 | 0.00 | 87 | 1014.8 |
| 20260903151620 | 61 | 94 | 2.6 | 5.2 | 0.00 | 0.00 | 0.00 | 87 | 1014.9 |
| 20260903151514 | 61 | 154 | 2.6 | 5.2 | 0.00 | 0.00 | 0.00 | 87 | 1014.9 |
| 20260903151414 | 61 | 93 | 2.6 | 5.2 | 0.00 | 0.00 | 0.00 | 88 | 1014.9 |
| 20260903151320 | 60 | 105 | 2.6 | 5.2 | 0.00 | 0.00 | 0.00 | 88 | 1014.9 |
| 20260903151313 | 60 | 103 | 2.6 | 5.2 | 0.00 | 0.00 | 0.00 | 88 | 1014.9 |
| 20260903151215 | 60 | 121 | 2.6 | 5.2 | 0.00 | 0.00 | 0.00 | 88 | 1014.9 |
| 20260903151114 | 60 | 104 | 2.6 | 5.2 | 0.00 | 0.00 | 0.00 | 88 | 1014.9 |
| 20260903151006 | 60 | 100 | 1.7 | 5.2 | 0.00 | 0.00 | 0.00 | 88 | 1014.9 |
| 20260903150905 | 60 | 99 | 1.7 | 5.2 | 0.00 | 0.00 | 0.00 | 88 | 1014.9 |
| 20260903150812 | 60 | 108 | 1.7 | 4.3 | 0.00 | 0.00 | 0.00 | 88 | 1014.9 |
| 20260903150806 | 60 | 101 | 1.7 | 4.3 | 0.00 | 0.00 | 0.00 | 88 | 1014.9 |
| 20260903150706 | 60 | 96 | 0.9 | 4.3 | 0.00 | 0.00 | 0.00 | 88 | 1014.9 |
| 20260903150605 | 60 | 88 | 0.9 | 4.3 | 0.00 | 0.00 | 0.00 | 88 | 1014.9 |
| 20260903150503 | 60 | 94 | 0.9 | 4.3 | 0.00 | 0.00 | 0.00 | 89 | 1014.9 |
| 20260903150400 | 60 | 98 | 0.9 | 4.3 | 0.00 | 0.00 | 0.00 | 89 | 1014.9 |
| 20260903150314 | 59 | 54 | 0.9 | 4.3 | 0.00 | 0.00 | 0.00 | 90 | 1014.9 |
| 20260903150300 | 59 | 84 | 0.9 | 4.3 | 0.00 | 0.00 | 0.00 | 90 | 1014.9 |
| 20260903150201 | 59 | 104 | 0.9 | 2.6 | 0.00 | 0.00 | 0.00 | 90 | 1014.9 |
| 20260903150057 | 59 | 131 | 0.9 | 2.6 | 0.00 | 0.00 | 0.00 | 91 | 1014.9 |
| 20260903150032 | 58 | 117 | 0.9 | 2.6 | 0.00 | 0.00 | 0.00 | 90 | 1014.9 |
| 20260903145954 | 59 | 166 | 0.9 | 2.6 | 0.00 | 0.00 | 0.00 | 90 | 1014.9 |
| 20260903145923 | 59 | 166 | 0.9 | 2.6 | 0.00 | 0.00 | 0.00 | 90 | 1014.9 |
| 20260903145752 | 58 | 117 | 0.9 | 2.6 | 0.00 | 0.00 | 0.00 | 90 | 1014.9 |
| 20260903145651 | 58 | 105 | 0.9 | 2.6 | 0.00 | 0.00 | 0.00 | 90 | 1014.9 |
| 20260903145549 | 58 | 99 | 0.9 | 2.6 | 0.00 | 0.00 | 0.00 | 90 | 1014.8 |
| 20260903145450 | 58 | 107 | 0.9 | 3.5 | 0.00 | 0.00 | 0.00 | 90 | 1014.9 |
| 20260903145349 | 58 | 107 | 0.9 | 3.5 | 0.00 | 0.00 | 0.00 | 90 | 1014.8 |
| 20260903145309 | 58 | 116 | 0.9 | 3.5 | 0.00 | 0.00 | 0.00 | 90 | 1014.8 |
| 20260903145245 | 58 | 105 | 0.9 | 3.5 | 0.00 | 0.00 | 0.00 | 90 | 1014.8 |
| 20260903145147 | 58 | 158 | 0.9 | 3.5 | 0.00 | 0.00 | 0.00 | 90 | 1014.8 |
| 20260903145043 | 58 | 134 | 0.9 | 4.3 | 0.00 | 0.00 | 0.00 | 90 | 1014.9 |
| 20260903144942 | 58 | 134 | 0.9 | 4.3 | 0.00 | 0.00 | 0.00 | 90 | 1014.8 |
| 20260903144839 | 58 | 131 | 0.9 | 4.3 | 0.00 | 0.00 | 0.00 | 90 | 1014.8 |
| 20260903144809 | 58 | 131 | 0.9 | 4.3 | 0.00 | 0.00 | 0.00 | 90 | 1014.8 |
| 20260903144740 | 58 | 144 | 0.9 | 5.2 | 0.00 | 0.00 | 0.00 | 90 | 1014.8 |
| 20260903144639 | 58 | 143 | 0.9 | 5.2 | 0.00 | 0.00 | 0.00 | 90 | 1014.8 |
| 20260903144535 | 58 | 115 | 0.9 | 5.2 | 0.00 | 0.00 | 0.00 | 90 | 1014.7 |
| 20260903144434 | 58 | 89 | 0.9 | 5.2 | 0.00 | 0.00 | 0.00 | 90 | 1014.7 |
| 20260903144309 | 58 | 139 | 1.7 | 5.2 | 0.00 | 0.00 | 0.00 | 90 | 1014.7 |
| 20260903144232 | 58 | 124 | 1.7 | 5.2 | 0.00 | 0.00 | 0.00 | 90 | 1014.7 |
| 20260903144133 | 58 | 160 | 0.9 | 5.2 | 0.00 | 0.00 | 0.00 | 90 | 1014.8 |
| 20260903144033 | 58 | 143 | 1.7 | 5.2 | 0.00 | 0.00 | 0.00 | 90 | 1014.7 |
| 20260903143932 | 58 | 148 | 1.7 | 5.2 | 0.00 | 0.00 | 0.00 | 90 | 1014.8 |
| 20260903143832 | 58 | 135 | 1.7 | 5.2 | 0.00 | 0.00 | 0.00 | 90 | 1014.8 |
| 20260903143807 | 58 | 159 | 0.9 | 5.2 | 0.00 | 0.00 | 0.00 | 90 | 1014.9 |
| 20260903143733 | 58 | 150 | 0.9 | 5.2 | 0.00 | 0.00 | 0.00 | 90 | 1014.9 |
| 20260903143634 | 58 | 150 | 1.7 | 5.2 | 0.00 | 0.00 | 0.00 | 90 | 1014.8 |
| 20260903143531 | 58 | 150 | 1.7 | 5.2 | 0.00 | 0.00 | 0.00 | 90 | 1014.7 |
| 20260903143430 | 58 | 125 | 1.7 | 5.2 | 0.00 | 0.00 | 0.00 | 90 | 1014.7 |
| 20260903143328 | 58 | 125 | 0.9 | 5.2 | 0.00 | 0.00 | 0.00 | 91 | 1014.8 |
| 20260903143307 | 58 | 127 | 0.9 | 4.3 | 0.00 | 0.00 | 0.00 | 91 | 1014.7 |
| 20260903143228 | 58 | 139 | 0.9 | 4.3 | 0.00 | 0.00 | 0.00 | 91 | 1014.7 |
| 20260903143129 | 58 | 127 | 0.9 | 4.3 | 0.00 | 0.00 | 0.00 | 91 | 1014.7 |
| 20260903143028 | 58 | 130 | 0.9 | 4.3 | 0.00 | 0.00 | 0.00 | 91 | 1014.7 |
| 20260903142929 | 58 | 139 | 0.9 | 4.3 | 0.00 | 0.00 | 0.00 | 91 | 1014.7 |
| 20260903142829 | 58 | 76 | 0.9 | 4.3 | 0.00 | 0.00 | 0.00 | 91 | 1014.7 |
| 20260903142805 | 58 | 139 | 0.9 | 4.3 | 0.00 | 0.00 | 0.00 | 91 | 1014.7 |
| 20260903142724 | 58 | 144 | 0.9 | 4.3 | 0.00 | 0.00 | 0.00 | 91 | 1014.7 |
| 20260903142626 | 58 | 146 | 0.9 | 4.3 | 0.00 | 0.00 | 0.00 | 91 | 1014.7 |
| 20260903142525 | 58 | 150 | 0.9 | 4.3 | 0.00 | 0.00 | 0.00 | 91 | 1014.7 |
| 20260903142424 | 57 | 158 | 0.9 | 4.3 | 0.00 | 0.00 | 0.00 | 91 | 1014.7 |
| 20260903142321 | 57 | 165 | 0.9 | 4.3 | 0.00 | 0.00 | 0.00 | 91 | 1014.7 |
| 20260903142306 | 57 | 170 | 0.9 | 4.3 | 0.00 | 0.00 | 0.00 | 91 | 1014.6 |
| 20260903142216 | 57 | 170 | 0.9 | 4.3 | 0.00 | 0.00 | 0.00 | 91 | 1014.6 |
| 20260903142116 | 57 | 154 | 0.9 | 3.5 | 0.00 | 0.00 | 0.00 | 91 | 1014.6 |
| 20260903142015 | 57 | 101 | 0.9 | 3.5 | 0.00 | 0.00 | 0.00 | 91 | 1014.7 |
| 20260903141915 | 57 | 172 | 0.9 | 3.5 | 0.00 | 0.00 | 0.00 | 91 | 1014.7 |
| 20260903141807 | 57 | 169 | 0.9 | 3.5 | 0.00 | 0.00 | 0.00 | 91 | 1014.6 |
| 20260903141707 | 57 | 111 | 0.9 | 3.5 | 0.00 | 0.00 | 0.00 | 91 | 1014.6 |
| 20260903141609 | 57 | 158 | 0.9 | 3.5 | 0.00 | 0.00 | 0.00 | 91 | 1014.6 |
| 20260903141508 | 57 | 113 | 0.9 | 3.5 | 0.00 | 0.00 | 0.00 | 91 | 1014.6 |
| 20260903141408 | 57 | 115 | 0.9 | 3.5 | 0.00 | 0.00 | 0.00 | 91 | 1014.6 |
| 20260903141309 | 57 | 91 | 0.9 | 3.5 | 0.00 | 0.00 | 0.00 | 91 | 1014.6 |
| 20260903141205 | 57 | 132 | 0.9 | 3.5 | 0.00 | 0.00 | 0.00 | 91 | 1014.6 |
| 20260903141102 | 57 | 107 | 0.9 | 3.5 | 0.00 | 0.00 | 0.00 | 91 | 1014.6 |
| 20260903141002 | 57 | 131 | 0.9 | 3.5 | 0.00 | 0.00 | 0.00 | 91 | 1014.6 |
| 20260903140902 | 57 | 134 | 0.9 | 3.5 | 0.00 | 0.00 | 0.00 | 91 | 1014.6 |
| 20260903140803 | 57 | 186 | 0.9 | 3.5 | 0.00 | 0.00 | 0.00 | 91 | 1014.6 |
| 20260903140658 | 57 | 138 | 0.9 | 2.6 | 0.00 | 0.00 | 0.00 | 91 | 1014.6 |
| 20260903140557 | 57 | 141 | 0.9 | 4.3 | 0.00 | 0.00 | 0.00 | 91 | 1014.6 |
| 20260903140456 | 57 | 134 | 0.9 | 4.3 | 0.00 | 0.00 | 0.00 | 91 | 1014.6 |
| 20260903140356 | 57 | 134 | 0.9 | 4.3 | 0.00 | 0.00 | 0.00 | 91 | 1014.6 |
| 20260903140256 | 57 | 142 | 0.9 | 4.3 | 0.00 | 0.00 | 0.00 | 91 | 1014.6 |
| 20260903140154 | 57 | 108 | 0.9 | 4.3 | 0.00 | 0.00 | 0.00 | 91 | 1014.6 |
| 20260903140049 | 57 | 148 | 0.9 | 4.3 | 0.00 | 0.00 | 0.00 | 91 | 1014.6 |
| 20260903135950 | 57 | 161 | 0.9 | 4.3 | 0.00 | 0.00 | 0.00 | 91 | 1014.6 |
| 20260903135850 | 57 | 113 | 0.9 | 4.3 | 0.00 | 0.00 | 0.00 | 91 | 1014.6 |
| 20260903135750 | 57 | 162 | 0.9 | 4.3 | 0.00 | 0.00 | 0.00 | 91 | 1014.6 |
| 20260903135644 | 57 | 124 | 0.9 | 4.3 | 0.00 | 0.00 | 0.00 | 91 | 1014.6 |
| 20260903135544 | 57 | 158 | 0.9 | 2.6 | 0.00 | 0.00 | 0.00 | 91 | 1014.6 |
| 20260903135444 | 57 | 146 | 0.9 | 2.6 | 0.00 | 0.00 | 0.00 | 91 | 1014.6 |
| 20260903135345 | 57 | 135 | 0.9 | 2.6 | 0.00 | 0.00 | 0.00 | 91 | 1014.5 |
| 20260903135245 | 57 | 146 | 0.9 | 2.6 | 0.00 | 0.00 | 0.00 | 91 | 1014.5 |
| 20260903135140 | 57 | 146 | 0.9 | 2.6 | 0.00 | 0.00 | 0.00 | 91 | 1014.5 |
| 20260903135038 | 57 | 150 | 0.9 | 1.7 | 0.00 | 0.00 | 0.00 | 91 | 1014.5 |
| 20260903134938 | 57 | 150 | 0.9 | 2.6 | 0.00 | 0.00 | 0.00 | 91 | 1014.5 |
| 20260903134838 | 57 | 154 | 0.9 | 2.6 | 0.00 | 0.00 | 0.00 | 91 | 1014.5 |
| 20260903134739 | 57 | 150 | 0.9 | 2.6 | 0.00 | 0.00 | 0.00 | 91 | 1014.5 |
| 20260903134635 | 57 | 104 | 0.9 | 2.6 | 0.00 | 0.00 | 0.00 | 91 | 1014.5 |
| 20260903134531 | 57 | 104 | 0.9 | 2.6 | 0.00 | 0.00 | 0.00 | 91 | 1014.5 |
| 20260903134432 | 57 | 104 | 0.9 | 2.6 | 0.00 | 0.00 | 0.00 | 91 | 1014.5 |
| 20260903134332 | 57 | 94 | 0.9 | 2.6 | 0.00 | 0.00 | 0.00 | 91 | 1014.5 |
| 20260903134232 | 57 | 111 | 0.9 | 2.6 | 0.00 | 0.00 | 0.00 | 91 | 1014.4 |
| 20260903134129 | 57 | 110 | 0.9 | 2.6 | 0.00 | 0.00 | 0.00 | 91 | 1014.4 |
| 20260903134028 | 57 | 114 | 0.9 | 2.6 | 0.00 | 0.00 | 0.00 | 91 | 1014.4 |
| 20260903133928 | 57 | 99 | 0.9 | 2.6 | 0.00 | 0.00 | 0.00 | 91 | 1014.4 |
| 20260903133828 | 57 | 117 | 0.9 | 2.6 | 0.00 | 0.00 | 0.00 | 91 | 1014.4 |
| 20260903133726 | 57 | 109 | 0.9 | 2.6 | 0.00 | 0.00 | 0.00 | 91 | 1014.4 |
| 20260903133623 | 57 | 111 | 0.9 | 2.6 | 0.00 | 0.00 | 0.00 | 91 | 1014.5 |
| 20260903133520 | 57 | 103 | 0.9 | 2.6 | 0.00 | 0.00 | 0.00 | 91 | 1014.5 |
| 20260903133419 | 57 | 117 | 0.9 | 2.6 | 0.00 | 0.00 | 0.00 | 91 | 1014.4 |
| 20260903133320 | 57 | 99 | 0.9 | 2.6 | 0.00 | 0.00 | 0.00 | 91 | 1014.4 |
| 20260903133221 | 57 | 108 | 0.9 | 2.6 | 0.00 | 0.00 | 0.00 | 91 | 1014.4 |
| 20260903133118 | 57 | 114 | 0.9 | 2.6 | 0.00 | 0.00 | 0.00 | 91 | 1014.4 |
| 20260903133014 | 57 | 105 | 0.9 | 2.6 | 0.00 | 0.00 | 0.00 | 91 | 1014.4 |
| 20260903132914 | 57 | 101 | 0.9 | 2.6 | 0.00 | 0.00 | 0.00 | 91 | 1014.3 |
| 20260903132815 | 57 | 158 | 0.0 | 2.6 | 0.00 | 0.00 | 0.00 | 91 | 1014.4 |
| 20260903132715 | 57 | 139 | 0.9 | 2.6 | 0.00 | 0.00 | 0.00 | 91 | 1014.4 |
| 20260903132656 | 57 | 139 | 0.0 | 1.7 | 0.00 | 0.00 | 0.00 | 91 | 1014.4 |
| 20260903132611 | 57 | 139 | 0.9 | 2.6 | 0.00 | 0.00 | 0.00 | 91 | 1014.4 |
| 20260903132538 | 57 | 139 | 0.0 | 2.6 | 0.00 | 0.00 | 0.00 | 91 | 1014.4 |
| 20260903132408 | 57 | 155 | 0.0 | 1.7 | 0.00 | 0.00 | 0.00 | 91 | 1014.4 |
| 20260903132324 | 57 | 155 | 0.0 | 1.7 | 0.00 | 0.00 | 0.00 | 91 | 1014.4 |
| 20260903132314 | 57 | 139 | 0.0 | 1.7 | 0.00 | 0.00 | 0.00 | 91 | 1014.4 |
| 20260903132102 | 57 | 137 | 0.0 | 1.7 | 0.00 | 0.00 | 0.00 | 91 | 1014.4 |
| 20260903132002 | 57 | 136 | 0.0 | 1.7 | 0.00 | 0.00 | 0.00 | 91 | 1014.4 |
| 20260903131902 | 57 | 137 | 0.0 | 1.7 | 0.00 | 0.00 | 0.00 | 91 | 1014.4 |
| 20260903131801 | 57 | 136 | 0.0 | 1.7 | 0.00 | 0.00 | 0.00 | 91 | 1014.4 |
| 20260903131707 | 57 | 151 | 0.0 | 1.7 | 0.00 | 0.00 | 0.00 | 91 | 1014.5 |
| 20260903131702 | 57 | 150 | 0.0 | 1.7 | 0.00 | 0.00 | 0.00 | 91 | 1014.5 |
| 20260903131558 | 57 | 151 | 0.9 | 1.7 | 0.00 | 0.00 | 0.00 | 91 | 1014.5 |
| 20260903131458 | 57 | 93 | 0.9 | 1.7 | 0.00 | 0.00 | 0.00 | 91 | 1014.5 |
| 20260903131358 | 57 | 93 | 0.9 | 3.5 | 0.00 | 0.00 | 0.00 | 91 | 1014.5 |
| 20260903131258 | 57 | 109 | 0.9 | 3.5 | 0.00 | 0.00 | 0.00 | 91 | 1014.5 |
| 20260903131203 | 57 | 108 | 0.9 | 3.5 | 0.00 | 0.00 | 0.00 | 91 | 1014.5 |
| 20260903131156 | 57 | 108 | 0.9 | 3.5 | 0.00 | 0.00 | 0.00 | 91 | 1014.5 |
| 20260903131144 | 57 | 109 | 0.9 | 3.5 | 0.00 | 0.00 | 0.00 | 91 | 1014.5 |
| 20260903131052 | 57 | 109 | 0.9 | 3.5 | 0.00 | 0.00 | 0.00 | 91 | 1014.5 |
| 20260903131030 | 57 | 109 | 0.9 | 3.5 | 0.00 | 0.00 | 0.00 | 91 | 1014.5 |
| 20260903130850 | 57 | 108 | 0.9 | 3.5 | 0.00 | 0.00 | 0.00 | 91 | 1014.5 |
| 20260903130811 | 57 | 109 | 0.9 | 3.5 | 0.00 | 0.00 | 0.00 | 91 | 1014.5 |
| 20260903130653 | 57 | 109 | 0.9 | 3.5 | 0.00 | 0.00 | 0.00 | 91 | 1014.5 |
| 20260903130546 | 57 | 104 | 0.9 | 3.5 | 0.00 | 0.00 | 0.00 | 91 | 1014.4 |
| 20260903130446 | 57 | 104 | 0.9 | 3.5 | 0.00 | 0.00 | 0.00 | 91 | 1014.4 |
| 20260903130345 | 57 | 89 | 0.9 | 2.6 | 0.00 | 0.00 | 0.00 | 91 | 1014.4 |
| 20260903130246 | 57 | 113 | 0.9 | 2.6 | 0.00 | 0.00 | 0.00 | 91 | 1014.4 |
| 20260903130159 | 57 | 108 | 0.9 | 2.6 | 0.00 | 0.00 | 0.00 | 91 | 1014.5 |
| 20260903130144 | 57 | 115 | 0.9 | 2.6 | 0.00 | 0.00 | 0.00 | 91 | 1014.5 |
| 20260903130043 | 57 | 110 | 0.9 | 2.6 | 0.00 | 0.00 | 0.00 | 91 | 1014.5 |
| 20260903125942 | 57 | 119 | 0.9 | 2.6 | 0.00 | 0.00 | 0.00 | 91 | 1014.4 |
| 20260903125842 | 57 | 122 | 0.9 | 2.6 | 0.00 | 0.00 | 0.00 | 91 | 1014.5 |
| 20260903125740 | 57 | 122 | 0.9 | 2.6 | 0.00 | 0.00 | 0.00 | 91 | 1014.5 |
| 20260903125701 | 57 | 113 | 0.0 | 2.6 | 0.00 | 0.00 | 0.00 | 91 | 1014.5 |
| 20260903125638 | 57 | 89 | 0.0 | 2.6 | 0.00 | 0.00 | 0.00 | 91 | 1014.5 |
| 20260903125535 | 57 | 113 | 0.0 | 1.7 | 0.00 | 0.00 | 0.00 | 91 | 1014.5 |
| 20260903125432 | 57 | 117 | 0.0 | 1.7 | 0.00 | 0.00 | 0.00 | 91 | 1014.5 |
| 20260903125332 | 57 | 117 | 0.0 | 1.7 | 0.00 | 0.00 | 0.00 | 91 | 1014.5 |
| 20260903125232 | 57 | 117 | 0.0 | 1.7 | 0.00 | 0.00 | 0.00 | 91 | 1014.5 |
| 20260903125130 | 57 | 117 | 0.0 | 1.7 | 0.00 | 0.00 | 0.00 | 91 | 1014.5 |
| 20260903125023 | 57 | 113 | 0.0 | 1.7 | 0.00 | 0.00 | 0.00 | 91 | 1014.5 |
| 20260903124924 | 57 | 113 | 0.0 | 1.7 | 0.00 | 0.00 | 0.00 | 91 | 1014.5 |
| 20260903124823 | 57 | 113 | 0.9 | 2.6 | 0.00 | 0.00 | 0.00 | 91 | 1014.5 |
| 20260903124724 | 57 | 113 | 0.9 | 2.6 | 0.00 | 0.00 | 0.00 | 91 | 1014.5 |
| 20260903124700 | 57 | 113 | 0.9 | 2.6 | 0.00 | 0.00 | 0.00 | 91 | 1014.6 |
| 20260903124624 | 57 | 113 | 0.9 | 2.6 | 0.00 | 0.00 | 0.00 | 90 | 1014.6 |
| 20260903124520 | 57 | 158 | 0.0 | 2.6 | 0.00 | 0.00 | 0.00 | 90 | 1014.5 |
| 20260903124417 | 57 | 139 | 0.0 | 2.6 | 0.00 | 0.00 | 0.00 | 90 | 1014.5 |
| 20260903124317 | 57 | 176 | 0.0 | 2.6 | 0.00 | 0.00 | 0.00 | 90 | 1014.5 |
| 20260903124218 | 57 | 176 | 0.0 | 2.6 | 0.00 | 0.00 | 0.00 | 90 | 1014.5 |
| 20260903124200 | 57 | 176 | 0.0 | 2.6 | 0.00 | 0.00 | 0.00 | 90 | 1014.5 |
| 20260903124118 | 57 | 158 | 0.0 | 2.6 | 0.00 | 0.00 | 0.00 | 90 | 1014.5 |
| 20260903124014 | 57 | 158 | 0.0 | 2.6 | 0.00 | 0.00 | 0.00 | 91 | 1014.5 |
| 20260903123914 | 57 | 158 | 0.0 | 2.6 | 0.00 | 0.00 | 0.00 | 91 | 1014.5 |
| 20260903123814 | 57 | 102 | 0.0 | 2.6 | 0.00 | 0.00 | 0.00 | 90 | 1014.5 |
| 20260903123713 | 57 | 160 | 0.0 | 2.6 | 0.00 | 0.00 | 0.00 | 90 | 1014.6 |
| 20260903123700 | 57 | 160 | 0.0 | 2.6 | 0.00 | 0.00 | 0.00 | 90 | 1014.6 |
| 20260903123615 | 57 | 160 | 0.0 | 2.6 | 0.00 | 0.00 | 0.00 | 90 | 1014.6 |
| 20260903123510 | 57 | 161 | 0.9 | 2.6 | 0.00 | 0.00 | 0.00 | 90 | 1014.5 |
| 20260903123409 | 57 | 161 | 0.9 | 2.6 | 0.00 | 0.00 | 0.00 | 90 | 1014.6 |
| 20260903123308 | 57 | 161 | 0.9 | 2.6 | 0.00 | 0.00 | 0.00 | 90 | 1014.6 |
| 20260903123210 | 57 | 104 | 0.9 | 2.6 | 0.00 | 0.00 | 0.00 | 90 | 1014.6 |
| 20260903123200 | 57 | 104 | 0.9 | 2.6 | 0.00 | 0.00 | 0.00 | 90 | 1014.6 |
| 20260903123106 | 57 | 141 | 0.9 | 2.6 | 0.00 | 0.00 | 0.00 | 90 | 1014.6 |
| 20260903123002 | 57 | 141 | 0.9 | 2.6 | 0.00 | 0.00 | 0.00 | 90 | 1014.5 |
| 20260903122900 | 57 | 145 | 0.9 | 2.6 | 0.00 | 0.00 | 0.00 | 90 | 1014.5 |
| 20260903122800 | 57 | 120 | 0.9 | 2.6 | 0.00 | 0.00 | 0.00 | 90 | 1014.6 |
| 20260903122702 | 57 | 104 | 0.9 | 2.6 | 0.00 | 0.00 | 0.00 | 90 | 1014.6 |
| 20260903122559 | 57 | 114 | 0.9 | 2.6 | 0.00 | 0.00 | 0.00 | 90 | 1014.6 |
| 20260903122455 | 57 | 104 | 0.9 | 2.6 | 0.00 | 0.00 | 0.00 | 90 | 1014.6 |
| 20260903122356 | 57 | 105 | 0.9 | 2.6 | 0.00 | 0.00 | 0.00 | 90 | 1014.5 |
| 20260903122256 | 57 | 99 | 0.9 | 2.6 | 0.00 | 0.00 | 0.00 | 90 | 1014.6 |
| 20260903122157 | 57 | 99 | 0.9 | 2.6 | 0.00 | 0.00 | 0.00 | 90 | 1014.6 |
| 20260903122054 | 57 | 99 | 0.9 | 2.6 | 0.00 | 0.00 | 0.00 | 90 | 1014.5 |
| 20260903121950 | 57 | 113 | 0.9 | 2.6 | 0.00 | 0.00 | 0.00 | 90 | 1014.5 |
| 20260903121930 | 57 | 61 | 0.9 | 1.7 | 0.00 | 0.00 | 0.00 | 90 | 1014.6 |
| 20260903121848 | 57 | 71 | 0.9 | 1.7 | 0.00 | 0.00 | 0.00 | 90 | 1014.6 |
| 20260903121818 | 57 | 105 | 0.9 | 1.7 | 0.00 | 0.00 | 0.00 | 90 | 1014.6 |
| 20260903121646 | 57 | 97 | 0.9 | 1.7 | 0.00 | 0.00 | 0.00 | 90 | 1014.6 |
| 20260903121546 | 57 | 110 | 0.9 | 1.7 | 0.00 | 0.00 | 0.00 | 90 | 1014.6 |
| 20260903121442 | 57 | 97 | 0.9 | 1.7 | 0.00 | 0.00 | 0.00 | 90 | 1014.6 |
| 20260903121343 | 57 | 117 | 0.9 | 1.7 | 0.00 | 0.00 | 0.00 | 90 | 1014.6 |
| 20260903121241 | 57 | 108 | 0.9 | 1.7 | 0.00 | 0.00 | 0.00 | 90 | 1014.6 |
| 20260903121151 | 57 | 105 | 0.9 | 1.7 | 0.00 | 0.00 | 0.00 | 90 | 1014.6 |
| 20260903121142 | 57 | 107 | 0.9 | 1.7 | 0.00 | 0.00 | 0.00 | 90 | 1014.6 |
| 20260903121042 | 57 | 107 | 0.9 | 1.7 | 0.00 | 0.00 | 0.00 | 90 | 1014.6 |
| 20260903120941 | 57 | 108 | 0.9 | 1.7 | 0.00 | 0.00 | 0.00 | 90 | 1014.6 |
| 20260903120842 | 57 | 92 | 0.9 | 1.7 | 0.00 | 0.00 | 0.00 | 90 | 1014.6 |
| 20260903120742 | 57 | 108 | 0.9 | 2.6 | 0.00 | 0.00 | 0.00 | 90 | 1014.6 |
| 20260903120643 | 57 | 117 | 0.9 | 2.6 | 0.00 | 0.00 | 0.00 | 90 | 1014.6 |
| 20260903120542 | 57 | 114 | 0.9 | 2.6 | 0.00 | 0.00 | 0.00 | 90 | 1014.6 |
| 20260903120442 | 57 | 114 | 0.9 | 2.6 | 0.00 | 0.00 | 0.00 | 90 | 1014.6 |
| 20260903120342 | 57 | 115 | 0.9 | 2.6 | 0.00 | 0.00 | 0.00 | 90 | 1014.6 |
| 20260903120242 | 57 | 114 | 0.9 | 3.5 | 0.00 | 0.00 | 0.00 | 90 | 1014.6 |
| 20260903120142 | 57 | 102 | 0.9 | 3.5 | 0.00 | 0.00 | 0.00 | 90 | 1014.6 |
| 20260903120042 | 57 | 105 | 0.9 | 3.5 | 0.00 | 0.00 | 0.00 | 90 | 1014.6 |
| 20260903115942 | 57 | 115 | 0.9 | 3.5 | 0.00 | 0.00 | 0.00 | 90 | 1014.6 |
| 20260903115907 | 57 | 98 | 0.9 | 3.5 | 0.00 | 0.00 | 0.00 | 90 | 1014.7 |
| 20260903115841 | 57 | 115 | 0.9 | 3.5 | 0.00 | 0.00 | 0.00 | 90 | 1014.6 |
| 20260903115758 | 57 | 117 | 0.9 | 3.5 | 0.00 | 0.00 | 0.00 | 90 | 1014.7 |
| 20260903115642 | 57 | 107 | 0.9 | 3.5 | 0.00 | 0.00 | 0.00 | 90 | 1014.7 |
| 20260903115538 | 57 | 98 | 0.9 | 3.5 | 0.00 | 0.00 | 0.00 | 90 | 1014.7 |
| 20260903115438 | 57 | 121 | 0.9 | 3.5 | 0.00 | 0.00 | 0.00 | 90 | 1014.7 |
| 20260903115408 | 57 | 108 | 0.0 | 1.7 | 0.00 | 0.00 | 0.00 | 90 | 1014.7 |
| 20260903115339 | 57 | 105 | 0.9 | 3.5 | 0.00 | 0.00 | 0.00 | 90 | 1014.7 |
| 20260903115258 | 57 | 117 | 0.9 | 1.7 | 0.00 | 0.00 | 0.00 | 90 | 1014.7 |
| 20260903115137 | 57 | 109 | 0.0 | 1.7 | 0.00 | 0.00 | 0.00 | 90 | 1014.7 |
| 20260903115039 | 57 | 107 | 0.0 | 1.7 | 0.00 | 0.00 | 0.00 | 90 | 1014.7 |
| 20260903114937 | 57 | 107 | 0.9 | 2.6 | 0.00 | 0.00 | 0.00 | 90 | 1014.8 |
| 20260903114839 | 57 | 107 | 0.9 | 2.6 | 0.00 | 0.00 | 0.00 | 90 | 1014.7 |
| 20260903114740 | 57 | 107 | 0.9 | 2.6 | 0.00 | 0.00 | 0.00 | 90 | 1014.7 |
| 20260903114640 | 57 | 108 | 0.9 | 2.6 | 0.00 | 0.00 | 0.00 | 90 | 1014.7 |
| 20260903114538 | 57 | 107 | 0.9 | 2.6 | 0.00 | 0.00 | 0.00 | 89 | 1014.8 |
| 20260903114437 | 57 | 108 | 0.9 | 2.6 | 0.00 | 0.00 | 0.00 | 89 | 1014.7 |
| 20260903114338 | 57 | 108 | 0.9 | 2.6 | 0.00 | 0.00 | 0.00 | 90 | 1014.8 |
| 20260903114238 | 57 | 107 | 0.9 | 2.6 | 0.00 | 0.00 | 0.00 | 89 | 1014.8 |
| 20260903114147 | 57 | 107 | 0.9 | 2.6 | 0.00 | 0.00 | 0.00 | 89 | 1014.8 |
| 20260903114138 | 57 | 108 | 0.9 | 2.6 | 0.00 | 0.00 | 0.00 | 89 | 1014.8 |
| 20260903114039 | 57 | 107 | 1.7 | 2.6 | 0.00 | 0.00 | 0.00 | 89 | 1014.8 |
| 20260903113938 | 57 | 111 | 1.7 | 2.6 | 0.00 | 0.00 | 0.00 | 89 | 1014.8 |
| 20260903113838 | 57 | 111 | 1.7 | 2.6 | 0.00 | 0.00 | 0.00 | 89 | 1014.8 |
| 20260903113739 | 57 | 112 | 1.7 | 2.6 | 0.00 | 0.00 | 0.00 | 89 | 1014.8 |
| 20260903113647 | 57 | 107 | 1.7 | 2.6 | 0.00 | 0.00 | 0.00 | 89 | 1014.9 |
| 20260903113638 | 57 | 91 | 1.7 | 2.6 | 0.00 | 0.00 | 0.00 | 89 | 1014.9 |
| 20260903113534 | 57 | 118 | 1.7 | 2.6 | 0.00 | 0.00 | 0.00 | 89 | 1014.8 |
| 20260903113435 | 57 | 109 | 1.7 | 2.6 | 0.00 | 0.00 | 0.00 | 89 | 1014.8 |
| 20260903113334 | 57 | 117 | 0.9 | 2.6 | 0.00 | 0.00 | 0.00 | 89 | 1014.8 |
| 20260903113234 | 57 | 94 | 0.9 | 2.6 | 0.00 | 0.00 | 0.00 | 89 | 1014.9 |
| 20260903113148 | 58 | 110 | 0.9 | 2.6 | 0.00 | 0.00 | 0.00 | 89 | 1014.8 |
| 20260903113134 | 58 | 109 | 0.9 | 2.6 | 0.00 | 0.00 | 0.00 | 89 | 1014.8 |
| 20260903113035 | 58 | 103 | 0.9 | 2.6 | 0.00 | 0.00 | 0.00 | 89 | 1014.9 |
| 20260903112934 | 58 | 107 | 0.9 | 2.6 | 0.00 | 0.00 | 0.00 | 89 | 1014.9 |
| 20260903112834 | 58 | 100 | 0.9 | 2.6 | 0.00 | 0.00 | 0.00 | 89 | 1014.8 |
| 20260903112734 | 58 | 103 | 0.0 | 1.7 | 0.00 | 0.00 | 0.00 | 89 | 1014.9 |
| 20260903112647 | 58 | 117 | 0.0 | 1.7 | 0.00 | 0.00 | 0.00 | 89 | 1014.8 |
| 20260903112638 | 58 | 108 | 0.0 | 1.7 | 0.00 | 0.00 | 0.00 | 89 | 1014.8 |
| 20260903112534 | 58 | 102 | 0.0 | 1.7 | 0.00 | 0.00 | 0.00 | 89 | 1014.9 |
| 20260903112434 | 58 | 101 | 0.0 | 1.7 | 0.00 | 0.00 | 0.00 | 89 | 1014.8 |
| 20260903112334 | 58 | 102 | 0.0 | 1.7 | 0.00 | 0.00 | 0.00 | 89 | 1014.8 |
| 20260903112234 | 58 | 102 | 0.0 | 1.7 | 0.00 | 0.00 | 0.00 | 89 | 1014.8 |
| 20260903112147 | 58 | 102 | 0.0 | 1.7 | 0.00 | 0.00 | 0.00 | 89 | 1014.8 |
| 20260903112134 | 58 | 101 | 0.0 | 1.7 | 0.00 | 0.00 | 0.00 | 89 | 1014.8 |
| 20260903112034 | 58 | 100 | 0.0 | 1.7 | 0.00 | 0.00 | 0.00 | 89 | 1014.8 |
| 20260903111934 | 58 | 132 | 0.0 | 1.7 | 0.00 | 0.00 | 0.00 | 89 | 1014.8 |
| 20260903111834 | 58 | 133 | 0.0 | 1.7 | 0.00 | 0.00 | 0.00 | 89 | 1014.8 |
| 20260903111731 | 58 | 132 | 0.0 | 1.7 | 0.00 | 0.00 | 0.00 | 89 | 1014.9 |
| 20260903111647 | 58 | 132 | 0.0 | 1.7 | 0.00 | 0.00 | 0.00 | 89 | 1014.9 |
| 20260903111630 | 58 | 133 | 0.0 | 1.7 | 0.00 | 0.00 | 0.00 | 89 | 1014.9 |
| 20260903111529 | 58 | 133 | 0.0 | 1.7 | 0.00 | 0.00 | 0.00 | 89 | 1014.9 |
| 20260903111430 | 58 | 132 | 0.9 | 1.7 | 0.00 | 0.00 | 0.00 | 89 | 1014.9 |
| 20260903111329 | 58 | 133 | 0.9 | 1.7 | 0.00 | 0.00 | 0.00 | 89 | 1014.9 |
| 20260903111230 | 58 | 132 | 0.9 | 1.7 | 0.00 | 0.00 | 0.00 | 89 | 1015.0 |
| 20260903111147 | 58 | 149 | 0.0 | 1.7 | 0.00 | 0.00 | 0.00 | 89 | 1015.0 |
| 20260903111131 | 58 | 150 | 0.0 | 1.7 | 0.00 | 0.00 | 0.00 | 89 | 1015.0 |
| 20260903111030 | 58 | 124 | 0.0 | 1.7 | 0.00 | 0.00 | 0.00 | 89 | 1014.9 |
| 20260903110930 | 58 | 140 | 0.0 | 1.7 | 0.00 | 0.00 | 0.00 | 89 | 1015.0 |
| 20260903110830 | 58 | 141 | 0.9 | 1.7 | 0.00 | 0.00 | 0.00 | 89 | 1015.0 |
| 20260903110730 | 58 | 141 | 0.9 | 1.7 | 0.00 | 0.00 | 0.00 | 89 | 1015.0 |
| 20260903110630 | 58 | 141 | 0.9 | 1.7 | 0.00 | 0.00 | 0.00 | 89 | 1015.0 |
| 20260903110529 | 58 | 141 | 0.9 | 1.7 | 0.00 | 0.00 | 0.00 | 88 | 1014.9 |
| 20260903110430 | 58 | 141 | 0.9 | 1.7 | 0.00 | 0.00 | 0.00 | 88 | 1015.0 |
| 20260903110330 | 58 | 148 | 0.0 | 1.7 | 0.00 | 0.00 | 0.00 | 88 | 1015.0 |
| 20260903110229 | 58 | 150 | 0.0 | 1.7 | 0.00 | 0.00 | 0.00 | 88 | 1015.0 |
| 20260903110131 | 58 | 150 | 0.9 | 1.7 | 0.00 | 0.00 | 0.00 | 88 | 1015.0 |
| 20260903110030 | 58 | 136 | 0.9 | 1.7 | 0.00 | 0.00 | 0.00 | 88 | 1015.0 |
| 20260903105930 | 58 | 124 | 0.0 | 1.7 | 0.00 | 0.00 | 0.00 | 88 | 1015.0 |
| 20260903105827 | 58 | 124 | 0.0 | 1.7 | 0.00 | 0.00 | 0.00 | 88 | 1015.0 |
| 20260903105726 | 58 | 124 | 0.0 | 1.7 | 0.00 | 0.00 | 0.00 | 88 | 1015.1 |
| 20260903105647 | 58 | 124 | 0.0 | 1.7 | 0.00 | 0.00 | 0.00 | 88 | 1015.1 |
| 20260903105626 | 58 | 118 | 0.0 | 1.7 | 0.00 | 0.00 | 0.00 | 88 | 1015.1 |
| 20260903105526 | 58 | 117 | 0.0 | 1.7 | 0.00 | 0.00 | 0.00 | 88 | 1015.0 |
| 20260903105425 | 58 | 117 | 0.0 | 1.7 | 0.00 | 0.00 | 0.00 | 88 | 1015.0 |
| 20260903105324 | 58 | 117 | 0.0 | 1.7 | 0.00 | 0.00 | 0.00 | 88 | 1015.0 |
| 20260903105224 | 58 | 117 | 0.9 | 1.7 | 0.00 | 0.00 | 0.00 | 88 | 1015.0 |
| 20260903105125 | 58 | 117 | 0.9 | 1.7 | 0.00 | 0.00 | 0.00 | 88 | 1015.0 |
| 20260903105022 | 58 | 139 | 0.9 | 1.7 | 0.00 | 0.00 | 0.00 | 88 | 1015.0 |
| 20260903104923 | 58 | 139 | 0.9 | 1.7 | 0.00 | 0.00 | 0.00 | 88 | 1015.0 |
| 20260903104822 | 58 | 139 | 0.9 | 1.7 | 0.00 | 0.00 | 0.00 | 88 | 1015.0 |
| 20260903104723 | 58 | 139 | 0.9 | 1.7 | 0.00 | 0.00 | 0.00 | 88 | 1014.9 |
| 20260903104623 | 58 | 139 | 0.9 | 1.7 | 0.00 | 0.00 | 0.00 | 88 | 1015.0 |
| 20260903104522 | 58 | 139 | 0.9 | 1.7 | 0.00 | 0.00 | 0.00 | 88 | 1015.0 |
| 20260903104422 | 58 | 139 | 0.9 | 1.7 | 0.00 | 0.00 | 0.00 | 88 | 1015.0 |
| 20260903104322 | 58 | 139 | 0.9 | 1.7 | 0.00 | 0.00 | 0.00 | 88 | 1015.0 |
| 20260903104219 | 58 | 141 | 0.9 | 1.7 | 0.00 | 0.00 | 0.00 | 88 | 1015.0 |
| 20260903104118 | 58 | 141 | 0.9 | 1.7 | 0.00 | 0.00 | 0.00 | 88 | 1015.0 |
| 20260903104018 | 58 | 143 | 0.9 | 1.7 | 0.00 | 0.00 | 0.00 | 87 | 1015.1 |
| 20260903103917 | 58 | 121 | 0.9 | 1.7 | 0.00 | 0.00 | 0.00 | 88 | 1015.1 |
| 20260903103904 | 58 | 110 | 0.9 | 1.7 | 0.00 | 0.00 | 0.00 | 88 | 1015.0 |
| 20260903103816 | 58 | 110 | 0.9 | 1.7 | 0.00 | 0.00 | 0.00 | 87 | 1015.1 |
| 20260903103753 | 58 | 110 | 0.9 | 1.7 | 0.00 | 0.00 | 0.00 | 87 | 1015.0 |
| 20260903103614 | 58 | 110 | 0.9 | 1.7 | 0.00 | 0.00 | 0.00 | 88 | 1015.1 |
| 20260903103512 | 59 | 108 | 0.9 | 1.7 | 0.00 | 0.00 | 0.00 | 87 | 1015.0 |
| 20260903103412 | 59 | 108 | 0.9 | 1.7 | 0.00 | 0.00 | 0.00 | 88 | 1015.1 |
| 20260903103312 | 59 | 108 | 0.0 | 1.7 | 0.00 | 0.00 | 0.00 | 88 | 1015.0 |
| 20260903103212 | 59 | 110 | 0.0 | 1.7 | 0.00 | 0.00 | 0.00 | 88 | 1015.1 |
| 20260903103143 | 59 | 110 | 0.0 | 1.7 | 0.00 | 0.00 | 0.00 | 88 | 1015.1 |
| 20260903103133 | 59 | 132 | 0.0 | 0.9 | 0.00 | 0.00 | 0.00 | 88 | 1015.0 |
| 20260903103113 | 59 | 110 | 0.0 | 1.7 | 0.00 | 0.00 | 0.00 | 88 | 1015.0 |
| 20260903103017 | 59 | 111 | 0.0 | 1.7 | 0.00 | 0.00 | 0.00 | 88 | 1015.0 |
| 20260903102904 | 59 | 132 | 0.0 | 0.9 | 0.00 | 0.00 | 0.00 | 88 | 1015.1 |
| 20260903102801 | 59 | 132 | 0.0 | 0.9 | 0.00 | 0.00 | 0.00 | 88 | 1015.0 |
| 20260903102751 | 59 | 132 | 0.0 | 0.9 | 0.00 | 0.00 | 0.00 | 88 | 1015.0 |
| 20260903102556 | 58 | 132 | 0.0 | 0.9 | 0.00 | 0.00 | 0.00 | 88 | 1015.0 |
| 20260903102457 | 59 | 132 | 0.0 | 0.9 | 0.00 | 0.00 | 0.00 | 87 | 1015.0 |
| 20260903102404 | 59 | 132 | 0.0 | 1.7 | 0.00 | 0.00 | 0.00 | 87 | 1015.0 |
| 20260903102356 | 59 | 132 | 0.0 | 0.9 | 0.00 | 0.00 | 0.00 | 87 | 1015.0 |
| 20260903102255 | 59 | 132 | 0.0 | 0.9 | 0.00 | 0.00 | 0.00 | 87 | 1015.0 |
| 20260903102151 | 59 | 133 | 0.0 | 1.7 | 0.00 | 0.00 | 0.00 | 87 | 1015.0 |
| 20260903102049 | 59 | 132 | 0.0 | 1.7 | 0.00 | 0.00 | 0.00 | 87 | 1015.0 |
| 20260903101946 | 59 | 133 | 0.0 | 1.7 | 0.00 | 0.00 | 0.00 | 87 | 1015.0 |
| 20260903101847 | 59 | 132 | 0.0 | 1.7 | 0.00 | 0.00 | 0.00 | 87 | 1015.0 |
| 20260903101743 | 59 | 139 | 0.0 | 1.7 | 0.00 | 0.00 | 0.00 | 87 | 1015.0 |
| 20260903101645 | 59 | 104 | 0.0 | 1.7 | 0.00 | 0.00 | 0.00 | 87 | 1014.9 |
| 20260903101540 | 59 | 104 | 0.0 | 1.7 | 0.00 | 0.00 | 0.00 | 87 | 1015.0 |
| 20260903101441 | 59 | 104 | 0.0 | 1.7 | 0.00 | 0.00 | 0.00 | 87 | 1014.9 |
| 20260903101339 | 59 | 104 | 0.0 | 1.7 | 0.00 | 0.00 | 0.00 | 87 | 1014.9 |
| 20260903101238 | 59 | 104 | 0.0 | 1.7 | 0.00 | 0.00 | 0.00 | 87 | 1014.9 |
| 20260903101138 | 59 | 132 | 0.0 | 0.9 | 0.00 | 0.00 | 0.00 | 87 | 1014.9 |
| 20260903101033 | 59 | 132 | 0.0 | 0.9 | 0.00 | 0.00 | 0.00 | 87 | 1014.9 |
| 20260903100931 | 59 | 133 | 0.0 | 0.9 | 0.00 | 0.00 | 0.00 | 87 | 1014.9 |
| 20260903100832 | 59 | 132 | 0.0 | 0.9 | 0.00 | 0.00 | 0.00 | 87 | 1014.9 |
| 20260903100732 | 59 | 133 | 0.0 | 0.9 | 0.00 | 0.00 | 0.00 | 87 | 1014.9 |
| 20260903100634 | 59 | 132 | 0.0 | 0.9 | 0.00 | 0.00 | 0.00 | 87 | 1014.9 |
| 20260903100524 | 59 | 132 | 0.0 | 0.9 | 0.00 | 0.00 | 0.00 | 87 | 1014.9 |
| 20260903100424 | 59 | 132 | 0.0 | 0.9 | 0.00 | 0.00 | 0.00 | 87 | 1014.9 |
| 20260903100324 | 59 | 133 | 0.0 | 0.9 | 0.00 | 0.00 | 0.00 | 87 | 1014.9 |
| 20260903100224 | 59 | 133 | 0.0 | 1.7 | 0.00 | 0.00 | 0.00 | 87 | 1014.9 |
| 20260903100126 | 59 | 133 | 0.0 | 1.7 | 0.00 | 0.00 | 0.00 | 87 | 1014.9 |
| 20260903100020 | 59 | 133 | 0.0 | 1.7 | 0.00 | 0.00 | 0.00 | 87 | 1014.9 |
| 20260903095919 | 59 | 132 | 0.0 | 1.7 | 0.00 | 0.00 | 0.00 | 87 | 1014.9 |
| 20260903095837 | 59 | 132 | 0.0 | 1.7 | 0.00 | 0.00 | 0.00 | 87 | 1014.9 |
| 20260903095819 | 59 | 133 | 0.0 | 1.7 | 0.00 | 0.00 | 0.00 | 87 | 1014.9 |
| 20260903095736 | 59 | 133 | 0.0 | 1.7 | 0.00 | 0.00 | 0.00 | 87 | 1014.9 |
| 20260903095723 | 59 | 132 | 0.0 | 1.7 | 0.00 | 0.00 | 0.00 | 87 | 1014.9 |
| 20260903095516 | 59 | 132 | 0.9 | 1.7 | 0.00 | 0.00 | 0.00 | 87 | 1014.9 |
| 20260903095414 | 59 | 132 | 0.9 | 1.7 | 0.00 | 0.00 | 0.00 | 87 | 1014.9 |
| 20260903095312 | 59 | 132 | 0.0 | 1.7 | 0.00 | 0.00 | 0.00 | 87 | 1014.9 |
| 20260903095212 | 59 | 120 | 0.0 | 1.7 | 0.00 | 0.00 | 0.00 | 87 | 1014.8 |
| 20260903095114 | 59 | 138 | 0.0 | 1.7 | 0.00 | 0.00 | 0.00 | 87 | 1014.9 |
| 20260903095008 | 59 | 138 | 0.0 | 1.7 | 0.00 | 0.00 | 0.00 | 87 | 1014.9 |
| 20260903094908 | 59 | 147 | 0.0 | 1.7 | 0.00 | 0.00 | 0.00 | 87 | 1014.9 |
| 20260903094808 | 59 | 146 | 0.0 | 1.7 | 0.00 | 0.00 | 0.00 | 87 | 1014.9 |
| 20260903094707 | 59 | 146 | 0.0 | 1.7 | 0.00 | 0.00 | 0.00 | 87 | 1014.9 |
| 20260903094604 | 59 | 146 | 0.0 | 1.7 | 0.00 | 0.00 | 0.00 | 87 | 1015.0 |
| 20260903094500 | 59 | 135 | 0.0 | 0.9 | 0.00 | 0.00 | 0.00 | 87 | 1014.9 |
| 20260903094358 | 59 | 135 | 0.0 | 0.9 | 0.00 | 0.00 | 0.00 | 87 | 1015.0 |
| 20260903094317 | 59 | 133 | 0.0 | 2.6 | 0.00 | 0.00 | 0.00 | 87 | 1015.0 |
| 20260903094258 | 59 | 136 | 0.0 | 0.9 | 0.00 | 0.00 | 0.00 | 87 | 1015.0 |
| 20260903094213 | 59 | 132 | 0.0 | 0.9 | 0.00 | 0.00 | 0.00 | 87 | 1015.0 |
| 20260903094203 | 59 | 133 | 0.0 | 2.6 | 0.00 | 0.00 | 0.00 | 87 | 1015.0 |
| 20260903093957 | 59 | 131 | 0.9 | 2.6 | 0.00 | 0.00 | 0.00 | 87 | 1015.0 |
| 20260903093855 | 59 | 131 | 0.9 | 2.6 | 0.00 | 0.00 | 0.00 | 87 | 1015.1 |
| 20260903093815 | 59 | 134 | 0.9 | 2.6 | 0.00 | 0.00 | 0.00 | 87 | 1015.0 |
| 20260903093755 | 59 | 131 | 0.9 | 2.6 | 0.00 | 0.00 | 0.00 | 87 | 1015.0 |
| 20260903093711 | 59 | 131 | 0.9 | 2.6 | 0.00 | 0.00 | 0.00 | 87 | 1015.0 |
| 20260903093657 | 59 | 134 | 0.9 | 2.6 | 0.00 | 0.00 | 0.00 | 87 | 1015.0 |
| 20260903093448 | 59 | 134 | 0.9 | 3.5 | 0.00 | 0.00 | 0.00 | 87 | 1015.0 |
| 20260903093345 | 59 | 142 | 0.9 | 3.5 | 0.00 | 0.00 | 0.00 | 87 | 1015.0 |
| 20260903093246 | 59 | 143 | 0.9 | 3.5 | 0.00 | 0.00 | 0.00 | 87 | 1015.0 |
| 20260903093146 | 59 | 219 | 0.9 | 3.5 | 0.00 | 0.00 | 0.00 | 87 | 1015.0 |
| 20260903093046 | 59 | 208 | 0.9 | 3.5 | 0.00 | 0.00 | 0.00 | 87 | 1015.0 |
| 20260903092946 | 59 | 203 | 0.9 | 3.5 | 0.00 | 0.00 | 0.00 | 87 | 1015.0 |
| 20260903092845 | 59 | 167 | 0.9 | 3.5 | 0.00 | 0.00 | 0.00 | 87 | 1015.0 |
| 20260903092744 | 59 | 180 | 0.9 | 3.5 | 0.00 | 0.00 | 0.00 | 87 | 1015.1 |
| 20260903092642 | 59 | 229 | 0.9 | 3.5 | 0.00 | 0.00 | 0.00 | 87 | 1015.1 |
| 20260903092540 | 59 | 215 | 0.9 | 2.6 | 0.00 | 0.00 | 0.00 | 87 | 1015.1 |
| 20260903092436 | 59 | 221 | 0.9 | 3.5 | 0.00 | 0.00 | 0.00 | 87 | 1015.1 |
| 20260903092334 | 59 | 221 | 0.9 | 3.5 | 0.00 | 0.00 | 0.00 | 87 | 1015.1 |
| 20260903092233 | 59 | 226 | 0.9 | 3.5 | 0.00 | 0.00 | 0.00 | 87 | 1015.2 |
| 20260903092135 | 59 | 226 | 0.9 | 3.5 | 0.00 | 0.00 | 0.00 | 87 | 1015.2 |
| 20260903092034 | 59 | 218 | 0.9 | 3.5 | 0.00 | 0.00 | 0.00 | 87 | 1015.1 |
| 20260903091930 | 59 | 219 | 0.9 | 3.5 | 0.00 | 0.00 | 0.00 | 87 | 1015.2 |
| 20260903091828 | 59 | 219 | 0.9 | 3.5 | 0.00 | 0.00 | 0.00 | 87 | 1015.2 |
| 20260903091727 | 59 | 217 | 0.9 | 3.5 | 0.00 | 0.00 | 0.00 | 87 | 1015.2 |
| 20260903091628 | 59 | 216 | 0.9 | 3.5 | 0.00 | 0.00 | 0.00 | 87 | 1015.2 |
| 20260903091541 | 59 | 217 | 0.9 | 3.5 | 0.00 | 0.00 | 0.00 | 87 | 1015.2 |
| 20260903091428 | 59 | 223 | 0.0 | 1.7 | 0.00 | 0.00 | 0.00 | 87 | 1015.2 |
| 20260903091326 | 59 | 224 | 0.0 | 1.7 | 0.00 | 0.00 | 0.00 | 87 | 1015.3 |
| 20260903091226 | 59 | 136 | 0.0 | 0.9 | 0.00 | 0.00 | 0.00 | 86 | 1015.3 |
| 20260903091125 | 59 | 136 | 0.0 | 0.9 | 0.00 | 0.00 | 0.00 | 86 | 1015.3 |
| 20260903091022 | 59 | 136 | 0.0 | 0.9 | 0.00 | 0.00 | 0.00 | 86 | 1015.3 |
| 20260903090916 | 59 | 136 | 0.0 | 0.9 | 0.00 | 0.00 | 0.00 | 86 | 1015.3 |
| 20260903090817 | 59 | 136 | 0.0 | 1.7 | 0.00 | 0.00 | 0.00 | 86 | 1015.3 |
| 20260903090716 | 59 | 136 | 0.0 | 1.7 | 0.00 | 0.00 | 0.00 | 86 | 1015.3 |
| 20260903090617 | 59 | 136 | 0.0 | 1.7 | 0.00 | 0.00 | 0.00 | 86 | 1015.3 |
| 20260903090531 | 59 | 136 | 0.0 | 1.7 | 0.00 | 0.00 | 0.00 | 86 | 1015.3 |
| 20260903090409 | 59 | 135 | 0.9 | 1.7 | 0.00 | 0.00 | 0.00 | 86 | 1015.3 |
| 20260903090310 | 59 | 136 | 0.9 | 2.6 | 0.00 | 0.00 | 0.00 | 86 | 1015.3 |
| 20260903090210 | 60 | 136 | 0.9 | 3.5 | 0.00 | 0.00 | 0.00 | 86 | 1015.3 |
| 20260903090113 | 60 | 135 | 0.9 | 3.5 | 0.00 | 0.00 | 0.00 | 86 | 1015.3 |
| 20260903090015 | 60 | 136 | 0.9 | 3.5 | 0.00 | 0.00 | 0.00 | 86 | 1015.3 |
| 20260903090010 | 60 | 135 | 0.9 | 3.5 | 0.00 | 0.00 | 0.00 | 86 | 1015.3 |
| 20260903085908 | 60 | 136 | 1.7 | 3.5 | 0.00 | 0.00 | 0.00 | 86 | 1015.3 |
| 20260903085829 | 60 | 129 | 0.9 | 3.5 | 0.00 | 0.00 | 0.00 | 85 | 1015.3 |
| 20260903085808 | 60 | 174 | 0.9 | 3.5 | 0.00 | 0.00 | 0.00 | 85 | 1015.3 |
| 20260903085739 | 60 | 129 | 0.9 | 3.5 | 0.00 | 0.00 | 0.00 | 85 | 1015.3 |
| 20260903085735 | 60 | 136 | 0.9 | 3.5 | 0.00 | 0.00 | 0.00 | 85 | 1015.3 |
| 20260903085724 | 60 | 129 | 0.9 | 3.5 | 0.00 | 0.00 | 0.00 | 85 | 1015.3 |
| 20260903085358 | 60 | 121 | 0.9 | 3.5 | 0.00 | 0.00 | 0.00 | 85 | 1015.3 |
| 20260903085258 | 60 | 148 | 0.9 | 3.5 | 0.00 | 0.00 | 0.00 | 85 | 1015.4 |
| 20260903085158 | 60 | 114 | 0.9 | 2.6 | 0.00 | 0.00 | 0.00 | 85 | 1015.4 |
| 20260903085058 | 60 | 132 | 0.9 | 2.6 | 0.00 | 0.00 | 0.00 | 85 | 1015.4 |
| 20260903085009 | 60 | 150 | 0.9 | 1.7 | 0.00 | 0.00 | 0.00 | 85 | 1015.3 |
| 20260903084957 | 60 | 146 | 0.9 | 1.7 | 0.00 | 0.00 | 0.00 | 85 | 1015.3 |
| 20260903084856 | 60 | 143 | 0.9 | 2.6 | 0.00 | 0.00 | 0.00 | 85 | 1015.4 |
| 20260903084757 | 60 | 205 | 0.9 | 2.6 | 0.00 | 0.00 | 0.00 | 85 | 1015.3 |
| 20260903084657 | 60 | 205 | 0.9 | 2.6 | 0.00 | 0.00 | 0.00 | 85 | 1015.4 |
| 20260903084601 | 60 | 205 | 0.9 | 2.6 | 0.00 | 0.00 | 0.00 | 85 | 1015.4 |
| 20260903084509 | 60 | 206 | 0.9 | 2.6 | 0.00 | 0.00 | 0.00 | 85 | 1015.4 |
| 20260903084452 | 60 | 206 | 0.9 | 2.6 | 0.00 | 0.00 | 0.00 | 85 | 1015.4 |
| 20260903084353 | 60 | 205 | 0.9 | 2.6 | 0.00 | 0.00 | 0.00 | 85 | 1015.4 |
| 20260903084300 | 60 | 193 | 0.9 | 2.6 | 0.00 | 0.00 | 0.00 | 85 | 1015.3 |
| 20260903084258 | 60 | 205 | 0.9 | 2.6 | 0.00 | 0.00 | 0.00 | 85 | 1015.4 |
| 20260903084221 | 60 | 193 | 0.9 | 2.6 | 0.00 | 0.00 | 0.00 | 85 | 1015.3 |
| 20260903084008 | 60 | 193 | 0.9 | 2.6 | 0.00 | 0.00 | 0.00 | 85 | 1015.3 |
| 20260903083943 | 60 | 194 | 0.9 | 2.6 | 0.00 | 0.00 | 0.00 | 85 | 1015.3 |
| 20260903083841 | 60 | 193 | 0.9 | 2.6 | 0.00 | 0.00 | 0.00 | 84 | 1015.3 |
| 20260903083743 | 60 | 176 | 0.9 | 2.6 | 0.00 | 0.00 | 0.00 | 84 | 1015.4 |
| 20260903083735 | 60 | 211 | 0.9 | 2.6 | 0.00 | 0.00 | 0.00 | 84 | 1015.3 |
| 20260903083641 | 60 | 148 | 0.9 | 2.6 | 0.00 | 0.00 | 0.00 | 84 | 1015.3 |
| 20260903083539 | 60 | 195 | 0.9 | 2.6 | 0.00 | 0.00 | 0.00 | 84 | 1015.4 |
| 20260903083437 | 60 | 226 | 0.9 | 2.6 | 0.00 | 0.00 | 0.00 | 84 | 1015.3 |
| 20260903083334 | 60 | 224 | 0.9 | 4.3 | 0.00 | 0.00 | 0.00 | 84 | 1015.4 |
| 20260903083240 | 60 | 216 | 1.7 | 4.3 | 0.00 | 0.00 | 0.00 | 84 | 1015.4 |
| 20260903083234 | 60 | 239 | 1.7 | 4.3 | 0.00 | 0.00 | 0.00 | 84 | 1015.4 |
| 20260903083134 | 60 | 215 | 1.7 | 4.3 | 0.00 | 0.00 | 0.00 | 84 | 1015.4 |
| 20260903083120 | 60 | 215 | 1.7 | 4.3 | 0.00 | 0.00 | 0.00 | 84 | 1015.3 |
| 20260903082929 | 60 | 221 | 1.7 | 4.3 | 0.00 | 0.00 | 0.00 | 84 | 1015.4 |
| 20260903082824 | 60 | 170 | 1.7 | 4.3 | 0.00 | 0.00 | 0.00 | 84 | 1015.4 |
| 20260903082724 | 60 | 138 | 1.7 | 4.3 | 0.00 | 0.00 | 0.00 | 84 | 1015.4 |
| 20260903082634 | 60 | 232 | 1.7 | 4.3 | 0.00 | 0.00 | 0.00 | 84 | 1015.4 |
| 20260903082607 | 60 | 224 | 0.9 | 5.2 | 0.00 | 0.00 | 0.00 | 84 | 1015.4 |
| 20260903082522 | 60 | 228 | 1.7 | 4.3 | 0.00 | 0.00 | 0.00 | 84 | 1015.4 |
| 20260903082509 | 60 | 226 | 1.7 | 4.3 | 0.00 | 0.00 | 0.00 | 84 | 1015.4 |
| 20260903082454 | 60 | 229 | 1.7 | 5.2 | 0.00 | 0.00 | 0.00 | 84 | 1015.4 |
| 20260903082320 | 60 | 222 | 0.9 | 5.2 | 0.00 | 0.00 | 0.00 | 84 | 1015.4 |
| 20260903082247 | 60 | 211 | 0.9 | 5.2 | 0.00 | 0.00 | 0.00 | 84 | 1015.4 |
| 20260903082240 | 60 | 236 | 0.9 | 5.2 | 0.00 | 0.00 | 0.00 | 84 | 1015.4 |
| 20260903082232 | 60 | 224 | 0.9 | 5.2 | 0.00 | 0.00 | 0.00 | 84 | 1015.4 |
| 20260903082224 | 60 | 224 | 0.9 | 5.2 | 0.00 | 0.00 | 0.00 | 84 | 1015.4 |
| 20260903081914 | 60 | 207 | 0.9 | 5.2 | 0.00 | 0.00 | 0.00 | 84 | 1015.4 |
| 20260903081808 | 61 | 250 | 0.9 | 5.2 | 0.00 | 0.00 | 0.00 | 84 | 1015.4 |
| 20260903081708 | 60 | 217 | 0.9 | 5.2 | 0.00 | 0.00 | 0.00 | 84 | 1015.4 |
| 20260903081612 | 61 | 217 | 0.9 | 5.2 | 0.00 | 0.00 | 0.00 | 84 | 1015.4 |
| 20260903081522 | 60 | 211 | 0.9 | 5.2 | 0.00 | 0.00 | 0.00 | 84 | 1015.4 |
| 20260903081508 | 60 | 219 | 0.9 | 5.2 | 0.00 | 0.00 | 0.00 | 84 | 1015.4 |
| 20260903081407 | 61 | 186 | 1.7 | 2.6 | 0.00 | 0.00 | 0.00 | 84 | 1015.4 |
| 20260903081304 | 61 | 186 | 1.7 | 3.5 | 0.00 | 0.00 | 0.00 | 84 | 1015.4 |
| 20260903081203 | 61 | 186 | 1.7 | 3.5 | 0.00 | 0.00 | 0.00 | 84 | 1015.4 |
| 20260903081104 | 61 | 186 | 1.7 | 4.3 | 0.00 | 0.00 | 0.00 | 84 | 1015.4 |
| 20260903081008 | 61 | 235 | 1.7 | 4.3 | 0.00 | 0.00 | 0.00 | 84 | 1015.3 |
| 20260903081002 | 61 | 235 | 1.7 | 4.3 | 0.00 | 0.00 | 0.00 | 84 | 1015.3 |
| 20260903080859 | 61 | 193 | 1.7 | 4.3 | 0.00 | 0.00 | 0.00 | 84 | 1015.3 |
| 20260903080757 | 61 | 208 | 1.7 | 4.3 | 0.00 | 0.00 | 0.00 | 84 | 1015.4 |
| 20260903080658 | 61 | 212 | 1.7 | 4.3 | 0.00 | 0.00 | 0.00 | 84 | 1015.3 |
| 20260903080559 | 61 | 196 | 1.7 | 4.3 | 0.00 | 0.00 | 0.00 | 84 | 1015.3 |
| 20260903080509 | 61 | 195 | 1.7 | 4.3 | 0.00 | 0.00 | 0.00 | 84 | 1015.3 |
| 20260903080458 | 61 | 195 | 1.7 | 4.3 | 0.00 | 0.00 | 0.00 | 84 | 1015.3 |
| 20260903080357 | 61 | 222 | 1.7 | 4.3 | 0.00 | 0.00 | 0.00 | 84 | 1015.3 |
| 20260903080256 | 61 | 200 | 1.7 | 4.3 | 0.00 | 0.00 | 0.00 | 84 | 1015.2 |
| 20260903080157 | 61 | 239 | 1.7 | 4.3 | 0.00 | 0.00 | 0.00 | 84 | 1015.2 |
| 20260903080056 | 61 | 166 | 1.7 | 4.3 | 0.00 | 0.00 | 0.00 | 84 | 1015.3 |
| 20260903080009 | 61 | 165 | 1.7 | 4.3 | 0.00 | 0.00 | 0.00 | 84 | 1015.3 |
| 20260903075956 | 61 | 203 | 1.7 | 4.3 | 0.00 | 0.00 | 0.00 | 84 | 1015.3 |
| 20260903075856 | 61 | 231 | 1.7 | 7.0 | 0.00 | 0.00 | 0.00 | 84 | 1015.2 |
| 20260903075754 | 61 | 191 | 1.7 | 7.0 | 0.00 | 0.00 | 0.00 | 84 | 1015.2 |
| 20260903075731 | 61 | 231 | 1.7 | 7.0 | 0.00 | 0.00 | 0.00 | 84 | 1015.2 |
| 20260903075654 | 61 | 200 | 1.7 | 7.0 | 0.00 | 0.00 | 0.00 | 84 | 1015.2 |
| 20260903075620 | 61 | 230 | 1.7 | 7.0 | 0.00 | 0.00 | 0.00 | 84 | 1015.2 |
| 20260903075452 | 61 | 203 | 1.7 | 7.0 | 0.00 | 0.00 | 0.00 | 84 | 1015.2 |
| 20260903075349 | 61 | 232 | 1.7 | 7.0 | 0.00 | 0.00 | 0.00 | 84 | 1015.2 |
| 20260903075250 | 61 | 232 | 1.7 | 7.0 | 0.00 | 0.00 | 0.00 | 83 | 1015.2 |
| 20260903075230 | 61 | 214 | 1.7 | 7.0 | 0.00 | 0.00 | 0.00 | 83 | 1015.2 |
| 20260903075146 | 61 | 217 | 1.7 | 7.0 | 0.00 | 0.00 | 0.00 | 84 | 1015.2 |
| 20260903075121 | 61 | 191 | 1.7 | 7.0 | 0.00 | 0.00 | 0.00 | 84 | 1015.2 |
| 20260903074942 | 61 | 236 | 1.7 | 7.0 | 0.00 | 0.00 | 0.00 | 83 | 1015.2 |
| 20260903074842 | 61 | 198 | 0.9 | 5.2 | 0.00 | 0.00 | 0.00 | 83 | 1015.2 |
| 20260903074740 | 61 | 174 | 0.9 | 5.2 | 0.00 | 0.00 | 0.00 | 83 | 1015.3 |
| 20260903074640 | 61 | 204 | 0.9 | 5.2 | 0.00 | 0.00 | 0.00 | 83 | 1015.3 |
| 20260903074540 | 61 | 230 | 0.9 | 5.2 | 0.00 | 0.00 | 0.00 | 83 | 1015.2 |
| 20260903074502 | 61 | 217 | 0.9 | 5.2 | 0.00 | 0.00 | 0.00 | 83 | 1015.3 |
| 20260903074440 | 61 | 215 | 0.9 | 4.3 | 0.00 | 0.00 | 0.00 | 83 | 1015.3 |
| 20260903074340 | 61 | 257 | 0.9 | 4.3 | 0.00 | 0.00 | 0.00 | 83 | 1015.2 |
| 20260903074239 | 61 | 161 | 0.9 | 5.2 | 0.00 | 0.00 | 0.00 | 83 | 1015.2 |
| 20260903074140 | 61 | 223 | 1.7 | 5.2 | 0.00 | 0.00 | 0.00 | 83 | 1015.2 |
| 20260903074039 | 61 | 163 | 1.7 | 5.2 | 0.00 | 0.00 | 0.00 | 83 | 1015.2 |
| 20260903073955 | 61 | 182 | 1.7 | 5.2 | 0.00 | 0.00 | 0.00 | 83 | 1015.2 |
| 20260903073938 | 61 | 231 | 1.7 | 5.2 | 0.00 | 0.00 | 0.00 | 83 | 1015.2 |
| 20260903073838 | 61 | 210 | 1.7 | 5.2 | 0.00 | 0.00 | 0.00 | 83 | 1015.3 |
| 20260903073736 | 61 | 210 | 1.7 | 5.2 | 0.00 | 0.00 | 0.00 | 83 | 1015.3 |
| 20260903073633 | 61 | 210 | 1.7 | 5.2 | 0.00 | 0.00 | 0.00 | 83 | 1015.3 |
| 20260903073530 | 61 | 203 | 1.7 | 5.2 | 0.00 | 0.00 | 0.00 | 83 | 1015.3 |
| 20260903073448 | 61 | 114 | 2.6 | 5.2 | 0.00 | 0.00 | 0.00 | 83 | 1015.3 |
| 20260903073428 | 61 | 226 | 2.6 | 5.2 | 0.00 | 0.00 | 0.00 | 83 | 1015.3 |
| 20260903073328 | 61 | 214 | 2.6 | 5.2 | 0.00 | 0.00 | 0.00 | 83 | 1015.2 |
| 20260903073229 | 61 | 228 | 1.7 | 5.2 | 0.00 | 0.00 | 0.00 | 83 | 1015.2 |
| 20260903073127 | 61 | 238 | 1.7 | 5.2 | 0.00 | 0.00 | 0.00 | 82 | 1015.3 |
| 20260903073024 | 61 | 226 | 1.7 | 5.2 | 0.00 | 0.00 | 0.00 | 82 | 1015.2 |
| 20260903072942 | 61 | 229 | 1.7 | 5.2 | 0.00 | 0.00 | 0.00 | 82 | 1015.2 |
| 20260903072922 | 61 | 225 | 1.7 | 5.2 | 0.00 | 0.00 | 0.00 | 82 | 1015.2 |
| 20260903072821 | 61 | 251 | 2.6 | 5.2 | 0.00 | 0.00 | 0.00 | 82 | 1015.2 |
| 20260903072722 | 61 | 231 | 2.6 | 6.1 | 0.00 | 0.00 | 0.00 | 82 | 1015.2 |
| 20260903072622 | 61 | 253 | 2.6 | 6.1 | 0.00 | 0.00 | 0.00 | 82 | 1015.2 |
| 20260903072516 | 62 | 212 | 2.6 | 6.1 | 0.00 | 0.00 | 0.00 | 82 | 1015.1 |
| 20260903072436 | 62 | 212 | 2.6 | 6.1 | 0.00 | 0.00 | 0.00 | 82 | 1015.2 |
| 20260903072416 | 62 | 216 | 2.6 | 6.1 | 0.00 | 0.00 | 0.00 | 82 | 1015.1 |
| 20260903072316 | 62 | 243 | 2.6 | 6.1 | 0.00 | 0.00 | 0.00 | 82 | 1015.1 |
| 20260903072216 | 62 | 250 | 3.5 | 7.0 | 0.00 | 0.00 | 0.00 | 82 | 1015.1 |
| 20260903072116 | 62 | 305 | 3.5 | 8.7 | 0.00 | 0.00 | 0.00 | 82 | 1015.1 |
| 20260903072012 | 62 | 241 | 3.5 | 8.7 | 0.00 | 0.00 | 0.00 | 82 | 1015.1 |
| 20260903071935 | 62 | 200 | 3.5 | 8.7 | 0.00 | 0.00 | 0.00 | 82 | 1015.1 |
| 20260903071912 | 62 | 256 | 4.3 | 8.7 | 0.00 | 0.00 | 0.00 | 82 | 1015.1 |
| 20260903071812 | 62 | 200 | 4.3 | 8.7 | 0.00 | 0.00 | 0.00 | 82 | 1015.2 |
| 20260903071712 | 62 | 229 | 4.3 | 8.7 | 0.00 | 0.00 | 0.00 | 82 | 1015.1 |
| 20260903071615 | 62 | 204 | 3.5 | 8.7 | 0.00 | 0.00 | 0.00 | 82 | 1015.1 |
| 20260903071506 | 62 | 226 | 3.5 | 8.7 | 0.00 | 0.00 | 0.00 | 82 | 1015.1 |
| 20260903071434 | 62 | 212 | 3.5 | 8.7 | 0.00 | 0.00 | 0.00 | 82 | 1015.1 |
| 20260903071405 | 62 | 248 | 3.5 | 8.7 | 0.00 | 0.00 | 0.00 | 82 | 1015.1 |
| 20260903071306 | 62 | 240 | 3.5 | 8.7 | 0.00 | 0.00 | 0.00 | 82 | 1015.1 |
| 20260903071206 | 62 | 237 | 3.5 | 8.7 | 0.00 | 0.00 | 0.00 | 82 | 1015.1 |
| 20260903071109 | 62 | 248 | 3.5 | 8.7 | 0.00 | 0.00 | 0.00 | 82 | 1015.2 |
| 20260903071006 | 62 | 238 | 3.5 | 7.8 | 0.00 | 0.00 | 0.00 | 81 | 1015.2 |
| 20260903070935 | 62 | 229 | 3.5 | 7.8 | 0.00 | 0.00 | 0.00 | 81 | 1015.2 |
| 20260903070906 | 62 | 195 | 3.5 | 7.8 | 0.00 | 0.00 | 0.00 | 81 | 1015.2 |
| 20260903070806 | 62 | 248 | 3.5 | 7.8 | 0.00 | 0.00 | 0.00 | 81 | 1015.2 |
| 20260903070704 | 62 | 232 | 3.5 | 7.0 | 0.00 | 0.00 | 0.00 | 81 | 1015.2 |
| 20260903070614 | 62 | 211 | 3.5 | 7.0 | 0.00 | 0.00 | 0.00 | 81 | 1015.2 |
| 20260903070504 | 62 | 240 | 3.5 | 7.0 | 0.00 | 0.00 | 0.00 | 81 | 1015.2 |
| 20260903070434 | 62 | 210 | 3.5 | 7.0 | 0.00 | 0.00 | 0.00 | 81 | 1015.2 |
| 20260903070405 | 62 | 242 | 3.5 | 7.0 | 0.00 | 0.00 | 0.00 | 81 | 1015.2 |
| 20260903070304 | 62 | 218 | 3.5 | 7.0 | 0.00 | 0.00 | 0.00 | 81 | 1015.2 |
| 20260903070203 | 62 | 253 | 3.5 | 7.0 | 0.00 | 0.00 | 0.00 | 81 | 1015.2 |
| 20260903070100 | 62 | 211 | 3.5 | 7.0 | 0.00 | 0.00 | 0.00 | 81 | 1015.2 |
| 20260903070000 | 62 | 248 | 3.5 | 7.0 | 0.00 | 0.00 | 0.00 | 81 | 1015.1 |
| 20260903065935 | 62 | 195 | 3.5 | 7.0 | 0.00 | 0.00 | 0.00 | 81 | 1015.1 |
| 20260903065900 | 62 | 256 | 3.5 | 7.0 | 0.00 | 0.00 | 0.00 | 81 | 1015.1 |
| 20260903065800 | 62 | 221 | 3.5 | 7.0 | 0.00 | 0.00 | 0.00 | 81 | 1015.2 |
| 20260903065700 | 62 | 205 | 3.5 | 7.0 | 0.00 | 0.00 | 0.00 | 81 | 1015.1 |
| 20260903065558 | 62 | 165 | 3.5 | 7.0 | 0.00 | 0.00 | 0.00 | 80 | 1015.0 |
| 20260903065457 | 62 | 219 | 3.5 | 6.1 | 0.00 | 0.00 | 0.00 | 80 | 1015.1 |
| 20260903065434 | 62 | 246 | 3.5 | 5.2 | 0.00 | 0.00 | 0.00 | 80 | 1015.1 |
| 20260903065356 | 62 | 208 | 3.5 | 5.2 | 0.00 | 0.00 | 0.00 | 80 | 1015.1 |
| 20260903065254 | 62 | 233 | 3.5 | 5.2 | 0.00 | 0.00 | 0.00 | 80 | 1015.1 |
| 20260903065155 | 62 | 219 | 3.5 | 5.2 | 0.00 | 0.00 | 0.00 | 80 | 1015.1 |
| 20260903065054 | 62 | 231 | 2.6 | 5.2 | 0.00 | 0.00 | 0.00 | 80 | 1015.1 |
| 20260903064954 | 62 | 219 | 2.6 | 5.2 | 0.00 | 0.00 | 0.00 | 80 | 1015.1 |
| 20260903064933 | 62 | 212 | 2.6 | 5.2 | 0.00 | 0.00 | 0.00 | 80 | 1015.1 |
| 20260903064855 | 62 | 235 | 2.6 | 5.2 | 0.00 | 0.00 | 0.00 | 80 | 1015.1 |
| 20260903064754 | 62 | 200 | 2.6 | 5.2 | 0.00 | 0.00 | 0.00 | 79 | 1015.1 |
| 20260903064700 | 62 | 214 | 2.6 | 7.0 | 0.00 | 0.00 | 0.00 | 79 | 1015.0 |
| 20260903064654 | 62 | 262 | 2.6 | 7.0 | 0.00 | 0.00 | 0.00 | 79 | 1015.0 |
| 20260903064553 | 62 | 211 | 2.6 | 7.0 | 0.00 | 0.00 | 0.00 | 79 | 1015.1 |
| 20260903064544 | 62 | 229 | 2.6 | 7.0 | 0.00 | 0.00 | 0.00 | 79 | 1015.0 |
| 20260903064354 | 62 | 248 | 2.6 | 7.0 | 0.00 | 0.00 | 0.00 | 79 | 1015.1 |
| 20260903064254 | 62 | 256 | 2.6 | 7.0 | 0.00 | 0.00 | 0.00 | 79 | 1015.0 |
| 20260903064154 | 62 | 232 | 2.6 | 7.0 | 0.00 | 0.00 | 0.00 | 79 | 1015.1 |
| 20260903064048 | 62 | 231 | 2.6 | 7.0 | 0.00 | 0.00 | 0.00 | 79 | 1015.0 |
| 20260903063949 | 63 | 219 | 2.6 | 7.0 | 0.00 | 0.00 | 0.00 | 78 | 1015.0 |
| 20260903063933 | 63 | 226 | 2.6 | 7.0 | 0.00 | 0.00 | 0.00 | 78 | 1015.0 |
| 20260903063848 | 63 | 193 | 2.6 | 7.0 | 0.00 | 0.00 | 0.00 | 78 | 1015.0 |
| 20260903063748 | 63 | 235 | 2.6 | 7.0 | 0.00 | 0.00 | 0.00 | 78 | 1015.0 |
| 20260903063648 | 63 | 204 | 2.6 | 6.1 | 0.00 | 0.00 | 0.00 | 78 | 1015.0 |
| 20260903063548 | 63 | 228 | 2.6 | 6.1 | 0.00 | 0.00 | 0.00 | 78 | 1015.1 |
| 20260903063448 | 63 | 236 | 2.6 | 6.1 | 0.00 | 0.00 | 0.00 | 78 | 1015.1 |
| 20260903063433 | 63 | 235 | 2.6 | 6.1 | 0.00 | 0.00 | 0.00 | 78 | 1015.1 |
| 20260903063347 | 63 | 240 | 2.6 | 6.1 | 0.00 | 0.00 | 0.00 | 78 | 1015.0 |
| 20260903063248 | 63 | 251 | 2.6 | 6.1 | 0.00 | 0.00 | 0.00 | 78 | 1015.0 |
| 20260903063148 | 63 | 269 | 2.6 | 6.1 | 0.00 | 0.00 | 0.00 | 78 | 1015.0 |
| 20260903063047 | 63 | 245 | 2.6 | 6.1 | 0.00 | 0.00 | 0.00 | 78 | 1015.1 |
| 20260903062948 | 63 | 224 | 2.6 | 6.1 | 0.00 | 0.00 | 0.00 | 78 | 1015.0 |
| 20260903062933 | 63 | 211 | 2.6 | 6.1 | 0.00 | 0.00 | 0.00 | 78 | 1015.0 |
| 20260903062844 | 63 | 234 | 2.6 | 6.1 | 0.00 | 0.00 | 0.00 | 78 | 1015.0 |
| 20260903062745 | 63 | 233 | 2.6 | 6.1 | 0.00 | 0.00 | 0.00 | 77 | 1015.0 |
| 20260903062645 | 63 | 229 | 2.6 | 6.1 | 0.00 | 0.00 | 0.00 | 77 | 1015.0 |
| 20260903062544 | 63 | 235 | 2.6 | 6.1 | 0.00 | 0.00 | 0.00 | 77 | 1015.0 |
| 20260903062444 | 63 | 248 | 2.6 | 6.1 | 0.00 | 0.00 | 0.00 | 77 | 1015.0 |
| 20260903062433 | 63 | 222 | 2.6 | 6.1 | 0.00 | 0.00 | 0.00 | 77 | 1015.0 |
| 20260903062344 | 63 | 243 | 2.6 | 6.1 | 0.00 | 0.00 | 0.00 | 77 | 1015.0 |
| 20260903062244 | 63 | 240 | 2.6 | 6.1 | 0.00 | 0.00 | 0.00 | 77 | 1015.0 |
| 20260903062145 | 63 | 225 | 2.6 | 6.1 | 0.00 | 0.00 | 0.00 | 77 | 1015.0 |
| 20260903062044 | 63 | 226 | 2.6 | 6.1 | 0.00 | 0.00 | 0.00 | 77 | 1015.0 |
| 20260903061945 | 63 | 242 | 2.6 | 6.1 | 0.00 | 0.00 | 0.00 | 77 | 1015.0 |
| 20260903061929 | 63 | 226 | 2.6 | 6.1 | 0.00 | 0.00 | 0.00 | 77 | 1015.0 |
| 20260903061845 | 63 | 218 | 2.6 | 6.1 | 0.00 | 0.00 | 0.00 | 77 | 1015.0 |
| 20260903061744 | 63 | 231 | 2.6 | 6.1 | 0.00 | 0.00 | 0.00 | 77 | 1015.0 |
| 20260903061645 | 63 | 235 | 2.6 | 6.1 | 0.00 | 0.00 | 0.00 | 77 | 1015.0 |
| 20260903061544 | 63 | 235 | 2.6 | 6.1 | 0.00 | 0.00 | 0.00 | 77 | 1015.0 |
| 20260903061429 | 63 | 235 | 2.6 | 6.1 | 0.00 | 0.00 | 0.00 | 77 | 1015.0 |
| 20260903061345 | 63 | 236 | 2.6 | 6.1 | 0.00 | 0.00 | 0.00 | 77 | 1015.0 |
| 20260903061244 | 63 | 229 | 2.6 | 6.1 | 0.00 | 0.00 | 0.00 | 77 | 1015.0 |
| 20260903061145 | 63 | 256 | 2.6 | 5.2 | 0.00 | 0.00 | 0.00 | 77 | 1015.0 |
| 20260903061045 | 63 | 236 | 2.6 | 5.2 | 0.00 | 0.00 | 0.00 | 76 | 1015.0 |
| 20260903060944 | 63 | 231 | 2.6 | 5.2 | 0.00 | 0.00 | 0.00 | 76 | 1015.0 |
| 20260903060930 | 63 | 238 | 2.6 | 5.2 | 0.00 | 0.00 | 0.00 | 76 | 1015.0 |
| 20260903060844 | 63 | 236 | 2.6 | 5.2 | 0.00 | 0.00 | 0.00 | 76 | 1015.0 |
| 20260903060744 | 63 | 229 | 2.6 | 5.2 | 0.00 | 0.00 | 0.00 | 76 | 1015.0 |
| 20260903060645 | 63 | 235 | 1.7 | 5.2 | 0.00 | 0.00 | 0.00 | 76 | 1015.0 |
| 20260903060544 | 64 | 238 | 2.6 | 5.2 | 0.00 | 0.00 | 0.00 | 76 | 1015.0 |
| 20260903060442 | 64 | 246 | 2.6 | 5.2 | 0.00 | 0.00 | 0.00 | 76 | 1015.0 |
| 20260903060427 | 64 | 233 | 2.6 | 5.2 | 0.00 | 0.00 | 0.00 | 76 | 1015.0 |
| 20260903060342 | 64 | 235 | 1.7 | 5.2 | 0.00 | 0.00 | 0.00 | 76 | 1015.0 |
| 20260903060242 | 64 | 233 | 1.7 | 5.2 | 0.00 | 0.00 | 0.00 | 75 | 1015.0 |
| 20260903060143 | 64 | 233 | 1.7 | 5.2 | 0.00 | 0.00 | 0.00 | 75 | 1015.1 |
| 20260903060042 | 64 | 235 | 1.7 | 5.2 | 0.00 | 0.00 | 0.00 | 75 | 1015.0 |
| 20260903055927 | 64 | 238 | 1.7 | 5.2 | 0.00 | 0.00 | 0.00 | 75 | 1015.0 |
| 20260903055840 | 64 | 238 | 1.7 | 5.2 | 0.00 | 0.00 | 0.00 | 75 | 1015.1 |
| 20260903055740 | 64 | 166 | 1.7 | 5.2 | 0.00 | 0.00 | 0.00 | 75 | 1015.0 |
| 20260903055651 | 64 | 208 | 1.7 | 5.2 | 0.00 | 0.00 | 0.00 | 74 | 1015.0 |
| 20260903055640 | 64 | 229 | 1.7 | 5.2 | 0.00 | 0.00 | 0.00 | 75 | 1015.1 |
| 20260903055547 | 64 | 236 | 1.7 | 5.2 | 0.00 | 0.00 | 0.00 | 74 | 1015.1 |
| 20260903055538 | 64 | 203 | 1.7 | 5.2 | 0.00 | 0.00 | 0.00 | 74 | 1015.0 |
| 20260903055338 | 64 | 212 | 1.7 | 5.2 | 0.00 | 0.00 | 0.00 | 74 | 1015.1 |
| 20260903055238 | 64 | 232 | 1.7 | 5.2 | 0.00 | 0.00 | 0.00 | 74 | 1015.1 |
| 20260903055137 | 64 | 240 | 1.7 | 5.2 | 0.00 | 0.00 | 0.00 | 74 | 1015.0 |
| 20260903055036 | 64 | 232 | 1.7 | 5.2 | 0.00 | 0.00 | 0.00 | 74 | 1015.0 |
| 20260903054936 | 64 | 242 | 1.7 | 5.2 | 0.00 | 0.00 | 0.00 | 74 | 1015.0 |
| 20260903054925 | 64 | 236 | 1.7 | 5.2 | 0.00 | 0.00 | 0.00 | 74 | 1015.0 |
| 20260903054836 | 64 | 146 | 1.7 | 5.2 | 0.00 | 0.00 | 0.00 | 74 | 1015.0 |
| 20260903054737 | 64 | 231 | 1.7 | 7.0 | 0.00 | 0.00 | 0.00 | 74 | 1015.0 |
| 20260903054638 | 64 | 226 | 1.7 | 7.0 | 0.00 | 0.00 | 0.00 | 74 | 1015.0 |
| 20260903054536 | 64 | 237 | 1.7 | 7.0 | 0.00 | 0.00 | 0.00 | 73 | 1014.9 |
| 20260903054436 | 64 | 211 | 1.7 | 7.0 | 0.00 | 0.00 | 0.00 | 73 | 1015.0 |
| 20260903054426 | 64 | 203 | 1.7 | 7.0 | 0.00 | 0.00 | 0.00 | 73 | 1015.0 |
| 20260903054336 | 64 | 153 | 1.7 | 7.0 | 0.00 | 0.00 | 0.00 | 73 | 1015.0 |
| 20260903054237 | 64 | 256 | 1.7 | 7.0 | 0.00 | 0.00 | 0.00 | 73 | 1015.0 |
| 20260903054136 | 65 | 256 | 1.7 | 7.0 | 0.00 | 0.00 | 0.00 | 73 | 1015.0 |
| 20260903054036 | 65 | 263 | 1.7 | 7.0 | 0.00 | 0.00 | 0.00 | 73 | 1015.0 |
| 20260903054026 | 65 | 232 | 2.6 | 8.7 | 0.00 | 0.00 | 0.00 | 72 | 1015.0 |
| 20260903054020 | 65 | 234 | 2.6 | 7.8 | 0.00 | 0.00 | 0.00 | 72 | 1015.0 |
| 20260903054016 | 65 | 233 | 1.7 | 7.0 | 0.00 | 0.00 | 0.00 | 73 | 1015.0 |
| 20260903054006 | 65 | 229 | 1.7 | 7.0 | 0.00 | 0.00 | 0.00 | 73 | 1015.0 |
| 20260903053856 | 65 | 229 | 2.6 | 7.8 | 0.00 | 0.00 | 0.00 | 73 | 1015.0 |
| 20260903053743 | 65 | 210 | 2.6 | 7.8 | 0.00 | 0.00 | 0.00 | 72 | 1015.0 |
| 20260903053541 | 65 | 233 | 2.6 | 8.7 | 0.00 | 0.00 | 0.00 | 72 | 1015.0 |
| 20260903053532 | 65 | 233 | 2.6 | 8.7 | 0.00 | 0.00 | 0.00 | 72 | 1015.0 |
| 20260903053326 | 65 | 221 | 2.6 | 8.7 | 0.00 | 0.00 | 0.00 | 72 | 1015.0 |
| 20260903053226 | 65 | 239 | 2.6 | 8.7 | 0.00 | 0.00 | 0.00 | 72 | 1014.9 |
| 20260903053127 | 65 | 266 | 2.6 | 8.7 | 0.00 | 0.00 | 0.00 | 72 | 1014.9 |
| 20260903053026 | 65 | 223 | 2.6 | 8.7 | 0.00 | 0.00 | 0.00 | 71 | 1015.0 |
| 20260903052931 | 65 | 228 | 3.5 | 8.7 | 0.00 | 0.00 | 0.00 | 71 | 1015.0 |
| 20260903052920 | 65 | 225 | 3.5 | 8.7 | 0.00 | 0.00 | 0.00 | 71 | 1015.0 |
| 20260903052839 | 65 | 253 | 3.5 | 8.7 | 0.00 | 0.00 | 0.00 | 71 | 1014.9 |
| 20260903052835 | 65 | 218 | 3.5 | 8.7 | 0.00 | 0.00 | 0.00 | 71 | 1014.9 |
| 20260903052627 | 65 | 239 | 3.5 | 8.7 | 0.00 | 0.00 | 0.00 | 71 | 1015.0 |
| 20260903052526 | 65 | 222 | 2.6 | 8.7 | 0.00 | 0.00 | 0.00 | 71 | 1015.0 |
| 20260903052446 | 65 | 259 | 3.5 | 10.4 | 0.00 | 0.00 | 0.00 | 70 | 1015.0 |
| 20260903052432 | 65 | 263 | 3.5 | 10.4 | 0.00 | 0.00 | 0.00 | 71 | 1015.0 |
| 20260903052226 | 65 | 239 | 2.6 | 10.4 | 0.00 | 0.00 | 0.00 | 70 | 1015.0 |
| 20260903052135 | 65 | 288 | 3.5 | 10.4 | 0.00 | 0.00 | 0.00 | 70 | 1015.0 |
| 20260903052123 | 65 | 238 | 2.6 | 10.4 | 0.00 | 0.00 | 0.00 | 70 | 1015.0 |
| 20260903052022 | 65 | 246 | 3.5 | 10.4 | 0.00 | 0.00 | 0.00 | 70 | 1015.0 |
| 20260903051927 | 65 | 270 | 3.5 | 10.4 | 0.00 | 0.00 | 0.00 | 70 | 1015.0 |
| 20260903051820 | 65 | 250 | 2.6 | 10.4 | 0.00 | 0.00 | 0.00 | 70 | 1015.0 |
| 20260903051720 | 65 | 224 | 2.6 | 10.4 | 0.00 | 0.00 | 0.00 | 69 | 1014.9 |
| 20260903051621 | 65 | 233 | 2.6 | 10.4 | 0.00 | 0.00 | 0.00 | 69 | 1015.0 |
| 20260903051520 | 65 | 249 | 2.6 | 10.4 | 0.00 | 0.00 | 0.00 | 69 | 1015.0 |
| 20260903051437 | 66 | 233 | 2.6 | 7.8 | 0.00 | 0.00 | 0.00 | 69 | 1014.9 |
| 20260903051426 | 66 | 225 | 2.6 | 7.8 | 0.00 | 0.00 | 0.00 | 69 | 1014.9 |
| 20260903051320 | 66 | 248 | 2.6 | 7.8 | 0.00 | 0.00 | 0.00 | 68 | 1014.9 |
| 20260903051221 | 66 | 257 | 2.6 | 7.8 | 0.00 | 0.00 | 0.00 | 68 | 1015.0 |
| 20260903051120 | 66 | 250 | 2.6 | 7.8 | 0.00 | 0.00 | 0.00 | 68 | 1015.0 |
| 20260903051020 | 66 | 263 | 2.6 | 7.8 | 0.00 | 0.00 | 0.00 | 68 | 1015.0 |
| 20260903050924 | 66 | 267 | 2.6 | 7.8 | 0.00 | 0.00 | 0.00 | 68 | 1015.0 |
| 20260903050913 | 66 | 212 | 2.6 | 7.8 | 0.00 | 0.00 | 0.00 | 68 | 1015.0 |
| 20260903050820 | 66 | 253 | 2.6 | 7.8 | 0.00 | 0.00 | 0.00 | 67 | 1015.0 |
| 20260903050733 | 66 | 236 | 2.6 | 7.0 | 0.00 | 0.00 | 0.00 | 67 | 1015.0 |
| 20260903050635 | 66 | 211 | 2.6 | 8.7 | 0.00 | 0.00 | 0.00 | 67 | 1015.0 |
| 20260903050621 | 66 | 280 | 2.6 | 8.7 | 0.00 | 0.00 | 0.00 | 67 | 1015.0 |
| 20260903050521 | 66 | 283 | 2.6 | 8.7 | 0.00 | 0.00 | 0.00 | 67 | 1015.1 |
| 20260903050426 | 66 | 250 | 2.6 | 8.7 | 0.00 | 0.00 | 0.00 | 67 | 1015.0 |
| 20260903050419 | 66 | 211 | 2.6 | 8.7 | 0.00 | 0.00 | 0.00 | 67 | 1015.0 |
| 20260903050318 | 66 | 219 | 3.5 | 8.7 | 0.00 | 0.00 | 0.00 | 67 | 1015.0 |
| 20260903050218 | 66 | 225 | 3.5 | 8.7 | 0.00 | 0.00 | 0.00 | 66 | 1015.0 |
| 20260903050118 | 66 | 223 | 3.5 | 8.7 | 0.00 | 0.00 | 0.00 | 66 | 1015.0 |
| 20260903050018 | 66 | 240 | 3.5 | 8.7 | 0.00 | 0.00 | 0.00 | 66 | 1015.0 |
| 20260903045924 | 66 | 248 | 3.5 | 8.7 | 0.00 | 0.00 | 0.00 | 66 | 1015.0 |
| 20260903045913 | 66 | 240 | 3.5 | 8.7 | 0.00 | 0.00 | 0.00 | 66 | 1015.0 |
| 20260903045858 | 67 | 253 | 3.5 | 8.7 | 0.00 | 0.00 | 0.00 | 65 | 1015.0 |
| 20260903045818 | 67 | 246 | 3.5 | 8.7 | 0.00 | 0.00 | 0.00 | 66 | 1015.1 |
| 20260903045718 | 67 | 269 | 3.5 | 8.7 | 0.00 | 0.00 | 0.00 | 66 | 1015.0 |
| 20260903045643 | 67 | 253 | 3.5 | 8.7 | 0.00 | 0.00 | 0.00 | 65 | 1015.0 |
| 20260903045619 | 67 | 260 | 3.5 | 8.7 | 0.00 | 0.00 | 0.00 | 66 | 1015.0 |
| 20260903045518 | 67 | 253 | 3.5 | 8.7 | 0.00 | 0.00 | 0.00 | 65 | 1015.0 |
| 20260903045454 | 67 | 253 | 3.5 | 8.7 | 0.00 | 0.00 | 0.00 | 65 | 1015.0 |
| 20260903045322 | 67 | 267 | 2.6 | 8.7 | 0.00 | 0.00 | 0.00 | 65 | 1015.0 |
| 20260903045219 | 67 | 224 | 2.6 | 8.7 | 0.00 | 0.00 | 0.00 | 65 | 1015.0 |
| 20260903045149 | 67 | 263 | 2.6 | 8.7 | 0.00 | 0.00 | 0.00 | 65 | 1015.0 |
| 20260903045119 | 67 | 228 | 2.6 | 8.7 | 0.00 | 0.00 | 0.00 | 65 | 1015.0 |
| 20260903045013 | 67 | 256 | 2.6 | 8.7 | 0.00 | 0.00 | 0.00 | 65 | 1015.0 |
| 20260903044923 | 67 | 263 | 2.6 | 8.7 | 0.00 | 0.00 | 0.00 | 65 | 1015.0 |
| 20260903044912 | 67 | 236 | 2.6 | 8.7 | 0.00 | 0.00 | 0.00 | 65 | 1015.0 |
| 20260903044812 | 67 | 228 | 2.6 | 8.7 | 0.00 | 0.00 | 0.00 | 65 | 1015.0 |
| 20260903044712 | 67 | 230 | 2.6 | 8.7 | 0.00 | 0.00 | 0.00 | 65 | 1015.0 |
| 20260903044613 | 67 | 266 | 2.6 | 8.7 | 0.00 | 0.00 | 0.00 | 65 | 1015.0 |
| 20260903044512 | 67 | 200 | 2.6 | 8.7 | 0.00 | 0.00 | 0.00 | 65 | 1015.0 |
| 20260903044418 | 67 | 284 | 2.6 | 8.7 | 0.00 | 0.00 | 0.00 | 64 | 1014.9 |
| 20260903044412 | 67 | 282 | 2.6 | 8.7 | 0.00 | 0.00 | 0.00 | 64 | 1014.9 |
| 20260903044312 | 67 | 228 | 1.7 | 8.7 | 0.00 | 0.00 | 0.00 | 64 | 1015.0 |
| 20260903044226 | 67 | 208 | 2.6 | 7.0 | 0.00 | 0.00 | 0.00 | 64 | 1014.9 |
| 20260903044222 | 67 | 266 | 2.6 | 6.1 | 0.00 | 0.00 | 0.00 | 64 | 1014.9 |
| 20260903044012 | 67 | 228 | 2.6 | 7.0 | 0.00 | 0.00 | 0.00 | 64 | 1014.9 |
| 20260903043920 | 67 | 250 | 2.6 | 7.0 | 0.00 | 0.00 | 0.00 | 64 | 1014.8 |
| 20260903043912 | 67 | 257 | 2.6 | 7.0 | 0.00 | 0.00 | 0.00 | 64 | 1014.8 |
| 20260903043813 | 67 | 235 | 2.6 | 7.0 | 0.00 | 0.00 | 0.00 | 64 | 1014.9 |
| 20260903043712 | 67 | 240 | 2.6 | 7.0 | 0.00 | 0.00 | 0.00 | 64 | 1014.9 |
| 20260903043613 | 67 | 248 | 2.6 | 8.7 | 0.00 | 0.00 | 0.00 | 64 | 1014.9 |
| 20260903043513 | 68 | 232 | 2.6 | 8.7 | 0.00 | 0.00 | 0.00 | 64 | 1014.9 |
| 20260903043418 | 68 | 259 | 2.6 | 8.7 | 0.00 | 0.00 | 0.00 | 64 | 1014.9 |
| 20260903043412 | 68 | 260 | 3.5 | 8.7 | 0.00 | 0.00 | 0.00 | 64 | 1014.9 |
| 20260903043313 | 68 | 236 | 3.5 | 8.7 | 0.00 | 0.00 | 0.00 | 64 | 1014.8 |
| 20260903043210 | 68 | 250 | 3.5 | 8.7 | 0.00 | 0.00 | 0.00 | 64 | 1014.8 |
| 20260903043111 | 68 | 253 | 3.5 | 8.7 | 0.00 | 0.00 | 0.00 | 64 | 1014.9 |
| 20260903043010 | 68 | 259 | 3.5 | 8.7 | 0.00 | 0.00 | 0.00 | 64 | 1014.9 |
| 20260903042916 | 68 | 259 | 3.5 | 8.7 | 0.00 | 0.00 | 0.00 | 64 | 1014.9 |
| 20260903042910 | 68 | 260 | 3.5 | 8.7 | 0.00 | 0.00 | 0.00 | 64 | 1014.9 |
| 20260903042810 | 68 | 281 | 4.3 | 8.7 | 0.00 | 0.00 | 0.00 | 64 | 1014.9 |
| 20260903042710 | 68 | 264 | 3.5 | 8.7 | 0.00 | 0.00 | 0.00 | 64 | 1014.9 |
| 20260903042612 | 68 | 273 | 3.5 | 8.7 | 0.00 | 0.00 | 0.00 | 64 | 1014.9 |
| 20260903042510 | 68 | 256 | 3.5 | 8.7 | 0.00 | 0.00 | 0.00 | 64 | 1015.0 |
| 20260903042428 | 68 | 257 | 3.5 | 8.7 | 0.00 | 0.00 | 0.00 | 63 | 1015.0 |
| 20260903042410 | 68 | 253 | 3.5 | 8.7 | 0.00 | 0.00 | 0.00 | 63 | 1014.9 |
| 20260903042310 | 68 | 218 | 3.5 | 7.8 | 0.00 | 0.00 | 0.00 | 63 | 1015.0 |
| 20260903042210 | 68 | 236 | 3.5 | 7.8 | 0.00 | 0.00 | 0.00 | 63 | 1015.0 |
| 20260903042111 | 68 | 236 | 3.5 | 7.8 | 0.00 | 0.00 | 0.00 | 63 | 1014.9 |
| 20260903042010 | 68 | 255 | 3.5 | 7.8 | 0.00 | 0.00 | 0.00 | 63 | 1015.0 |
| 20260903041916 | 68 | 241 | 3.5 | 7.8 | 0.00 | 0.00 | 0.00 | 63 | 1015.0 |
| 20260903041911 | 68 | 240 | 3.5 | 7.8 | 0.00 | 0.00 | 0.00 | 63 | 1014.9 |
| 20260903041810 | 68 | 245 | 3.5 | 7.8 | 0.00 | 0.00 | 0.00 | 63 | 1014.9 |
| 20260903041710 | 68 | 214 | 3.5 | 7.8 | 0.00 | 0.00 | 0.00 | 63 | 1014.9 |
| 20260903041610 | 69 | 256 | 3.5 | 7.8 | 0.00 | 0.00 | 0.00 | 63 | 1014.9 |
| 20260903041511 | 69 | 239 | 3.5 | 7.8 | 0.00 | 0.00 | 0.00 | 63 | 1014.9 |
| 20260903041426 | 69 | 232 | 3.5 | 7.8 | 0.00 | 0.00 | 0.00 | 63 | 1014.9 |
| 20260903041408 | 69 | 215 | 3.5 | 7.8 | 0.00 | 0.00 | 0.00 | 63 | 1014.9 |
| 20260903041308 | 69 | 226 | 3.5 | 7.8 | 0.00 | 0.00 | 0.00 | 63 | 1014.9 |
| 20260903041209 | 69 | 239 | 3.5 | 7.8 | 0.00 | 0.00 | 0.00 | 63 | 1014.9 |
| 20260903041110 | 69 | 246 | 3.5 | 7.8 | 0.00 | 0.00 | 0.00 | 63 | 1014.9 |
| 20260903041008 | 69 | 228 | 3.5 | 7.8 | 0.00 | 0.00 | 0.00 | 63 | 1014.8 |
| 20260903040913 | 69 | 242 | 3.5 | 7.8 | 0.00 | 0.00 | 0.00 | 63 | 1014.8 |
| 20260903040908 | 69 | 236 | 3.5 | 7.8 | 0.00 | 0.00 | 0.00 | 63 | 1014.8 |
| 20260903040808 | 69 | 201 | 3.5 | 7.8 | 0.00 | 0.00 | 0.00 | 63 | 1014.8 |
| 20260903040708 | 69 | 218 | 2.6 | 7.8 | 0.00 | 0.00 | 0.00 | 63 | 1014.7 |
| 20260903040642 | 69 | 245 | 2.6 | 7.8 | 0.00 | 0.00 | 0.00 | 63 | 1014.7 |
| 20260903040611 | 69 | 264 | 2.6 | 7.8 | 0.00 | 0.00 | 0.00 | 63 | 1014.8 |
| 20260903040532 | 69 | 238 | 2.6 | 7.8 | 0.00 | 0.00 | 0.00 | 63 | 1014.7 |
| 20260903040409 | 69 | 253 | 2.6 | 7.8 | 0.00 | 0.00 | 0.00 | 63 | 1014.7 |
| 20260903040309 | 69 | 256 | 2.6 | 7.0 | 0.00 | 0.00 | 0.00 | 62 | 1014.7 |
| 20260903040208 | 69 | 222 | 2.6 | 7.0 | 0.00 | 0.00 | 0.00 | 62 | 1014.7 |
| 20260903040109 | 69 | 217 | 2.6 | 7.0 | 0.00 | 0.00 | 0.00 | 62 | 1014.7 |
| 20260903040003 | 69 | 210 | 2.6 | 6.1 | 0.00 | 0.00 | 0.00 | 63 | 1014.7 |
| 20260903035913 | 69 | 269 | 2.6 | 6.1 | 0.00 | 0.00 | 0.00 | 63 | 1014.7 |
| 20260903035903 | 69 | 226 | 2.6 | 6.1 | 0.00 | 0.00 | 0.00 | 63 | 1014.7 |
| 20260903035800 | 69 | 255 | 2.6 | 6.1 | 0.00 | 0.00 | 0.00 | 62 | 1014.6 |
| 20260903035700 | 69 | 239 | 2.6 | 6.1 | 0.00 | 0.00 | 0.00 | 62 | 1014.6 |
| 20260903035605 | 69 | 250 | 2.6 | 7.0 | 0.00 | 0.00 | 0.00 | 62 | 1014.6 |
| 20260903035500 | 69 | 256 | 2.6 | 7.0 | 0.00 | 0.00 | 0.00 | 62 | 1014.6 |
| 20260903035414 | 69 | 212 | 2.6 | 7.0 | 0.00 | 0.00 | 0.00 | 62 | 1014.6 |
| 20260903035400 | 69 | 193 | 2.6 | 7.0 | 0.00 | 0.00 | 0.00 | 62 | 1014.6 |
| 20260903035300 | 69 | 239 | 2.6 | 8.7 | 0.00 | 0.00 | 0.00 | 62 | 1014.6 |
| 20260903035200 | 69 | 239 | 2.6 | 8.7 | 0.00 | 0.00 | 0.00 | 62 | 1014.5 |
| 20260903035112 | 70 | 257 | 2.6 | 8.7 | 0.00 | 0.00 | 0.00 | 62 | 1014.5 |
| 20260903035108 | 70 | 274 | 2.6 | 8.7 | 0.00 | 0.00 | 0.00 | 62 | 1014.5 |
| 20260903034911 | 70 | 243 | 2.6 | 8.7 | 0.00 | 0.00 | 0.00 | 62 | 1014.4 |
| 20260903034858 | 70 | 232 | 2.6 | 8.7 | 0.00 | 0.00 | 0.00 | 62 | 1014.4 |
| 20260903034758 | 70 | 250 | 2.6 | 8.7 | 0.00 | 0.00 | 0.00 | 62 | 1014.5 |
| 20260903034658 | 70 | 232 | 2.6 | 8.7 | 0.00 | 0.00 | 0.00 | 62 | 1014.4 |
| 20260903034558 | 70 | 233 | 2.6 | 8.7 | 0.00 | 0.00 | 0.00 | 62 | 1014.5 |
| 20260903034456 | 70 | 280 | 2.6 | 8.7 | 0.00 | 0.00 | 0.00 | 61 | 1014.4 |
| 20260903034408 | 70 | 235 | 2.6 | 8.7 | 0.00 | 0.00 | 0.00 | 61 | 1014.4 |
| 20260903034402 | 70 | 238 | 1.7 | 7.0 | 0.00 | 0.00 | 0.00 | 61 | 1014.4 |
| 20260903034356 | 70 | 221 | 2.6 | 8.7 | 0.00 | 0.00 | 0.00 | 61 | 1014.4 |
| 20260903034256 | 70 | 239 | 2.6 | 7.0 | 0.00 | 0.00 | 0.00 | 61 | 1014.4 |
| 20260903034246 | 70 | 232 | 1.7 | 7.0 | 0.00 | 0.00 | 0.00 | 61 | 1014.3 |
| 20260903034054 | 70 | 263 | 1.7 | 7.0 | 0.00 | 0.00 | 0.00 | 61 | 1014.3 |
| 20260903034018 | 70 | 262 | 1.7 | 7.0 | 0.00 | 0.00 | 0.00 | 61 | 1014.4 |
| 20260903033854 | 70 | 246 | 1.7 | 7.0 | 0.00 | 0.00 | 0.00 | 61 | 1014.4 |
| 20260903033752 | 70 | 241 | 1.7 | 7.0 | 0.00 | 0.00 | 0.00 | 61 | 1014.3 |
| 20260903033653 | 70 | 222 | 1.7 | 7.0 | 0.00 | 0.00 | 0.00 | 61 | 1014.2 |
| 20260903033552 | 70 | 230 | 0.9 | 7.0 | 0.00 | 0.00 | 0.00 | 61 | 1014.3 |
| 20260903033452 | 70 | 243 | 0.9 | 4.3 | 0.00 | 0.00 | 0.00 | 61 | 1014.3 |
| 20260903033408 | 70 | 246 | 0.9 | 4.3 | 0.00 | 0.00 | 0.00 | 61 | 1014.2 |
| 20260903033355 | 70 | 253 | 0.9 | 4.3 | 0.00 | 0.00 | 0.00 | 61 | 1014.2 |
| 20260903033346 | 70 | 229 | 0.9 | 5.2 | 0.00 | 0.00 | 0.00 | 60 | 1014.2 |
| 20260903033252 | 70 | 231 | 0.9 | 4.3 | 0.00 | 0.00 | 0.00 | 60 | 1014.2 |
| 20260903033238 | 70 | 225 | 0.9 | 4.3 | 0.00 | 0.00 | 0.00 | 60 | 1014.2 |
| 20260903033049 | 70 | 256 | 0.9 | 4.3 | 0.00 | 0.00 | 0.00 | 60 | 1014.2 |
| 20260903033019 | 70 | 250 | 0.9 | 4.3 | 0.00 | 0.00 | 0.00 | 60 | 1014.2 |
| 20260903032846 | 70 | 235 | 0.9 | 5.2 | 0.00 | 0.00 | 0.00 | 60 | 1014.2 |
| 20260903032747 | 70 | 239 | 0.9 | 5.2 | 0.00 | 0.00 | 0.00 | 60 | 1014.2 |
| 20260903032647 | 70 | 204 | 0.9 | 5.2 | 0.00 | 0.00 | 0.00 | 60 | 1014.2 |
| 20260903032551 | 70 | 204 | 0.9 | 5.2 | 0.00 | 0.00 | 0.00 | 59 | 1014.1 |
| 20260903032444 | 70 | 246 | 0.9 | 5.2 | 0.00 | 0.00 | 0.00 | 59 | 1014.1 |
| 20260903032407 | 70 | 246 | 0.9 | 5.2 | 0.00 | 0.00 | 0.00 | 59 | 1014.1 |
| 20260903032344 | 71 | 245 | 0.9 | 5.2 | 0.00 | 0.00 | 0.00 | 59 | 1014.1 |
| 20260903032244 | 71 | 228 | 1.7 | 5.2 | 0.00 | 0.00 | 0.00 | 59 | 1014.1 |
| 20260903032145 | 71 | 242 | 1.7 | 5.2 | 0.00 | 0.00 | 0.00 | 59 | 1014.2 |
| 20260903032044 | 71 | 241 | 1.7 | 5.2 | 0.00 | 0.00 | 0.00 | 59 | 1014.1 |
| 20260903031945 | 71 | 238 | 1.7 | 5.2 | 0.00 | 0.00 | 0.00 | 59 | 1014.1 |
| 20260903031918 | 71 | 248 | 1.7 | 5.2 | 0.00 | 0.00 | 0.00 | 59 | 1014.1 |
| 20260903031844 | 71 | 267 | 1.7 | 5.2 | 0.00 | 0.00 | 0.00 | 59 | 1014.1 |
| 20260903031744 | 71 | 233 | 1.7 | 5.2 | 0.00 | 0.00 | 0.00 | 58 | 1014.1 |
| 20260903031645 | 71 | 232 | 1.7 | 5.2 | 0.00 | 0.00 | 0.00 | 58 | 1014.1 |
| 20260903031542 | 71 | 269 | 1.7 | 5.2 | 0.00 | 0.00 | 0.00 | 58 | 1014.0 |
| 20260903031442 | 71 | 290 | 1.7 | 4.3 | 0.00 | 0.00 | 0.00 | 58 | 1014.1 |
| 20260903031405 | 71 | 250 | 1.7 | 4.3 | 0.00 | 0.00 | 0.00 | 58 | 1014.0 |
| 20260903031342 | 71 | 233 | 1.7 | 4.3 | 0.00 | 0.00 | 0.00 | 58 | 1014.0 |
| 20260903031240 | 71 | 228 | 0.9 | 4.3 | 0.00 | 0.00 | 0.00 | 58 | 1014.0 |
| 20260903031140 | 71 | 257 | 0.9 | 3.5 | 0.00 | 0.00 | 0.00 | 57 | 1014.1 |
| 20260903031040 | 71 | 230 | 0.9 | 5.2 | 0.00 | 0.00 | 0.00 | 57 | 1014.0 |
| 20260903030940 | 71 | 246 | 0.9 | 5.2 | 0.00 | 0.00 | 0.00 | 57 | 1014.0 |
| 20260903030905 | 71 | 248 | 1.7 | 5.2 | 0.00 | 0.00 | 0.00 | 57 | 1014.0 |
| 20260903030840 | 71 | 246 | 1.7 | 5.2 | 0.00 | 0.00 | 0.00 | 57 | 1014.0 |
| 20260903030740 | 71 | 235 | 1.7 | 5.2 | 0.00 | 0.00 | 0.00 | 57 | 1014.0 |
| 20260903030642 | 71 | 266 | 1.7 | 5.2 | 0.00 | 0.00 | 0.00 | 56 | 1014.0 |
| 20260903030637 | 71 | 233 | 1.7 | 5.2 | 0.00 | 0.00 | 0.00 | 57 | 1014.0 |
| 20260903030535 | 71 | 239 | 1.7 | 5.2 | 0.00 | 0.00 | 0.00 | 56 | 1014.0 |
| 20260903030527 | 71 | 266 | 1.7 | 5.2 | 0.00 | 0.00 | 0.00 | 56 | 1014.0 |
| 20260903030335 | 71 | 286 | 1.7 | 5.2 | 0.00 | 0.00 | 0.00 | 56 | 1014.0 |
| 20260903030234 | 71 | 240 | 1.7 | 5.2 | 0.00 | 0.00 | 0.00 | 56 | 1014.0 |
| 20260903030217 | 72 | 287 | 0.9 | 6.1 | 0.00 | 0.00 | 0.00 | 55 | 1014.0 |
| 20260903030212 | 72 | 216 | 0.9 | 3.5 | 0.00 | 0.00 | 0.00 | 55 | 1014.0 |
| 20260903030209 | 71 | 243 | 1.7 | 5.2 | 0.00 | 0.00 | 0.00 | 56 | 1014.0 |
| 20260903030200 | 71 | 233 | 1.7 | 5.2 | 0.00 | 0.00 | 0.00 | 56 | 1014.0 |
| 20260903030152 | 71 | 235 | 1.7 | 6.1 | 0.00 | 0.00 | 0.00 | 56 | 1014.0 |
| 20260903030142 | 71 | 232 | 1.7 | 6.1 | 0.00 | 0.00 | 0.00 | 56 | 1014.0 |
| 20260903030136 | 71 | 252 | 1.7 | 6.1 | 0.00 | 0.00 | 0.00 | 56 | 1014.0 |
| 20260903030127 | 71 | 235 | 1.7 | 6.1 | 0.00 | 0.00 | 0.00 | 55 | 1014.0 |
| 20260903030119 | 72 | 253 | 1.7 | 6.1 | 0.00 | 0.00 | 0.00 | 55 | 1014.0 |
| 20260903030107 | 72 | 262 | 1.7 | 6.1 | 0.00 | 0.00 | 0.00 | 55 | 1014.0 |
| 20260903030057 | 72 | 238 | 1.7 | 6.1 | 0.00 | 0.00 | 0.00 | 55 | 1014.1 |
| 20260903030046 | 72 | 238 | 0.9 | 6.1 | 0.00 | 0.00 | 0.00 | 55 | 1014.0 |
| 20260903030028 | 72 | 315 | 0.9 | 6.1 | 0.00 | 0.00 | 0.00 | 55 | 1014.0 |
| 20260903030020 | 72 | 245 | 0.9 | 6.1 | 0.00 | 0.00 | 0.00 | 55 | 1014.1 |
| 20260903030011 | 72 | 236 | 0.9 | 6.1 | 0.00 | 0.00 | 0.00 | 55 | 1014.0 |
| 20260903025012 | 72 | 274 | 0.9 | 3.5 | 0.00 | 0.00 | 0.00 | 55 | 1014.1 |
| 20260903024830 | 72 | 219 | 0.9 | 3.5 | 0.00 | 0.00 | 0.00 | 55 | 1014.0 |
| 20260903024729 | 72 | 242 | 0.9 | 4.3 | 0.00 | 0.00 | 0.00 | 54 | 1014.0 |
| 20260903024629 | 72 | 233 | 0.9 | 5.2 | 0.00 | 0.00 | 0.00 | 54 | 1014.1 |
| 20260903024528 | 72 | 210 | 0.9 | 5.2 | 0.00 | 0.00 | 0.00 | 54 | 1014.1 |
| 20260903024428 | 72 | 253 | 0.9 | 5.2 | 0.00 | 0.00 | 0.00 | 54 | 1014.0 |
| 20260903024402 | 72 | 252 | 0.9 | 5.2 | 0.00 | 0.00 | 0.00 | 54 | 1014.0 |
| 20260903024326 | 72 | 300 | 0.9 | 5.2 | 0.00 | 0.00 | 0.00 | 54 | 1014.0 |
| 20260903024226 | 72 | 300 | 1.7 | 7.0 | 0.00 | 0.00 | 0.00 | 54 | 1014.1 |
| 20260903024131 | 72 | 260 | 1.7 | 7.0 | 0.00 | 0.00 | 0.00 | 54 | 1014.0 |
| 20260903024024 | 72 | 244 | 1.7 | 7.0 | 0.00 | 0.00 | 0.00 | 54 | 1014.0 |
| 20260903023925 | 72 | 194 | 1.7 | 7.0 | 0.00 | 0.00 | 0.00 | 54 | 1014.0 |
| 20260903023859 | 72 | 250 | 1.7 | 7.0 | 0.00 | 0.00 | 0.00 | 54 | 1014.1 |
| 20260903023848 | 72 | 47 | 1.7 | 7.0 | 0.00 | 0.00 | 0.00 | 53 | 1014.1 |
| 20260903023825 | 72 | 266 | 1.7 | 7.0 | 0.00 | 0.00 | 0.00 | 54 | 1014.1 |
| 20260903023734 | 72 | 246 | 1.7 | 7.0 | 0.00 | 0.00 | 0.00 | 53 | 1014.0 |
| 20260903023618 | 72 | 274 | 1.7 | 7.0 | 0.00 | 0.00 | 0.00 | 53 | 1014.0 |
| 20260903023518 | 72 | 232 | 1.7 | 7.0 | 0.00 | 0.00 | 0.00 | 53 | 1014.0 |
| 20260903023446 | 72 | 252 | 1.7 | 7.0 | 0.00 | 0.00 | 0.00 | 53 | 1014.1 |
| 20260903023401 | 72 | 47 | 1.7 | 7.0 | 0.00 | 0.00 | 0.00 | 53 | 1014.1 |
| 20260903023318 | 72 | 273 | 1.7 | 7.0 | 0.00 | 0.00 | 0.00 | 53 | 1014.1 |
| 20260903023218 | 72 | 225 | 1.7 | 4.3 | 0.00 | 0.00 | 0.00 | 53 | 1014.1 |
| 20260903023119 | 72 | 243 | 1.7 | 4.3 | 0.00 | 0.00 | 0.00 | 53 | 1014.0 |
| 20260903023018 | 73 | 249 | 1.7 | 7.0 | 0.00 | 0.00 | 0.00 | 53 | 1014.0 |
| 20260903022918 | 73 | 278 | 1.7 | 7.0 | 0.00 | 0.00 | 0.00 | 53 | 1014.1 |
| 20260903022857 | 73 | 246 | 1.7 | 7.0 | 0.00 | 0.00 | 0.00 | 53 | 1014.1 |
| 20260903022818 | 73 | 245 | 1.7 | 7.0 | 0.00 | 0.00 | 0.00 | 53 | 1014.1 |
| 20260903022718 | 73 | 270 | 1.7 | 7.0 | 0.00 | 0.00 | 0.00 | 53 | 1014.0 |
| 20260903022619 | 73 | 221 | 1.7 | 7.0 | 0.00 | 0.00 | 0.00 | 53 | 1014.1 |
| 20260903022512 | 73 | 245 | 1.7 | 7.0 | 0.00 | 0.00 | 0.00 | 53 | 1014.0 |
| 20260903022413 | 73 | 226 | 1.7 | 7.0 | 0.00 | 0.00 | 0.00 | 53 | 1014.1 |
| 20260903022357 | 73 | 226 | 1.7 | 7.0 | 0.00 | 0.00 | 0.00 | 53 | 1014.1 |
| 20260903022312 | 73 | 262 | 1.7 | 7.0 | 0.00 | 0.00 | 0.00 | 53 | 1014.1 |
| 20260903022212 | 73 | 237 | 1.7 | 7.0 | 0.00 | 0.00 | 0.00 | 53 | 1014.1 |
| 20260903022113 | 73 | 226 | 0.9 | 7.0 | 0.00 | 0.00 | 0.00 | 53 | 1014.1 |
| 20260903022012 | 73 | 274 | 0.9 | 5.2 | 0.00 | 0.00 | 0.00 | 53 | 1014.1 |
| 20260903022003 | 73 | 225 | 1.7 | 5.2 | 0.00 | 0.00 | 0.00 | 53 | 1014.1 |
| 20260903021959 | 73 | 262 | 1.7 | 4.3 | 0.00 | 0.00 | 0.00 | 53 | 1014.1 |
| 20260903021949 | 73 | 228 | 1.7 | 4.3 | 0.00 | 0.00 | 0.00 | 53 | 1014.1 |
| 20260903021828 | 73 | 225 | 1.7 | 5.2 | 0.00 | 0.00 | 0.00 | 53 | 1014.1 |
| 20260903021723 | 73 | 226 | 0.9 | 5.2 | 0.00 | 0.00 | 0.00 | 53 | 1014.1 |
| 20260903021612 | 73 | 294 | 0.9 | 5.2 | 0.00 | 0.00 | 0.00 | 52 | 1014.1 |
| 20260903021511 | 73 | 224 | 0.9 | 5.2 | 0.00 | 0.00 | 0.00 | 52 | 1014.1 |
| 20260903021409 | 73 | 260 | 0.9 | 5.2 | 0.00 | 0.00 | 0.00 | 52 | 1014.1 |
| 20260903021355 | 73 | 243 | 0.9 | 5.2 | 0.00 | 0.00 | 0.00 | 52 | 1014.1 |
| 20260903021308 | 73 | 245 | 0.9 | 5.2 | 0.00 | 0.00 | 0.00 | 53 | 1014.1 |
| 20260903021208 | 73 | 256 | 0.9 | 5.2 | 0.00 | 0.00 | 0.00 | 52 | 1014.1 |
| 20260903021109 | 73 | 211 | 0.9 | 5.2 | 0.00 | 0.00 | 0.00 | 52 | 1014.2 |
| 20260903021008 | 73 | 243 | 0.9 | 5.2 | 0.00 | 0.00 | 0.00 | 52 | 1014.2 |
| 20260903020910 | 73 | 243 | 0.9 | 5.2 | 0.00 | 0.00 | 0.00 | 52 | 1014.2 |
| 20260903020902 | 74 | 217 | 3.5 | 8.7 | 0.00 | 0.00 | 0.00 | 53 | 1014.2 |
| 20260903020855 | 73 | 229 | 0.9 | 5.2 | 0.00 | 0.00 | 0.00 | 52 | 1014.2 |
| 20260903020804 | 73 | 218 | 0.9 | 3.5 | 0.00 | 0.00 | 0.00 | 52 | 1014.1 |
| 20260903020752 | 74 | 232 | 2.6 | 7.8 | 0.00 | 0.00 | 0.00 | 53 | 1014.2 |
| 20260903020747 | 73 | 246 | 0.9 | 3.5 | 0.00 | 0.00 | 0.00 | 52 | 1014.1 |
| 20260903020634 | 73 | 231 | 0.9 | 3.5 | 0.00 | 0.00 | 0.00 | 52 | 1014.2 |
| 20260903020518 | 73 | 235 | 0.9 | 3.5 | 0.00 | 0.00 | 0.00 | 53 | 1014.2 |
| 20260903020509 | 74 | 218 | 0.9 | 5.2 | 0.00 | 0.00 | 0.00 | 53 | 1014.1 |
| 20260903020458 | 74 | 198 | 0.9 | 5.2 | 0.00 | 0.00 | 0.00 | 53 | 1014.1 |
| 20260903020349 | 74 | 291 | 1.7 | 6.1 | 0.00 | 0.00 | 0.00 | 52 | 1014.1 |
| 20260903020340 | 74 | 291 | 1.7 | 6.1 | 0.00 | 0.00 | 0.00 | 52 | 1014.2 |
| 20260903020332 | 74 | 291 | 2.6 | 6.1 | 0.00 | 0.00 | 0.00 | 53 | 1014.2 |
| 20260903020323 | 74 | 245 | 2.6 | 7.8 | 0.00 | 0.00 | 0.00 | 53 | 1014.2 |
| 20260903020315 | 74 | 232 | 2.6 | 7.8 | 0.00 | 0.00 | 0.00 | 53 | 1014.2 |
| 20260903015805 | 74 | 232 | 2.6 | 7.8 | 0.00 | 0.00 | 0.00 | 53 | 1014.2 |
| 20260903015733 | 74 | 207 | 3.5 | 7.8 | 0.00 | 0.00 | 0.00 | 53 | 1014.2 |
| 20260903015604 | 74 | 232 | 3.5 | 7.8 | 0.00 | 0.00 | 0.00 | 53 | 1014.2 |
| 20260903015511 | 74 | 263 | 3.5 | 7.8 | 0.00 | 0.00 | 0.00 | 53 | 1014.2 |
| 20260903015502 | 74 | 219 | 3.5 | 8.7 | 0.00 | 0.00 | 0.00 | 53 | 1014.2 |
| 20260903015305 | 74 | 191 | 3.5 | 8.7 | 0.00 | 0.00 | 0.00 | 53 | 1014.2 |
| 20260903015206 | 74 | 241 | 3.5 | 8.7 | 0.00 | 0.00 | 0.00 | 53 | 1014.2 |
| 20260903015111 | 74 | 248 | 3.5 | 8.7 | 0.00 | 0.00 | 0.00 | 54 | 1014.2 |
| 20260903015105 | 74 | 253 | 3.5 | 8.7 | 0.00 | 0.00 | 0.00 | 53 | 1014.3 |
| 20260903015011 | 74 | 259 | 3.5 | 8.7 | 0.00 | 0.00 | 0.00 | 54 | 1014.2 |
| 20260903015002 | 74 | 225 | 3.5 | 8.7 | 0.00 | 0.00 | 0.00 | 54 | 1014.2 |
| 20260903014758 | 74 | 245 | 3.5 | 8.7 | 0.00 | 0.00 | 0.00 | 54 | 1014.2 |
| 20260903014658 | 74 | 267 | 3.5 | 8.7 | 0.00 | 0.00 | 0.00 | 55 | 1014.3 |
| 20260903014618 | 74 | 212 | 2.6 | 8.7 | 0.00 | 0.00 | 0.00 | 55 | 1014.3 |
| 20260903014604 | 74 | 240 | 3.5 | 8.7 | 0.00 | 0.00 | 0.00 | 55 | 1014.3 |
| 20260903014511 | 74 | 222 | 2.6 | 8.7 | 0.00 | 0.00 | 0.00 | 55 | 1014.2 |
| 20260903014502 | 74 | 233 | 2.6 | 8.7 | 0.00 | 0.00 | 0.00 | 55 | 1014.3 |
| 20260903014311 | 74 | 246 | 1.7 | 8.7 | 0.00 | 0.00 | 0.00 | 55 | 1014.3 |
| 20260903014307 | 74 | 246 | 1.7 | 8.7 | 0.00 | 0.00 | 0.00 | 55 | 1014.3 |
| 20260903014054 | 74 | 222 | 1.7 | 8.7 | 0.00 | 0.00 | 0.00 | 55 | 1014.3 |
| 20260903013954 | 74 | 211 | 1.7 | 8.7 | 0.00 | 0.00 | 0.00 | 55 | 1014.3 |
| 20260903013856 | 74 | 232 | 1.7 | 5.2 | 0.00 | 0.00 | 0.00 | 55 | 1014.3 |
| 20260903013819 | 74 | 222 | 1.7 | 6.1 | 0.00 | 0.00 | 0.00 | 55 | 1014.3 |
| 20260903013814 | 74 | 295 | 1.7 | 6.1 | 0.00 | 0.00 | 0.00 | 55 | 1014.3 |
| 20260903013810 | 74 | 239 | 0.9 | 6.1 | 0.00 | 0.00 | 0.00 | 55 | 1014.3 |
| 20260903013452 | 74 | 238 | 2.6 | 7.0 | 0.00 | 0.00 | 0.00 | 55 | 1014.3 |
| 20260903013353 | 74 | 284 | 2.6 | 7.8 | 0.00 | 0.00 | 0.00 | 55 | 1014.3 |
| 20260903013252 | 74 | 221 | 2.6 | 7.8 | 0.00 | 0.00 | 0.00 | 54 | 1014.3 |
| 20260903013153 | 74 | 268 | 2.6 | 7.8 | 0.00 | 0.00 | 0.00 | 54 | 1014.4 |
| 20260903013052 | 74 | 273 | 2.6 | 7.8 | 0.00 | 0.00 | 0.00 | 55 | 1014.3 |
| 20260903012952 | 74 | 250 | 3.5 | 7.8 | 0.00 | 0.00 | 0.00 | 55 | 1014.3 |
| 20260903012854 | 74 | 248 | 3.5 | 7.8 | 0.00 | 0.00 | 0.00 | 55 | 1014.3 |
| 20260903012752 | 74 | 232 | 2.6 | 7.8 | 0.00 | 0.00 | 0.00 | 55 | 1014.3 |
| 20260903012652 | 74 | 225 | 2.6 | 7.8 | 0.00 | 0.00 | 0.00 | 55 | 1014.3 |
| 20260903012552 | 74 | 212 | 2.6 | 7.8 | 0.00 | 0.00 | 0.00 | 54 | 1014.3 |
| 20260903012453 | 75 | 190 | 2.6 | 7.8 | 0.00 | 0.00 | 0.00 | 54 | 1014.3 |
| 20260903012354 | 75 | 259 | 2.6 | 7.8 | 0.00 | 0.00 | 0.00 | 54 | 1014.3 |
| 20260903012251 | 75 | 257 | 1.7 | 7.8 | 0.00 | 0.00 | 0.00 | 54 | 1014.3 |
| 20260903012151 | 75 | 231 | 1.7 | 7.8 | 0.00 | 0.00 | 0.00 | 55 | 1014.3 |
| 20260903012050 | 75 | 281 | 1.7 | 7.8 | 0.00 | 0.00 | 0.00 | 54 | 1014.3 |
| 20260903011950 | 75 | 256 | 1.7 | 7.8 | 0.00 | 0.00 | 0.00 | 54 | 1014.3 |
| 20260903011852 | 75 | 271 | 0.9 | 7.0 | 0.00 | 0.00 | 0.00 | 55 | 1014.3 |
| 20260903011828 | 75 | 235 | 1.7 | 7.8 | 0.00 | 0.00 | 0.00 | 55 | 1014.3 |
| 20260903011750 | 75 | 278 | 1.7 | 7.0 | 0.00 | 0.00 | 0.00 | 55 | 1014.3 |
| 20260903011719 | 75 | 243 | 1.7 | 7.0 | 0.00 | 0.00 | 0.00 | 55 | 1014.3 |
| 20260903011550 | 75 | 228 | 1.7 | 7.0 | 0.00 | 0.00 | 0.00 | 55 | 1014.3 |
| 20260903011504 | 75 | 296 | 1.7 | 7.8 | 0.00 | 0.00 | 0.00 | 55 | 1014.3 |
| 20260903011454 | 75 | 235 | 1.7 | 7.8 | 0.00 | 0.00 | 0.00 | 55 | 1014.3 |
| 20260903011318 | 75 | 280 | 2.6 | 7.8 | 0.00 | 0.00 | 0.00 | 55 | 1014.3 |
| 20260903011147 | 75 | 253 | 2.6 | 7.8 | 0.00 | 0.00 | 0.00 | 55 | 1014.3 |
| 20260903011046 | 75 | 203 | 3.5 | 7.8 | 0.00 | 0.00 | 0.00 | 56 | 1014.3 |
| 20260903010946 | 75 | 233 | 3.5 | 7.8 | 0.00 | 0.00 | 0.00 | 55 | 1014.3 |
| 20260903010846 | 75 | 250 | 3.5 | 7.8 | 0.00 | 0.00 | 0.00 | 55 | 1014.4 |
| 20260903010747 | 75 | 208 | 3.5 | 7.8 | 0.00 | 0.00 | 0.00 | 55 | 1014.4 |
| 20260903010647 | 75 | 217 | 2.6 | 7.8 | 0.00 | 0.00 | 0.00 | 55 | 1014.4 |
| 20260903010546 | 75 | 239 | 2.6 | 7.8 | 0.00 | 0.00 | 0.00 | 55 | 1014.4 |
| 20260903010447 | 75 | 230 | 2.6 | 7.8 | 0.00 | 0.00 | 0.00 | 56 | 1014.3 |
| 20260903010352 | 75 | 229 | 2.6 | 7.8 | 0.00 | 0.00 | 0.00 | 55 | 1014.4 |
| 20260903010347 | 75 | 210 | 2.6 | 7.8 | 0.00 | 0.00 | 0.00 | 55 | 1014.4 |
| 20260903010246 | 75 | 246 | 2.6 | 7.8 | 0.00 | 0.00 | 0.00 | 55 | 1014.4 |
| 20260903010148 | 75 | 239 | 1.7 | 7.8 | 0.00 | 0.00 | 0.00 | 55 | 1014.4 |
| 20260903010042 | 75 | 225 | 1.7 | 7.8 | 0.00 | 0.00 | 0.00 | 55 | 1014.4 |
| 20260903005942 | 76 | 257 | 1.7 | 5.2 | 0.00 | 0.00 | 0.00 | 55 | 1014.4 |
| 20260903005848 | 76 | 230 | 1.7 | 5.2 | 0.00 | 0.00 | 0.00 | 55 | 1014.4 |
| 20260903005842 | 76 | 229 | 1.7 | 5.2 | 0.00 | 0.00 | 0.00 | 55 | 1014.4 |
| 20260903005743 | 76 | 250 | 1.7 | 6.1 | 0.00 | 0.00 | 0.00 | 55 | 1014.4 |
| 20260903005642 | 76 | 250 | 1.7 | 6.1 | 0.00 | 0.00 | 0.00 | 55 | 1014.4 |
| 20260903005540 | 76 | 228 | 1.7 | 6.1 | 0.00 | 0.00 | 0.00 | 55 | 1014.4 |
| 20260903005456 | 76 | 231 | 1.7 | 6.1 | 0.00 | 0.00 | 0.00 | 56 | 1014.4 |
| 20260903005345 | 76 | 225 | 1.7 | 6.1 | 0.00 | 0.00 | 0.00 | 55 | 1014.4 |
| 20260903005340 | 76 | 238 | 1.7 | 6.1 | 0.00 | 0.00 | 0.00 | 55 | 1014.4 |
| 20260903005240 | 76 | 207 | 2.6 | 6.1 | 0.00 | 0.00 | 0.00 | 55 | 1014.4 |
| 20260903005140 | 76 | 235 | 1.7 | 6.1 | 0.00 | 0.00 | 0.00 | 55 | 1014.4 |
| 20260903005103 | 76 | 241 | 1.7 | 6.1 | 0.00 | 0.00 | 0.00 | 55 | 1014.5 |
| 20260903005040 | 76 | 241 | 2.6 | 6.1 | 0.00 | 0.00 | 0.00 | 55 | 1014.4 |
| 20260903004957 | 76 | 231 | 1.7 | 6.1 | 0.00 | 0.00 | 0.00 | 55 | 1014.4 |
| 20260903004840 | 76 | 250 | 1.7 | 6.1 | 0.00 | 0.00 | 0.00 | 55 | 1014.5 |
| 20260903004741 | 76 | 228 | 1.7 | 6.1 | 0.00 | 0.00 | 0.00 | 55 | 1014.5 |
| 20260903004640 | 76 | 239 | 1.7 | 6.1 | 0.00 | 0.00 | 0.00 | 55 | 1014.4 |
| 20260903004541 | 76 | 224 | 1.7 | 6.1 | 0.00 | 0.00 | 0.00 | 55 | 1014.4 |
| 20260903004442 | 76 | 221 | 1.7 | 6.1 | 0.00 | 0.00 | 0.00 | 56 | 1014.4 |
| 20260903004346 | 76 | 246 | 1.7 | 4.3 | 0.00 | 0.00 | 0.00 | 56 | 1014.4 |
| 20260903004341 | 76 | 228 | 1.7 | 4.3 | 0.00 | 0.00 | 0.00 | 56 | 1014.4 |
| 20260903004238 | 76 | 262 | 0.9 | 4.3 | 0.00 | 0.00 | 0.00 | 56 | 1014.4 |
| 20260903004138 | 76 | 286 | 0.9 | 4.3 | 0.00 | 0.00 | 0.00 | 56 | 1014.4 |
| 20260903004038 | 76 | 238 | 0.9 | 4.3 | 0.00 | 0.00 | 0.00 | 56 | 1014.4 |
| 20260903003938 | 76 | 239 | 0.9 | 5.2 | 0.00 | 0.00 | 0.00 | 56 | 1014.4 |
| 20260903003845 | 76 | 236 | 0.9 | 5.2 | 0.00 | 0.00 | 0.00 | 56 | 1014.5 |
| 20260903003838 | 76 | 232 | 0.9 | 5.2 | 0.00 | 0.00 | 0.00 | 56 | 1014.5 |
| 20260903003739 | 76 | 233 | 0.9 | 5.2 | 0.00 | 0.00 | 0.00 | 56 | 1014.5 |
| 20260903003638 | 76 | 210 | 0.9 | 5.2 | 0.00 | 0.00 | 0.00 | 56 | 1014.4 |
| 20260903003605 | 76 | 204 | 1.7 | 7.0 | 0.00 | 0.00 | 0.00 | 56 | 1014.4 |
| 20260903003538 | 76 | 274 | 1.7 | 5.2 | 0.00 | 0.00 | 0.00 | 56 | 1014.5 |
| 20260903003456 | 76 | 249 | 1.7 | 7.0 | 0.00 | 0.00 | 0.00 | 56 | 1014.4 |
| 20260903003337 | 76 | 204 | 1.7 | 7.0 | 0.00 | 0.00 | 0.00 | 56 | 1014.4 |
| 20260903003238 | 76 | 253 | 1.7 | 7.0 | 0.00 | 0.00 | 0.00 | 55 | 1014.4 |
| 20260903003139 | 76 | 231 | 1.7 | 7.0 | 0.00 | 0.00 | 0.00 | 56 | 1014.5 |
| 20260903003039 | 76 | 295 | 1.7 | 7.0 | 0.00 | 0.00 | 0.00 | 56 | 1014.5 |
| 20260903002935 | 76 | 236 | 1.7 | 7.0 | 0.00 | 0.00 | 0.00 | 56 | 1014.4 |
| 20260903002836 | 76 | 150 | 2.6 | 7.8 | 0.00 | 0.00 | 0.00 | 56 | 1014.5 |
| 20260903002832 | 76 | 270 | 1.7 | 7.0 | 0.00 | 0.00 | 0.00 | 56 | 1014.5 |
| 20260903002732 | 76 | 232 | 2.6 | 7.0 | 0.00 | 0.00 | 0.00 | 56 | 1014.5 |
| 20260903002715 | 76 | 226 | 2.6 | 7.8 | 0.00 | 0.00 | 0.00 | 56 | 1014.5 |
| 20260903002539 | 76 | 239 | 2.6 | 7.8 | 0.00 | 0.00 | 0.00 | 57 | 1014.5 |
| 20260903002534 | 76 | 230 | 2.6 | 7.8 | 0.00 | 0.00 | 0.00 | 56 | 1014.5 |
| 20260903002457 | 76 | 239 | 2.6 | 7.8 | 0.00 | 0.00 | 0.00 | 57 | 1014.5 |
| 20260903002330 | 76 | 151 | 2.6 | 7.8 | 0.00 | 0.00 | 0.00 | 56 | 1014.5 |
| 20260903002230 | 76 | 150 | 2.6 | 7.8 | 0.00 | 0.00 | 0.00 | 56 | 1014.5 |
| 20260903002144 | 76 | 197 | 3.5 | 9.6 | 0.00 | 0.00 | 0.00 | 56 | 1014.5 |
| 20260903002138 | 76 | 198 | 3.5 | 9.6 | 0.00 | 0.00 | 0.00 | 56 | 1014.5 |
| 20260903001929 | 76 | 237 | 2.6 | 9.6 | 0.00 | 0.00 | 0.00 | 56 | 1014.6 |
| 20260903001845 | 76 | 140 | 3.5 | 9.6 | 0.00 | 0.00 | 0.00 | 56 | 1014.6 |
| 20260903001828 | 76 | 208 | 3.5 | 9.6 | 0.00 | 0.00 | 0.00 | 56 | 1014.6 |
| 20260903001728 | 76 | 239 | 3.5 | 9.6 | 0.00 | 0.00 | 0.00 | 55 | 1014.5 |
| 20260903001628 | 76 | 231 | 2.6 | 9.6 | 0.00 | 0.00 | 0.00 | 55 | 1014.6 |
| 20260903001610 | 76 | 255 | 2.6 | 9.6 | 0.00 | 0.00 | 0.00 | 55 | 1014.6 |
| 20260903001535 | 76 | 257 | 2.6 | 9.6 | 0.00 | 0.00 | 0.00 | 55 | 1014.6 |
| 20260903001456 | 76 | 250 | 2.6 | 9.6 | 0.00 | 0.00 | 0.00 | 56 | 1014.6 |
| 20260903001328 | 76 | 256 | 2.6 | 9.6 | 0.00 | 0.00 | 0.00 | 55 | 1014.6 |
| 20260903001228 | 76 | 274 | 2.6 | 9.6 | 0.00 | 0.00 | 0.00 | 55 | 1014.6 |
| 20260903001128 | 76 | 252 | 1.7 | 7.8 | 0.00 | 0.00 | 0.00 | 55 | 1014.6 |
| 20260903001028 | 77 | 242 | 1.7 | 7.8 | 0.00 | 0.00 | 0.00 | 55 | 1014.6 |
| 20260903000928 | 77 | 229 | 1.7 | 7.8 | 0.00 | 0.00 | 0.00 | 54 | 1014.6 |
| 20260903000845 | 77 | 218 | 1.7 | 7.8 | 0.00 | 0.00 | 0.00 | 54 | 1014.6 |
| 20260903000827 | 77 | 236 | 1.7 | 7.8 | 0.00 | 0.00 | 0.00 | 54 | 1014.6 |
| 20260903000728 | 77 | 233 | 1.7 | 7.0 | 0.00 | 0.00 | 0.00 | 55 | 1014.6 |
| 20260903000628 | 77 | 229 | 1.7 | 7.0 | 0.00 | 0.00 | 0.00 | 54 | 1014.6 |
| 20260903000612 | 77 | 344 | 1.7 | 7.8 | 0.00 | 0.00 | 0.00 | 54 | 1014.7 |
| 20260903000524 | 77 | 225 | 2.6 | 7.8 | 0.00 | 0.00 | 0.00 | 54 | 1014.7 |
| 20260903000455 | 77 | 223 | 1.7 | 7.8 | 0.00 | 0.00 | 0.00 | 55 | 1014.7 |
| 20260903000325 | 77 | 345 | 1.7 | 7.8 | 0.00 | 0.00 | 0.00 | 54 | 1014.7 |
| 20260903000226 | 77 | 269 | 1.7 | 7.8 | 0.00 | 0.00 | 0.00 | 55 | 1014.7 |
| 20260903000124 | 77 | 246 | 1.7 | 7.8 | 0.00 | 0.00 | 0.00 | 53 | 1014.7 |
| 20260903000022 | 78 | 102 | 1.7 | 7.8 | 0.00 | 0.00 | 0.00 | 53 | 1014.8 |
| 20260902235928 | 78 | 161 | 1.7 | 7.8 | 0.00 | 0.00 | 0.00 | 53 | 1014.7 |
| 20260902235822 | 78 | 236 | 1.7 | 7.8 | 0.00 | 0.00 | 0.00 | 53 | 1014.7 |
| 20260902235722 | 78 | 218 | 1.7 | 7.8 | 0.00 | 0.00 | 0.00 | 53 | 1014.7 |
| 20260902235623 | 78 | 233 | 0.9 | 7.8 | 0.00 | 0.00 | 0.00 | 53 | 1014.7 |
| 20260902235606 | 78 | 281 | 0.9 | 3.5 | 0.00 | 0.00 | 0.00 | 53 | 1014.7 |
| 20260902235523 | 78 | 235 | 0.9 | 4.3 | 0.00 | 0.00 | 0.00 | 52 | 1014.7 |
| 20260902235500 | 78 | 239 | 0.9 | 3.5 | 0.00 | 0.00 | 0.00 | 53 | 1014.7 |
| 20260902235455 | 78 | 281 | 0.9 | 3.5 | 0.00 | 0.00 | 0.00 | 53 | 1014.7 |
| 20260902235324 | 78 | 239 | 0.9 | 3.5 | 0.00 | 0.00 | 0.00 | 53 | 1014.7 |
| 20260902235216 | 78 | 298 | 0.9 | 3.5 | 0.00 | 0.00 | 0.00 | 53 | 1014.7 |
| 20260902235117 | 78 | 233 | 0.9 | 3.5 | 0.00 | 0.00 | 0.00 | 53 | 1014.7 |
| 20260902235017 | 78 | 217 | 0.0 | 2.6 | 0.00 | 0.00 | 0.00 | 54 | 1014.8 |
| 20260902234916 | 78 | 259 | 0.0 | 2.6 | 0.00 | 0.00 | 0.00 | 53 | 1014.8 |
| 20260902234847 | 78 | 135 | 0.0 | 2.6 | 0.00 | 0.00 | 0.00 | 53 | 1014.8 |
| 20260902234842 | 79 | 276 | 0.9 | 5.2 | 0.00 | 0.00 | 0.00 | 53 | 1014.9 |
| 20260902234816 | 78 | 135 | 0.0 | 2.6 | 0.00 | 0.00 | 0.00 | 53 | 1014.8 |
| 20260902234731 | 78 | 167 | 0.0 | 2.6 | 0.00 | 0.00 | 0.00 | 53 | 1014.8 |
| 20260902234617 | 78 | 166 | 0.0 | 2.6 | 0.00 | 0.00 | 0.00 | 53 | 1014.9 |
| 20260902234516 | 78 | 277 | 0.9 | 4.3 | 0.00 | 0.00 | 0.00 | 52 | 1014.9 |
| 20260902234456 | 79 | 277 | 0.9 | 5.2 | 0.00 | 0.00 | 0.00 | 53 | 1014.9 |
| 20260902234316 | 79 | 280 | 0.9 | 8.7 | 0.00 | 0.00 | 0.00 | 53 | 1014.9 |
| 20260902234216 | 78 | 269 | 1.7 | 8.7 | 0.00 | 0.00 | 0.00 | 53 | 1014.9 |
| 20260902234113 | 78 | 222 | 2.6 | 8.7 | 0.00 | 0.00 | 0.00 | 54 | 1014.9 |
| 20260902234012 | 78 | 225 | 2.6 | 8.7 | 0.00 | 0.00 | 0.00 | 54 | 1014.8 |
| 20260902233913 | 78 | 225 | 2.6 | 8.7 | 0.00 | 0.00 | 0.00 | 54 | 1014.7 |
| 20260902233847 | 78 | 225 | 2.6 | 8.7 | 0.00 | 0.00 | 0.00 | 53 | 1014.7 |
| 20260902233813 | 78 | 225 | 2.6 | 8.7 | 0.00 | 0.00 | 0.00 | 53 | 1014.9 |
| 20260902233712 | 78 | 224 | 2.6 | 8.7 | 0.00 | 0.00 | 0.00 | 52 | 1014.9 |
| 20260902233614 | 78 | 222 | 2.6 | 8.7 | 0.00 | 0.00 | 0.00 | 52 | 1014.9 |
| 20260902233513 | 78 | 239 | 1.7 | 8.7 | 0.00 | 0.00 | 0.00 | 52 | 1014.9 |
| 20260902233412 | 78 | 208 | 1.7 | 8.7 | 0.00 | 0.00 | 0.00 | 52 | 1014.9 |
| 20260902233345 | 79 | 204 | 1.7 | 8.7 | 0.00 | 0.00 | 0.00 | 52 | 1014.9 |
| 20260902233312 | 79 | 219 | 0.9 | 7.8 | 0.00 | 0.00 | 0.00 | 52 | 1014.8 |
| 20260902233212 | 79 | 212 | 0.9 | 7.0 | 0.00 | 0.00 | 0.00 | 53 | 1014.8 |
| 20260902233125 | 78 | 260 | 0.9 | 3.5 | 0.00 | 0.00 | 0.00 | 53 | 1014.7 |
| 20260902233122 | 79 | 211 | 0.9 | 3.5 | 0.00 | 0.00 | 0.00 | 53 | 1014.8 |
| 20260902232913 | 78 | 300 | 0.9 | 5.2 | 0.00 | 0.00 | 0.00 | 53 | 1014.9 |
| 20260902232845 | 78 | 300 | 0.9 | 5.2 | 0.00 | 0.00 | 0.00 | 54 | 1014.9 |
| 20260902232812 | 78 | 242 | 0.9 | 5.2 | 0.00 | 0.00 | 0.00 | 54 | 1014.8 |
| 20260902232712 | 78 | 235 | 0.9 | 6.1 | 0.00 | 0.00 | 0.00 | 54 | 1014.9 |
| 20260902232615 | 78 | 215 | 0.9 | 6.1 | 0.00 | 0.00 | 0.00 | 53 | 1014.8 |
| 20260902232607 | 78 | 326 | 1.7 | 6.1 | 0.00 | 0.00 | 0.00 | 54 | 1014.9 |
| 20260902232600 | 78 | 326 | 1.7 | 6.1 | 0.00 | 0.00 | 0.00 | 53 | 1014.8 |
| 20260902232419 | 78 | 326 | 1.7 | 6.1 | 0.00 | 0.00 | 0.00 | 54 | 1014.8 |
| 20260902232313 | 78 | 326 | 1.7 | 6.1 | 0.00 | 0.00 | 0.00 | 54 | 1014.9 |
| 20260902232243 | 78 | 225 | 1.7 | 6.1 | 0.00 | 0.00 | 0.00 | 54 | 1014.9 |
| 20260902232124 | 78 | 253 | 1.7 | 6.1 | 0.00 | 0.00 | 0.00 | 53 | 1014.9 |
| 20260902232120 | 78 | 225 | 1.7 | 6.1 | 0.00 | 0.00 | 0.00 | 53 | 1014.9 |
| 20260902231910 | 78 | 231 | 0.9 | 6.1 | 0.00 | 0.00 | 0.00 | 54 | 1014.9 |
| 20260902231843 | 78 | 250 | 0.9 | 6.1 | 0.00 | 0.00 | 0.00 | 54 | 1014.9 |
| 20260902231809 | 78 | 248 | 0.9 | 6.1 | 0.00 | 0.00 | 0.00 | 53 | 1014.9 |
| 20260902231710 | 78 | 284 | 0.9 | 4.3 | 0.00 | 0.00 | 0.00 | 54 | 1014.9 |
| 20260902231611 | 78 | 256 | 0.9 | 4.3 | 0.00 | 0.00 | 0.00 | 53 | 1014.9 |
| 20260902231531 | 78 | 263 | 0.9 | 4.3 | 0.00 | 0.00 | 0.00 | 54 | 1014.9 |
| 20260902231411 | 78 | 214 | 0.9 | 3.5 | 0.00 | 0.00 | 0.00 | 54 | 1015.0 |
| 20260902231343 | 78 | 326 | 0.9 | 3.5 | 0.00 | 0.00 | 0.00 | 54 | 1015.0 |
| 20260902231310 | 78 | 328 | 0.9 | 3.5 | 0.00 | 0.00 | 0.00 | 54 | 1014.9 |
| 20260902231208 | 78 | 48 | 0.9 | 2.6 | 0.00 | 0.00 | 0.00 | 54 | 1014.9 |
| 20260902231108 | 78 | 358 | 0.9 | 2.6 | 0.00 | 0.00 | 0.00 | 54 | 1014.9 |
| 20260902231002 | 78 | 1 | 0.9 | 2.6 | 0.00 | 0.00 | 0.00 | 54 | 1014.9 |
| 20260902230842 | 78 | 1 | 0.9 | 3.5 | 0.00 | 0.00 | 0.00 | 53 | 1014.9 |
| 20260902230802 | 78 | 4 | 0.9 | 3.5 | 0.00 | 0.00 | 0.00 | 53 | 1015.0 |
| 20260902230702 | 78 | 231 | 0.9 | 3.5 | 0.00 | 0.00 | 0.00 | 54 | 1015.0 |
| 20260902230604 | 78 | 230 | 0.9 | 3.5 | 0.00 | 0.00 | 0.00 | 53 | 1015.0 |
| 20260902230500 | 78 | 318 | 0.9 | 3.5 | 0.00 | 0.00 | 0.00 | 53 | 1015.0 |
| 20260902230405 | 79 | 221 | 1.7 | 3.5 | 0.00 | 0.00 | 0.00 | 53 | 1015.0 |
| 20260902230354 | 79 | 221 | 1.7 | 5.2 | 0.00 | 0.00 | 0.00 | 53 | 1015.0 |
| 20260902230300 | 79 | 250 | 1.7 | 7.0 | 0.00 | 0.00 | 0.00 | 53 | 1015.1 |
| 20260902230247 | 79 | 241 | 1.7 | 7.0 | 0.00 | 0.00 | 0.00 | 53 | 1015.1 |
| 20260902230212 | 79 | 250 | 1.7 | 7.0 | 0.00 | 0.00 | 0.00 | 53 | 1015.1 |
| 20260902230001 | 79 | 263 | 1.7 | 7.0 | 0.00 | 0.00 | 0.00 | 53 | 1015.1 |
| 20260902225841 | 79 | 354 | 1.7 | 7.0 | 0.00 | 0.00 | 0.00 | 53 | 1015.1 |
| 20260902225756 | 79 | 354 | 1.7 | 7.0 | 0.00 | 0.00 | 0.00 | 52 | 1015.1 |
| 20260902225656 | 79 | 240 | 1.7 | 7.0 | 0.00 | 0.00 | 0.00 | 53 | 1015.1 |
| 20260902225609 | 79 | 233 | 1.7 | 7.0 | 0.00 | 0.00 | 0.00 | 52 | 1015.1 |
| 20260902225601 | 79 | 229 | 1.7 | 7.0 | 0.00 | 0.00 | 0.00 | 52 | 1015.1 |
| 20260902225458 | 79 | 222 | 2.6 | 7.0 | 0.00 | 0.00 | 0.00 | 52 | 1015.1 |
| 20260902225450 | 79 | 193 | 1.7 | 7.0 | 0.00 | 0.00 | 0.00 | 52 | 1015.1 |
| 20260902225254 | 79 | 240 | 1.7 | 6.1 | 0.00 | 0.00 | 0.00 | 53 | 1015.2 |
| 20260902225154 | 79 | 243 | 1.7 | 5.2 | 0.00 | 0.00 | 0.00 | 53 | 1015.1 |
| 20260902225054 | 79 | 243 | 1.7 | 5.2 | 0.00 | 0.00 | 0.00 | 54 | 1015.1 |
| 20260902224954 | 79 | 308 | 1.7 | 7.0 | 0.00 | 0.00 | 0.00 | 53 | 1015.1 |
| 20260902224840 | 79 | 238 | 1.7 | 7.8 | 0.00 | 0.00 | 0.00 | 53 | 1015.1 |
| 20260902224754 | 79 | 238 | 1.7 | 7.8 | 0.00 | 0.00 | 0.00 | 54 | 1015.2 |
| 20260902224655 | 79 | 259 | 1.7 | 7.8 | 0.00 | 0.00 | 0.00 | 53 | 1015.2 |
| 20260902224550 | 79 | 235 | 1.7 | 7.8 | 0.00 | 0.00 | 0.00 | 53 | 1015.2 |
| 20260902224450 | 78 | 232 | 1.7 | 7.8 | 0.00 | 0.00 | 0.00 | 54 | 1015.2 |
| 20260902224357 | 78 | 250 | 1.7 | 7.8 | 0.00 | 0.00 | 0.00 | 54 | 1015.2 |
| 20260902224250 | 78 | 250 | 2.6 | 7.8 | 0.00 | 0.00 | 0.00 | 54 | 1015.2 |
| 20260902224151 | 78 | 250 | 2.6 | 7.8 | 0.00 | 0.00 | 0.00 | 54 | 1015.2 |
| 20260902224049 | 78 | 259 | 2.6 | 7.8 | 0.00 | 0.00 | 0.00 | 53 | 1015.3 |
| 20260902223948 | 78 | 235 | 2.6 | 7.8 | 0.00 | 0.00 | 0.00 | 53 | 1015.2 |
| 20260902223848 | 78 | 160 | 1.7 | 7.0 | 0.00 | 0.00 | 0.00 | 54 | 1015.2 |
| 20260902223837 | 78 | 158 | 1.7 | 7.0 | 0.00 | 0.00 | 0.00 | 54 | 1015.2 |
| 20260902223749 | 78 | 187 | 1.7 | 7.0 | 0.00 | 0.00 | 0.00 | 54 | 1015.2 |
| 20260902223648 | 78 | 248 | 2.6 | 7.0 | 0.00 | 0.00 | 0.00 | 54 | 1015.3 |
| 20260902223548 | 78 | 236 | 2.6 | 7.0 | 0.00 | 0.00 | 0.00 | 55 | 1015.2 |
| 20260902223448 | 78 | 242 | 2.6 | 7.0 | 0.00 | 0.00 | 0.00 | 54 | 1015.3 |
| 20260902223347 | 78 | 241 | 2.6 | 7.0 | 0.00 | 0.00 | 0.00 | 54 | 1015.3 |
| 20260902223337 | 78 | 239 | 2.6 | 7.0 | 0.00 | 0.00 | 0.00 | 54 | 1015.3 |
| 20260902223243 | 78 | 134 | 2.6 | 7.0 | 0.00 | 0.00 | 0.00 | 53 | 1015.3 |
| 20260902223143 | 78 | 236 | 2.6 | 7.0 | 0.00 | 0.00 | 0.00 | 53 | 1015.3 |
| 20260902223055 | 78 | 283 | 2.6 | 7.0 | 0.00 | 0.00 | 0.00 | 53 | 1015.3 |
| 20260902223043 | 78 | 300 | 2.6 | 7.0 | 0.00 | 0.00 | 0.00 | 53 | 1015.3 |
| 20260902222956 | 78 | 256 | 2.6 | 7.0 | 0.00 | 0.00 | 0.00 | 53 | 1015.3 |
| 20260902222948 | 78 | 238 | 2.6 | 7.0 | 0.00 | 0.00 | 0.00 | 53 | 1015.3 |
| 20260902222742 | 78 | 235 | 2.6 | 7.0 | 0.00 | 0.00 | 0.00 | 53 | 1015.3 |
| 20260902222642 | 78 | 233 | 2.6 | 7.0 | 0.00 | 0.00 | 0.00 | 53 | 1015.2 |
| 20260902222542 | 78 | 284 | 2.6 | 7.0 | 0.00 | 0.00 | 0.00 | 53 | 1015.2 |
| 20260902222442 | 78 | 242 | 2.6 | 7.0 | 0.00 | 0.00 | 0.00 | 52 | 1015.3 |
| 20260902222347 | 78 | 212 | 2.6 | 7.0 | 0.00 | 0.00 | 0.00 | 53 | 1015.3 |
| 20260902222337 | 78 | 226 | 2.6 | 7.0 | 0.00 | 0.00 | 0.00 | 53 | 1015.3 |
| 20260902222242 | 78 | 253 | 2.6 | 9.6 | 0.00 | 0.00 | 0.00 | 52 | 1015.3 |
| 20260902222143 | 78 | 224 | 2.6 | 9.6 | 0.00 | 0.00 | 0.00 | 53 | 1015.3 |
| 20260902222042 | 78 | 249 | 2.6 | 9.6 | 0.00 | 0.00 | 0.00 | 53 | 1015.3 |
| 20260902221942 | 78 | 241 | 2.6 | 9.6 | 0.00 | 0.00 | 0.00 | 54 | 1015.3 |
| 20260902221837 | 78 | 208 | 2.6 | 9.6 | 0.00 | 0.00 | 0.00 | 54 | 1015.3 |
| 20260902221742 | 77 | 231 | 2.6 | 9.6 | 0.00 | 0.00 | 0.00 | 54 | 1015.3 |
| 20260902221642 | 77 | 269 | 3.5 | 9.6 | 0.00 | 0.00 | 0.00 | 54 | 1015.3 |
| 20260902221607 | 77 | 222 | 3.5 | 10.4 | 0.00 | 0.00 | 0.00 | 54 | 1015.3 |
| 20260902221540 | 77 | 212 | 3.5 | 10.4 | 0.00 | 0.00 | 0.00 | 54 | 1015.3 |
| 20260902221444 | 77 | 224 | 3.5 | 10.4 | 0.00 | 0.00 | 0.00 | 54 | 1015.4 |
| 20260902221354 | 77 | 222 | 3.5 | 10.4 | 0.00 | 0.00 | 0.00 | 54 | 1015.3 |
| 20260902221240 | 77 | 238 | 3.5 | 10.4 | 0.00 | 0.00 | 0.00 | 54 | 1015.4 |
| 20260902221141 | 77 | 246 | 3.5 | 10.4 | 0.00 | 0.00 | 0.00 | 53 | 1015.4 |
| 20260902221059 | 77 | 208 | 3.5 | 10.4 | 0.00 | 0.00 | 0.00 | 53 | 1015.4 |
| 20260902221039 | 77 | 233 | 4.3 | 10.4 | 0.00 | 0.00 | 0.00 | 54 | 1015.4 |
| 20260902220956 | 77 | 226 | 4.3 | 10.4 | 0.00 | 0.00 | 0.00 | 54 | 1015.4 |
| 20260902220946 | 77 | 208 | 3.5 | 10.4 | 0.00 | 0.00 | 0.00 | 53 | 1015.4 |
| 20260902220740 | 78 | 233 | 3.5 | 10.4 | 0.00 | 0.00 | 0.00 | 52 | 1015.4 |
| 20260902220640 | 78 | 240 | 2.6 | 10.4 | 0.00 | 0.00 | 0.00 | 52 | 1015.4 |
| 20260902220540 | 78 | 201 | 2.6 | 9.6 | 0.00 | 0.00 | 0.00 | 52 | 1015.4 |
| 20260902220508 | 78 | 240 | 1.7 | 8.7 | 0.00 | 0.00 | 0.00 | 52 | 1015.4 |
| 20260902220342 | 78 | 228 | 2.6 | 8.7 | 0.00 | 0.00 | 0.00 | 53 | 1015.4 |
| 20260902220248 | 78 | 260 | 1.7 | 8.7 | 0.00 | 0.00 | 0.00 | 52 | 1015.4 |
| 20260902220141 | 79 | 260 | 1.7 | 8.7 | 0.00 | 0.00 | 0.00 | 52 | 1015.4 |
| 20260902220040 | 79 | 238 | 1.7 | 8.7 | 0.00 | 0.00 | 0.00 | 53 | 1015.4 |
| 20260902215954 | 78 | 241 | 2.6 | 9.6 | 0.00 | 0.00 | 0.00 | 53 | 1015.4 |
| 20260902215950 | 79 | 238 | 2.6 | 9.6 | 0.00 | 0.00 | 0.00 | 53 | 1015.4 |
| 20260902215831 | 78 | 241 | 2.6 | 9.6 | 0.00 | 0.00 | 0.00 | 53 | 1015.4 |
| 20260902215809 | 78 | 217 | 2.6 | 9.6 | 0.00 | 0.00 | 0.00 | 53 | 1015.5 |
| 20260902215638 | 78 | 146 | 2.6 | 9.6 | 0.00 | 0.00 | 0.00 | 53 | 1015.5 |
| 20260902215538 | 78 | 274 | 3.5 | 9.6 | 0.00 | 0.00 | 0.00 | 53 | 1015.6 |
| 20260902215439 | 78 | 281 | 2.6 | 9.6 | 0.00 | 0.00 | 0.00 | 53 | 1015.6 |
| 20260902215342 | 78 | 236 | 2.6 | 9.6 | 0.00 | 0.00 | 0.00 | 52 | 1015.5 |
| 20260902215331 | 78 | 256 | 2.6 | 9.6 | 0.00 | 0.00 | 0.00 | 52 | 1015.5 |
| 20260902215238 | 78 | 232 | 2.6 | 9.6 | 0.00 | 0.00 | 0.00 | 53 | 1015.6 |
| 20260902215139 | 78 | 159 | 2.6 | 9.6 | 0.00 | 0.00 | 0.00 | 53 | 1015.6 |
| 20260902215038 | 78 | 245 | 1.7 | 8.7 | 0.00 | 0.00 | 0.00 | 53 | 1015.6 |
| 20260902214938 | 78 | 158 | 1.7 | 7.0 | 0.00 | 0.00 | 0.00 | 52 | 1015.6 |
| 20260902214842 | 78 | 216 | 1.7 | 7.0 | 0.00 | 0.00 | 0.00 | 52 | 1015.7 |
| 20260902214831 | 78 | 203 | 1.7 | 7.0 | 0.00 | 0.00 | 0.00 | 52 | 1015.7 |
| 20260902214739 | 78 | 274 | 2.6 | 7.8 | 0.00 | 0.00 | 0.00 | 52 | 1015.7 |
| 20260902214639 | 79 | 273 | 2.6 | 8.7 | 0.00 | 0.00 | 0.00 | 51 | 1015.7 |
| 20260902214539 | 78 | 228 | 3.5 | 8.7 | 0.00 | 0.00 | 0.00 | 53 | 1015.7 |
| 20260902214446 | 78 | 228 | 3.5 | 8.7 | 0.00 | 0.00 | 0.00 | 52 | 1015.7 |
| 20260902214336 | 78 | 284 | 4.3 | 8.7 | 0.00 | 0.00 | 0.00 | 53 | 1015.7 |
| 20260902214234 | 78 | 273 | 4.3 | 8.7 | 0.00 | 0.00 | 0.00 | 53 | 1015.8 |
| 20260902214134 | 78 | 184 | 4.3 | 8.7 | 0.00 | 0.00 | 0.00 | 53 | 1015.7 |
| 20260902214034 | 78 | 222 | 3.5 | 8.7 | 0.00 | 0.00 | 0.00 | 53 | 1015.7 |
| 20260902213934 | 78 | 256 | 3.5 | 8.7 | 0.00 | 0.00 | 0.00 | 52 | 1015.8 |
| 20260902213834 | 78 | 273 | 3.5 | 8.7 | 0.00 | 0.00 | 0.00 | 52 | 1015.7 |
| 20260902213732 | 78 | 219 | 2.6 | 8.7 | 0.00 | 0.00 | 0.00 | 52 | 1015.8 |
| 20260902213632 | 78 | 233 | 1.7 | 8.7 | 0.00 | 0.00 | 0.00 | 52 | 1015.7 |
| 20260902213554 | 77 | 231 | 2.6 | 7.0 | 0.00 | 0.00 | 0.00 | 55 | 1015.9 |
| 20260902213545 | 78 | 335 | 0.9 | 5.2 | 0.00 | 0.00 | 0.00 | 53 | 1015.7 |
| 20260902213540 | 78 | 225 | 1.7 | 8.7 | 0.00 | 0.00 | 0.00 | 52 | 1015.8 |
| 20260902213528 | 78 | 235 | 0.9 | 7.0 | 0.00 | 0.00 | 0.00 | 53 | 1015.8 |
| 20260902213413 | 78 | 335 | 0.9 | 5.2 | 0.00 | 0.00 | 0.00 | 53 | 1015.7 |
| 20260902213238 | 78 | 77 | 0.9 | 5.2 | 0.00 | 0.00 | 0.00 | 53 | 1015.9 |
| 20260902213233 | 78 | 335 | 0.9 | 6.1 | 0.00 | 0.00 | 0.00 | 53 | 1015.7 |
| 20260902213157 | 78 | 214 | 0.0 | 1.7 | 0.00 | 0.00 | 0.00 | 53 | 1015.9 |
| 20260902213153 | 78 | 321 | 0.9 | 6.1 | 0.00 | 0.00 | 0.00 | 54 | 1015.7 |
| 20260902213037 | 78 | 218 | 2.6 | 6.1 | 0.00 | 0.00 | 0.00 | 54 | 1015.8 |
| 20260902213033 | 78 | 321 | 1.7 | 6.1 | 0.00 | 0.00 | 0.00 | 54 | 1015.7 |
| 20260902213024 | 78 | 232 | 1.7 | 5.2 | 0.00 | 0.00 | 0.00 | 53 | 1015.8 |
| 20260902213020 | 78 | 314 | 1.7 | 5.2 | 0.00 | 0.00 | 0.00 | 53 | 1015.9 |
| 20260902213015 | 78 | 77 | 0.9 | 5.2 | 0.00 | 0.00 | 0.00 | 53 | 1015.9 |
| 20260902213005 | 78 | 321 | 1.7 | 6.1 | 0.00 | 0.00 | 0.00 | 54 | 1015.7 |
| 20260902212949 | 78 | 321 | 1.7 | 6.1 | 0.00 | 0.00 | 0.00 | 54 | 1015.8 |
| 20260902212820 | 77 | 264 | 2.6 | 7.8 | 0.00 | 0.00 | 0.00 | 54 | 1016.0 |
| 20260902212816 | 78 | 235 | 1.7 | 6.1 | 0.00 | 0.00 | 0.00 | 54 | 1015.8 |
| 20260902212703 | 78 | 204 | 1.7 | 6.1 | 0.00 | 0.00 | 0.00 | 53 | 1015.8 |
| 20260902212655 | 78 | 250 | 1.7 | 6.1 | 0.00 | 0.00 | 0.00 | 54 | 1015.8 |
| 20260902212643 | 78 | 226 | 1.7 | 6.1 | 0.00 | 0.00 | 0.00 | 53 | 1015.8 |
| 20260902212626 | 78 | 218 | 2.6 | 6.1 | 0.00 | 0.00 | 0.00 | 54 | 1015.8 |
| 20260902212617 | 78 | 266 | 1.7 | 6.1 | 0.00 | 0.00 | 0.00 | 53 | 1015.8 |
| 20260902212610 | 78 | 232 | 1.7 | 5.2 | 0.00 | 0.00 | 0.00 | 53 | 1015.8 |
| 20260902212547 | 78 | 314 | 1.7 | 5.2 | 0.00 | 0.00 | 0.00 | 53 | 1015.9 |
| 20260902212533 | 78 | 18 | 1.7 | 5.2 | 0.00 | 0.00 | 0.00 | 53 | 1015.8 |
| 20260902212519 | 78 | 136 | 1.7 | 5.2 | 0.00 | 0.00 | 0.00 | 52 | 1015.8 |
| 20260902212509 | 78 | 193 | 1.7 | 5.2 | 0.00 | 0.00 | 0.00 | 52 | 1015.9 |
| 20260902212500 | 78 | 256 | 1.7 | 5.2 | 0.00 | 0.00 | 0.00 | 53 | 1015.9 |
| 20260902212450 | 78 | 235 | 0.9 | 5.2 | 0.00 | 0.00 | 0.00 | 53 | 1015.9 |
| 20260902212439 | 78 | 246 | 0.9 | 5.2 | 0.00 | 0.00 | 0.00 | 53 | 1015.9 |
| 20260902212427 | 78 | 77 | 0.9 | 5.2 | 0.00 | 0.00 | 0.00 | 53 | 1015.9 |
| 20260902212405 | 78 | 293 | 0.9 | 5.2 | 0.00 | 0.00 | 0.00 | 53 | 1015.9 |
| 20260902212356 | 78 | 225 | 0.9 | 5.2 | 0.00 | 0.00 | 0.00 | 53 | 1015.9 |
| 20260902212348 | 78 | 173 | 0.9 | 4.3 | 0.00 | 0.00 | 0.00 | 53 | 1015.9 |
| 20260902212340 | 78 | 268 | 0.0 | 4.3 | 0.00 | 0.00 | 0.00 | 53 | 1015.9 |
| 20260902212331 | 78 | 224 | 0.0 | 1.7 | 0.00 | 0.00 | 0.00 | 53 | 1015.9 |
| 20260902211410 | 78 | 193 | 0.0 | 1.7 | 0.00 | 0.00 | 0.00 | 53 | 1015.9 |
| 20260902211402 | 78 | 193 | 0.9 | 6.1 | 0.00 | 0.00 | 0.00 | 53 | 1015.9 |
| 20260902211354 | 78 | 193 | 0.9 | 7.8 | 0.00 | 0.00 | 0.00 | 53 | 1015.9 |
| 20260902211341 | 78 | 193 | 0.9 | 7.8 | 0.00 | 0.00 | 0.00 | 53 | 1015.9 |
| 20260902211322 | 77 | 217 | 1.7 | 7.8 | 0.00 | 0.00 | 0.00 | 53 | 1015.9 |
| 20260902211316 | 77 | 217 | 1.7 | 7.8 | 0.00 | 0.00 | 0.00 | 54 | 1015.9 |
| 20260902211308 | 77 | 264 | 1.7 | 7.8 | 0.00 | 0.00 | 0.00 | 54 | 1015.9 |
| 20260902211259 | 77 | 264 | 1.7 | 7.8 | 0.00 | 0.00 | 0.00 | 54 | 1015.9 |
| 20260902211251 | 77 | 264 | 1.7 | 7.8 | 0.00 | 0.00 | 0.00 | 54 | 1015.9 |
| 20260902211242 | 77 | 264 | 2.6 | 7.8 | 0.00 | 0.00 | 0.00 | 54 | 1016.0 |
| 20260902211127 | 77 | 295 | 2.6 | 7.8 | 0.00 | 0.00 | 0.00 | 55 | 1016.0 |
| 20260902211118 | 77 | 308 | 2.6 | 7.8 | 0.00 | 0.00 | 0.00 | 55 | 1015.9 |
| 20260902211110 | 77 | 210 | 2.6 | 7.0 | 0.00 | 0.00 | 0.00 | 55 | 1015.9 |
| 20260902211058 | 77 | 145 | 2.6 | 7.0 | 0.00 | 0.00 | 0.00 | 56 | 1015.9 |
| 20260902211046 | 77 | 231 | 2.6 | 7.0 | 0.00 | 0.00 | 0.00 | 55 | 1015.9 |
| 20260902205228 | 76 | 243 | 2.6 | 7.0 | 0.00 | 0.00 | 0.00 | 54 | 1016.0 |
| 20260902205127 | 77 | 246 | 2.6 | 7.0 | 0.00 | 0.00 | 0.00 | 53 | 1015.9 |
| 20260902205029 | 77 | 212 | 2.6 | 7.0 | 0.00 | 0.00 | 0.00 | 52 | 1016.0 |
| 20260902204928 | 77 | 221 | 2.6 | 7.0 | 0.00 | 0.00 | 0.00 | 53 | 1016.0 |
| 20260902204831 | 77 | 250 | 2.6 | 7.0 | 0.00 | 0.00 | 0.00 | 51 | 1016.0 |
| 20260902204821 | 77 | 255 | 2.6 | 7.0 | 0.00 | 0.00 | 0.00 | 51 | 1016.0 |
| 20260902204728 | 78 | 211 | 1.7 | 6.1 | 0.00 | 0.00 | 0.00 | 51 | 1016.0 |
| 20260902204629 | 78 | 255 | 1.7 | 6.1 | 0.00 | 0.00 | 0.00 | 51 | 1016.0 |
| 20260902204528 | 78 | 223 | 1.7 | 5.2 | 0.00 | 0.00 | 0.00 | 52 | 1016.0 |
| 20260902204428 | 78 | 214 | 1.7 | 5.2 | 0.00 | 0.00 | 0.00 | 52 | 1016.0 |
| 20260902204332 | 78 | 236 | 1.7 | 5.2 | 0.00 | 0.00 | 0.00 | 52 | 1016.0 |
| 20260902204322 | 78 | 248 | 1.7 | 5.2 | 0.00 | 0.00 | 0.00 | 52 | 1016.0 |
| 20260902204228 | 78 | 205 | 1.7 | 5.2 | 0.00 | 0.00 | 0.00 | 52 | 1016.0 |
| 20260902204128 | 78 | 225 | 1.7 | 5.2 | 0.00 | 0.00 | 0.00 | 52 | 1016.0 |
| 20260902204112 | 78 | 248 | 1.7 | 5.2 | 0.00 | 0.00 | 0.00 | 52 | 1016.0 |
| 20260902203929 | 78 | 224 | 1.7 | 4.3 | 0.00 | 0.00 | 0.00 | 53 | 1016.0 |
| 20260902203821 | 78 | 235 | 1.7 | 5.2 | 0.00 | 0.00 | 0.00 | 53 | 1016.0 |
| 20260902203728 | 78 | 240 | 1.7 | 5.2 | 0.00 | 0.00 | 0.00 | 53 | 1016.1 |
| 20260902203629 | 78 | 100 | 2.6 | 5.2 | 0.00 | 0.00 | 0.00 | 52 | 1016.1 |
| 20260902203529 | 78 | 101 | 2.6 | 5.2 | 0.00 | 0.00 | 0.00 | 52 | 1016.1 |
| 20260902203424 | 78 | 141 | 2.6 | 5.2 | 0.00 | 0.00 | 0.00 | 52 | 1016.1 |
| 20260902203326 | 78 | 110 | 2.6 | 5.2 | 0.00 | 0.00 | 0.00 | 52 | 1016.1 |
| 20260902203225 | 78 | 113 | 2.6 | 5.2 | 0.00 | 0.00 | 0.00 | 52 | 1016.1 |
| 20260902203125 | 78 | 200 | 2.6 | 5.2 | 0.00 | 0.00 | 0.00 | 52 | 1016.2 |
| 20260902203024 | 78 | 225 | 2.6 | 5.2 | 0.00 | 0.00 | 0.00 | 52 | 1016.2 |
| 20260902202945 | 78 | 108 | 1.7 | 5.2 | 0.00 | 0.00 | 0.00 | 52 | 1016.2 |
| 20260902202940 | 78 | 214 | 1.7 | 5.2 | 0.00 | 0.00 | 0.00 | 52 | 1016.2 |
| 20260902202826 | 78 | 108 | 1.7 | 5.2 | 0.00 | 0.00 | 0.00 | 52 | 1016.2 |
| 20260902202724 | 78 | 210 | 1.7 | 5.2 | 0.00 | 0.00 | 0.00 | 51 | 1016.2 |
| 20260902202625 | 78 | 141 | 1.7 | 5.2 | 0.00 | 0.00 | 0.00 | 51 | 1016.3 |
| 20260902202529 | 79 | 219 | 0.9 | 5.2 | 0.00 | 0.00 | 0.00 | 51 | 1016.3 |
| 20260902202423 | 79 | 70 | 0.9 | 5.2 | 0.00 | 0.00 | 0.00 | 50 | 1016.3 |
| 20260902202325 | 79 | 103 | 0.9 | 2.6 | 0.00 | 0.00 | 0.00 | 51 | 1016.3 |
| 20260902202237 | 79 | 146 | 0.9 | 1.7 | 0.00 | 0.00 | 0.00 | 51 | 1016.3 |
| 20260902202233 | 79 | 201 | 0.9 | 1.7 | 0.00 | 0.00 | 0.00 | 51 | 1016.3 |
| 20260902202024 | 79 | 177 | 0.9 | 1.7 | 0.00 | 0.00 | 0.00 | 52 | 1016.3 |
| 20260902201925 | 79 | 309 | 0.9 | 1.7 | 0.00 | 0.00 | 0.00 | 52 | 1016.3 |
| 20260902201830 | 79 | 44 | 0.9 | 1.7 | 0.00 | 0.00 | 0.00 | 52 | 1016.3 |
| 20260902201725 | 79 | 335 | 0.9 | 1.7 | 0.00 | 0.00 | 0.00 | 53 | 1016.4 |
| 20260902201624 | 79 | 294 | 0.9 | 1.7 | 0.00 | 0.00 | 0.00 | 52 | 1016.3 |
| 20260902201526 | 79 | 294 | 0.9 | 1.7 | 0.00 | 0.00 | 0.00 | 52 | 1016.3 |
| 20260902201510 | 77 | 230 | 2.6 | 6.1 | 0.00 | 0.00 | 0.00 | 54 | 1016.5 |
| 20260902201506 | 79 | 294 | 0.9 | 3.5 | 0.00 | 0.00 | 0.00 | 52 | 1016.3 |
| 20260902201447 | 79 | 294 | 0.9 | 4.3 | 0.00 | 0.00 | 0.00 | 53 | 1016.4 |
| 20260902201442 | 79 | 291 | 0.9 | 4.3 | 0.00 | 0.00 | 0.00 | 52 | 1016.4 |
| 20260902201432 | 79 | 226 | 0.9 | 5.2 | 0.00 | 0.00 | 0.00 | 53 | 1016.4 |
| 20260902201424 | 79 | 153 | 1.7 | 5.2 | 0.00 | 0.00 | 0.00 | 53 | 1016.4 |
| 20260902201415 | 78 | 228 | 1.7 | 5.2 | 0.00 | 0.00 | 0.00 | 53 | 1016.5 |
| 20260902201353 | 78 | 217 | 1.7 | 5.2 | 0.00 | 0.00 | 0.00 | 53 | 1016.4 |
| 20260902200722 | 78 | 113 | 1.7 | 6.1 | 0.00 | 0.00 | 0.00 | 53 | 1016.5 |
| 20260902200656 | 77 | 141 | 2.6 | 6.1 | 0.00 | 0.00 | 0.00 | 54 | 1016.5 |
| 20260902200525 | 77 | 131 | 2.6 | 6.1 | 0.00 | 0.00 | 0.00 | 53 | 1016.5 |
| 20260902200439 | 77 | 242 | 2.6 | 6.1 | 0.00 | 0.00 | 0.00 | 54 | 1016.5 |
| 20260902200431 | 77 | 229 | 2.6 | 6.1 | 0.00 | 0.00 | 0.00 | 54 | 1016.5 |
| 20260902200221 | 77 | 212 | 2.6 | 6.1 | 0.00 | 0.00 | 0.00 | 55 | 1016.5 |
| 20260902200123 | 77 | 212 | 2.6 | 6.1 | 0.00 | 0.00 | 0.00 | 55 | 1016.5 |
| 20260902200054 | 76 | 193 | 1.7 | 6.1 | 0.00 | 0.00 | 0.00 | 55 | 1016.5 |
| 20260902195922 | 76 | 250 | 1.7 | 6.1 | 0.00 | 0.00 | 0.00 | 54 | 1016.5 |
| 20260902195829 | 76 | 130 | 1.7 | 6.1 | 0.00 | 0.00 | 0.00 | 54 | 1016.6 |
| 20260902195719 | 76 | 211 | 1.7 | 6.1 | 0.00 | 0.00 | 0.00 | 54 | 1016.6 |
| 20260902195621 | 76 | 219 | 1.7 | 7.8 | 0.00 | 0.00 | 0.00 | 54 | 1016.6 |
| 20260902195526 | 76 | 208 | 1.7 | 7.8 | 0.00 | 0.00 | 0.00 | 56 | 1016.6 |
| 20260902195420 | 76 | 333 | 1.7 | 7.8 | 0.00 | 0.00 | 0.00 | 56 | 1016.5 |
| 20260902195325 | 76 | 310 | 2.6 | 7.8 | 0.00 | 0.00 | 0.00 | 55 | 1016.6 |
| 20260902195220 | 76 | 356 | 2.6 | 7.8 | 0.00 | 0.00 | 0.00 | 56 | 1016.5 |
| 20260902195121 | 76 | 284 | 2.6 | 7.8 | 0.00 | 0.00 | 0.00 | 56 | 1016.6 |
| 20260902195021 | 76 | 300 | 2.6 | 7.8 | 0.00 | 0.00 | 0.00 | 55 | 1016.7 |
| 20260902194952 | 77 | 235 | 1.7 | 7.8 | 0.00 | 0.00 | 0.00 | 55 | 1016.7 |
| 20260902194841 | 77 | 249 | 1.7 | 7.8 | 0.00 | 0.00 | 0.00 | 54 | 1016.7 |
| 20260902194830 | 77 | 257 | 1.7 | 7.8 | 0.00 | 0.00 | 0.00 | 54 | 1016.7 |
| 20260902194620 | 77 | 233 | 1.7 | 6.1 | 0.00 | 0.00 | 0.00 | 54 | 1016.7 |
| 20260902194525 | 77 | 198 | 1.7 | 5.2 | 0.00 | 0.00 | 0.00 | 53 | 1016.7 |
| 20260902194417 | 78 | 230 | 1.7 | 5.2 | 0.00 | 0.00 | 0.00 | 53 | 1016.7 |
| 20260902194322 | 78 | 215 | 1.7 | 5.2 | 0.00 | 0.00 | 0.00 | 53 | 1016.7 |
| 20260902194316 | 78 | 215 | 1.7 | 5.2 | 0.00 | 0.00 | 0.00 | 53 | 1016.8 |
| 20260902194215 | 77 | 146 | 2.6 | 8.7 | 0.00 | 0.00 | 0.00 | 55 | 1016.7 |
| 20260902194117 | 77 | 235 | 2.6 | 8.7 | 0.00 | 0.00 | 0.00 | 54 | 1016.7 |
| 20260902194016 | 77 | 231 | 2.6 | 8.7 | 0.00 | 0.00 | 0.00 | 54 | 1016.8 |
| 20260902193916 | 77 | 205 | 2.6 | 8.7 | 0.00 | 0.00 | 0.00 | 54 | 1016.8 |
| 20260902193822 | 77 | 243 | 2.6 | 8.7 | 0.00 | 0.00 | 0.00 | 54 | 1016.8 |
| 20260902193817 | 77 | 229 | 2.6 | 8.7 | 0.00 | 0.00 | 0.00 | 54 | 1016.8 |
| 20260902193716 | 77 | 146 | 2.6 | 8.7 | 0.00 | 0.00 | 0.00 | 54 | 1016.7 |
| 20260902193616 | 77 | 216 | 1.7 | 8.7 | 0.00 | 0.00 | 0.00 | 54 | 1016.8 |
| 20260902193520 | 77 | 214 | 1.7 | 8.7 | 0.00 | 0.00 | 0.00 | 54 | 1016.7 |
| 20260902193415 | 77 | 183 | 1.7 | 8.7 | 0.00 | 0.00 | 0.00 | 53 | 1016.8 |
| 20260902193323 | 77 | 183 | 1.7 | 8.7 | 0.00 | 0.00 | 0.00 | 53 | 1016.8 |
| 20260902193317 | 77 | 218 | 1.7 | 8.7 | 0.00 | 0.00 | 0.00 | 53 | 1016.8 |
| 20260902193217 | 77 | 217 | 0.9 | 7.0 | 0.00 | 0.00 | 0.00 | 54 | 1016.8 |
| 20260902193117 | 77 | 234 | 1.7 | 7.0 | 0.00 | 0.00 | 0.00 | 55 | 1016.8 |
| 20260902193016 | 77 | 232 | 0.9 | 7.0 | 0.00 | 0.00 | 0.00 | 55 | 1016.8 |
| 20260902192914 | 77 | 273 | 0.9 | 7.0 | 0.00 | 0.00 | 0.00 | 55 | 1016.8 |
| 20260902192821 | 77 | 256 | 0.9 | 7.0 | 0.00 | 0.00 | 0.00 | 55 | 1016.8 |
| 20260902192815 | 77 | 256 | 0.9 | 7.0 | 0.00 | 0.00 | 0.00 | 55 | 1016.9 |
| 20260902192715 | 77 | 256 | 0.9 | 7.0 | 0.00 | 0.00 | 0.00 | 55 | 1017.0 |
| 20260902192615 | 77 | 256 | 0.9 | 7.0 | 0.00 | 0.00 | 0.00 | 54 | 1017.0 |
| 20260902192546 | 77 | 274 | 1.7 | 7.0 | 0.00 | 0.00 | 0.00 | 53 | 1016.9 |
| 20260902192519 | 77 | 239 | 1.7 | 7.0 | 0.00 | 0.00 | 0.00 | 54 | 1017.0 |
| 20260902192431 | 77 | 225 | 1.7 | 7.0 | 0.00 | 0.00 | 0.00 | 55 | 1016.9 |
| 20260902192315 | 77 | 281 | 1.7 | 7.0 | 0.00 | 0.00 | 0.00 | 53 | 1017.0 |
| 20260902192214 | 77 | 242 | 1.7 | 5.2 | 0.00 | 0.00 | 0.00 | 54 | 1017.0 |
| 20260902192115 | 77 | 278 | 1.7 | 4.3 | 0.00 | 0.00 | 0.00 | 55 | 1017.0 |
| 20260902192014 | 77 | 297 | 1.7 | 7.0 | 0.00 | 0.00 | 0.00 | 55 | 1017.0 |
| 20260902191914 | 77 | 296 | 1.7 | 7.0 | 0.00 | 0.00 | 0.00 | 55 | 1017.0 |
| 20260902191814 | 76 | 296 | 1.7 | 7.0 | 0.00 | 0.00 | 0.00 | 55 | 1017.0 |
| 20260902191714 | 76 | 191 | 1.7 | 7.0 | 0.00 | 0.00 | 0.00 | 56 | 1017.0 |
| 20260902191617 | 76 | 243 | 1.7 | 7.0 | 0.00 | 0.00 | 0.00 | 56 | 1017.0 |
| 20260902191541 | 75 | 146 | 1.7 | 7.0 | 0.00 | 0.00 | 0.00 | 56 | 1017.1 |
| 20260902191518 | 76 | 266 | 1.7 | 7.0 | 0.00 | 0.00 | 0.00 | 56 | 1017.1 |
| 20260902191414 | 75 | 138 | 1.7 | 7.0 | 0.00 | 0.00 | 0.00 | 56 | 1017.1 |
| 20260902191318 | 75 | 146 | 1.7 | 7.0 | 0.00 | 0.00 | 0.00 | 56 | 1017.1 |
| 20260902191310 | 75 | 138 | 1.7 | 7.0 | 0.00 | 0.00 | 0.00 | 56 | 1017.1 |
| 20260902191214 | 75 | 206 | 2.6 | 8.7 | 0.00 | 0.00 | 0.00 | 56 | 1017.1 |
| 20260902191111 | 75 | 179 | 2.6 | 8.7 | 0.00 | 0.00 | 0.00 | 56 | 1017.2 |
| 20260902191010 | 75 | 165 | 1.7 | 8.7 | 0.00 | 0.00 | 0.00 | 56 | 1017.2 |
| 20260902190910 | 75 | 223 | 1.7 | 8.7 | 0.00 | 0.00 | 0.00 | 57 | 1017.2 |
| 20260902190848 | 76 | 231 | 1.7 | 8.7 | 0.00 | 0.00 | 0.00 | 55 | 1017.2 |
| 20260902190810 | 75 | 246 | 1.7 | 8.7 | 0.00 | 0.00 | 0.00 | 57 | 1017.2 |
| 20260902190743 | 75 | 231 | 1.7 | 8.7 | 0.00 | 0.00 | 0.00 | 56 | 1017.2 |
| 20260902190738 | 75 | 246 | 1.7 | 8.7 | 0.00 | 0.00 | 0.00 | 57 | 1017.2 |
| 20260902190625 | 75 | 218 | 1.7 | 8.7 | 0.00 | 0.00 | 0.00 | 57 | 1017.2 |
| 20260902190410 | 75 | 238 | 1.7 | 8.7 | 0.00 | 0.00 | 0.00 | 57 | 1017.2 |
| 20260902190311 | 76 | 218 | 1.7 | 8.7 | 0.00 | 0.00 | 0.00 | 55 | 1017.2 |
| 20260902190301 | 76 | 221 | 1.7 | 6.1 | 0.00 | 0.00 | 0.00 | 56 | 1017.2 |
| 20260902190210 | 76 | 250 | 1.7 | 7.0 | 0.00 | 0.00 | 0.00 | 55 | 1017.1 |
| 20260902190111 | 76 | 229 | 1.7 | 6.1 | 0.00 | 0.00 | 0.00 | 56 | 1017.2 |
| 20260902190041 | 76 | 221 | 1.7 | 6.1 | 0.00 | 0.00 | 0.00 | 56 | 1017.2 |
| 20260902190010 | 76 | 231 | 1.7 | 6.1 | 0.00 | 0.00 | 0.00 | 57 | 1017.1 |
| 20260902185927 | 76 | 117 | 1.7 | 6.1 | 0.00 | 0.00 | 0.00 | 56 | 1017.2 |
| 20260902185810 | 76 | 221 | 1.7 | 6.1 | 0.00 | 0.00 | 0.00 | 55 | 1017.2 |
| 20260902185711 | 76 | 233 | 1.7 | 6.1 | 0.00 | 0.00 | 0.00 | 56 | 1017.2 |
| 20260902185611 | 76 | 235 | 1.7 | 6.1 | 0.00 | 0.00 | 0.00 | 55 | 1017.2 |
| 20260902185511 | 76 | 218 | 1.7 | 6.1 | 0.00 | 0.00 | 0.00 | 55 | 1017.1 |
| 20260902185404 | 76 | 141 | 1.7 | 6.1 | 0.00 | 0.00 | 0.00 | 56 | 1017.1 |
| 20260902185314 | 76 | 143 | 1.7 | 6.1 | 0.00 | 0.00 | 0.00 | 56 | 1017.1 |
| 20260902185307 | 76 | 145 | 1.7 | 6.1 | 0.00 | 0.00 | 0.00 | 56 | 1017.1 |
| 20260902185205 | 76 | 132 | 0.9 | 6.1 | 0.00 | 0.00 | 0.00 | 55 | 1017.2 |
| 20260902185105 | 76 | 137 | 0.9 | 6.1 | 0.00 | 0.00 | 0.00 | 55 | 1017.2 |
| 20260902185004 | 76 | 99 | 0.9 | 4.3 | 0.00 | 0.00 | 0.00 | 56 | 1017.2 |
| 20260902184904 | 76 | 117 | 0.9 | 3.5 | 0.00 | 0.00 | 0.00 | 57 | 1017.2 |
| 20260902184846 | 76 | 11 | 0.9 | 3.5 | 0.00 | 0.00 | 0.00 | 57 | 1017.1 |
| 20260902184804 | 76 | 11 | 0.9 | 4.3 | 0.00 | 0.00 | 0.00 | 57 | 1017.1 |
| 20260902184704 | 75 | 12 | 0.9 | 4.3 | 0.00 | 0.00 | 0.00 | 58 | 1017.2 |
| 20260902184605 | 75 | 117 | 0.9 | 4.3 | 0.00 | 0.00 | 0.00 | 58 | 1017.2 |
| 20260902184505 | 75 | 59 | 1.7 | 4.3 | 0.00 | 0.00 | 0.00 | 57 | 1017.2 |